<?xml version="1.0" encoding="UTF-8" standalone="no" ?>
<gpx xmlns="http://www.topografix.com/GPX/1/1" xmlns:xsi="http://www.w3.org/2001/XMLSchema-instance" xsi:schemaLocation="http://www.topografix.com/GPX/1/1 http://www.topografix.com/GPX/1/1/gpx.xsd" version="1.1" creator="VisuGPX - https://www.visugpx.com">
  <metadata>
    <name>Randonnée Le Mesnil Esnard</name>
    <desc><![CDATA[Circuit au départ du Mesnil Esnard avec un passage par BOnsecours]]></desc>
  </metadata>
  <trk>
    <name><![CDATA[Randonnée Le Mesnil Esnard_1]]></name>
    <trkseg>
      <trkpt lat="49.40692" lon="1.1511">
        <ele>162</ele>
        <time>2017-01-10T13:47:43Z</time>
      </trkpt>
      <trkpt lat="49.4069" lon="1.1511">
        <ele>162</ele>
        <time>2017-01-10T13:47:43Z</time>
      </trkpt>
      <trkpt lat="49.40686" lon="1.15111">
        <ele>162</ele>
        <time>2017-01-10T13:47:43Z</time>
      </trkpt>
      <trkpt lat="49.40683" lon="1.15115">
        <ele>162</ele>
        <time>2017-01-10T13:47:43Z</time>
      </trkpt>
      <trkpt lat="49.40679" lon="1.15119">
        <ele>162</ele>
        <time>2017-01-10T13:47:43Z</time>
      </trkpt>
      <trkpt lat="49.40675" lon="1.15119">
        <ele>162</ele>
        <time>2017-01-10T13:47:59Z</time>
      </trkpt>
      <trkpt lat="49.4067" lon="1.15119">
        <ele>162</ele>
        <time>2017-01-10T13:47:59Z</time>
      </trkpt>
      <trkpt lat="49.40666" lon="1.1512">
        <ele>162</ele>
        <time>2017-01-10T13:47:59Z</time>
      </trkpt>
      <trkpt lat="49.40663" lon="1.15124">
        <ele>162</ele>
        <time>2017-01-10T13:47:59Z</time>
      </trkpt>
      <trkpt lat="49.40658" lon="1.15129">
        <ele>164</ele>
        <time>2017-01-10T13:48:15Z</time>
      </trkpt>
      <trkpt lat="49.40649" lon="1.15131">
        <ele>164</ele>
        <time>2017-01-10T13:48:15Z</time>
      </trkpt>
      <trkpt lat="49.40646" lon="1.15133">
        <ele>164</ele>
        <time>2017-01-10T13:48:15Z</time>
      </trkpt>
      <trkpt lat="49.40644" lon="1.15133">
        <ele>164</ele>
        <time>2017-01-10T13:48:15Z</time>
      </trkpt>
      <trkpt lat="49.40642" lon="1.15131">
        <ele>164</ele>
        <time>2017-01-10T13:48:31Z</time>
      </trkpt>
      <trkpt lat="49.40637" lon="1.15123">
        <ele>162</ele>
        <time>2017-01-10T13:48:31Z</time>
      </trkpt>
      <trkpt lat="49.40633" lon="1.15119">
        <ele>162</ele>
        <time>2017-01-10T13:48:31Z</time>
      </trkpt>
      <trkpt lat="49.4063" lon="1.15112">
        <ele>162</ele>
        <time>2017-01-10T13:48:31Z</time>
      </trkpt>
      <trkpt lat="49.40627" lon="1.15105">
        <ele>162</ele>
        <time>2017-01-10T13:48:47Z</time>
      </trkpt>
      <trkpt lat="49.40623" lon="1.15101">
        <ele>160</ele>
        <time>2017-01-10T13:48:47Z</time>
      </trkpt>
      <trkpt lat="49.40619" lon="1.15101">
        <ele>160</ele>
        <time>2017-01-10T13:48:47Z</time>
      </trkpt>
      <trkpt lat="49.40617" lon="1.15099">
        <ele>160</ele>
        <time>2017-01-10T13:48:47Z</time>
      </trkpt>
      <trkpt lat="49.40615" lon="1.15104">
        <ele>160</ele>
        <time>2017-01-10T13:49:03Z</time>
      </trkpt>
      <trkpt lat="49.40615" lon="1.15107">
        <ele>160</ele>
        <time>2017-01-10T13:49:03Z</time>
      </trkpt>
      <trkpt lat="49.4061" lon="1.15105">
        <ele>160</ele>
        <time>2017-01-10T13:49:03Z</time>
      </trkpt>
      <trkpt lat="49.40605" lon="1.151">
        <ele>160</ele>
        <time>2017-01-10T13:49:03Z</time>
      </trkpt>
      <trkpt lat="49.40601" lon="1.15098">
        <ele>160</ele>
        <time>2017-01-10T13:49:19Z</time>
      </trkpt>
      <trkpt lat="49.40598" lon="1.15098">
        <ele>160</ele>
        <time>2017-01-10T13:49:19Z</time>
      </trkpt>
      <trkpt lat="49.40595" lon="1.15102">
        <ele>160</ele>
        <time>2017-01-10T13:49:19Z</time>
      </trkpt>
      <trkpt lat="49.40594" lon="1.15108">
        <ele>160</ele>
        <time>2017-01-10T13:49:19Z</time>
      </trkpt>
      <trkpt lat="49.40593" lon="1.15115">
        <ele>160</ele>
        <time>2017-01-10T13:49:35Z</time>
      </trkpt>
      <trkpt lat="49.40591" lon="1.15123">
        <ele>160</ele>
        <time>2017-01-10T13:49:35Z</time>
      </trkpt>
      <trkpt lat="49.40588" lon="1.15128">
        <ele>162</ele>
        <time>2017-01-10T13:49:35Z</time>
      </trkpt>
      <trkpt lat="49.40587" lon="1.15133">
        <ele>162</ele>
        <time>2017-01-10T13:49:35Z</time>
      </trkpt>
      <trkpt lat="49.40583" lon="1.15138">
        <ele>162</ele>
        <time>2017-01-10T13:49:51Z</time>
      </trkpt>
      <trkpt lat="49.40578" lon="1.15142">
        <ele>162</ele>
        <time>2017-01-10T13:49:51Z</time>
      </trkpt>
      <trkpt lat="49.40573" lon="1.15147">
        <ele>162</ele>
        <time>2017-01-10T13:49:51Z</time>
      </trkpt>
      <trkpt lat="49.4057" lon="1.15153">
        <ele>162</ele>
        <time>2017-01-10T13:49:51Z</time>
      </trkpt>
      <trkpt lat="49.40569" lon="1.15151">
        <ele>162</ele>
        <time>2017-01-10T13:50:31Z</time>
      </trkpt>
      <trkpt lat="49.40569" lon="1.15151">
        <ele>162</ele>
        <time>2017-01-10T13:50:31Z</time>
      </trkpt>
      <trkpt lat="49.40569" lon="1.15151">
        <ele>162</ele>
        <time>2017-01-10T13:50:31Z</time>
      </trkpt>
      <trkpt lat="49.40567" lon="1.15146">
        <ele>162</ele>
        <time>2017-01-10T13:50:31Z</time>
      </trkpt>
      <trkpt lat="49.40562" lon="1.1514">
        <ele>162</ele>
        <time>2017-01-10T13:50:31Z</time>
      </trkpt>
      <trkpt lat="49.40567" lon="1.1513">
        <ele>162</ele>
        <time>2017-01-10T13:50:55Z</time>
      </trkpt>
      <trkpt lat="49.40569" lon="1.15127">
        <ele>162</ele>
        <time>2017-01-10T13:50:55Z</time>
      </trkpt>
      <trkpt lat="49.40568" lon="1.15126">
        <ele>162</ele>
        <time>2017-01-10T13:50:55Z</time>
      </trkpt>
      <trkpt lat="49.40567" lon="1.15125">
        <ele>160</ele>
        <time>2017-01-10T13:50:55Z</time>
      </trkpt>
      <trkpt lat="49.40568" lon="1.15115">
        <ele>160</ele>
        <time>2017-01-10T13:50:55Z</time>
      </trkpt>
      <trkpt lat="49.40568" lon="1.15108">
        <ele>160</ele>
        <time>2017-01-10T13:51:11Z</time>
      </trkpt>
      <trkpt lat="49.40563" lon="1.1511">
        <ele>160</ele>
        <time>2017-01-10T13:51:11Z</time>
      </trkpt>
      <trkpt lat="49.40563" lon="1.15103">
        <ele>160</ele>
        <time>2017-01-10T13:51:11Z</time>
      </trkpt>
      <trkpt lat="49.40559" lon="1.15099">
        <ele>160</ele>
        <time>2017-01-10T13:51:11Z</time>
      </trkpt>
      <trkpt lat="49.40557" lon="1.151">
        <ele>160</ele>
        <time>2017-01-10T13:51:31Z</time>
      </trkpt>
      <trkpt lat="49.40557" lon="1.151">
        <ele>160</ele>
        <time>2017-01-10T13:51:31Z</time>
      </trkpt>
      <trkpt lat="49.40556" lon="1.15098">
        <ele>160</ele>
        <time>2017-01-10T13:51:31Z</time>
      </trkpt>
      <trkpt lat="49.40553" lon="1.15093">
        <ele>160</ele>
        <time>2017-01-10T13:51:31Z</time>
      </trkpt>
      <trkpt lat="49.4055" lon="1.15089">
        <ele>160</ele>
        <time>2017-01-10T13:51:31Z</time>
      </trkpt>
      <trkpt lat="49.40547" lon="1.15084">
        <ele>160</ele>
        <time>2017-01-10T13:51:47Z</time>
      </trkpt>
      <trkpt lat="49.40543" lon="1.15079">
        <ele>160</ele>
        <time>2017-01-10T13:51:47Z</time>
      </trkpt>
      <trkpt lat="49.40539" lon="1.15076">
        <ele>160</ele>
        <time>2017-01-10T13:51:47Z</time>
      </trkpt>
      <trkpt lat="49.40535" lon="1.15073">
        <ele>160</ele>
        <time>2017-01-10T13:51:47Z</time>
      </trkpt>
      <trkpt lat="49.40531" lon="1.15071">
        <ele>160</ele>
        <time>2017-01-10T13:52:03Z</time>
      </trkpt>
      <trkpt lat="49.40526" lon="1.15068">
        <ele>160</ele>
        <time>2017-01-10T13:52:03Z</time>
      </trkpt>
      <trkpt lat="49.40522" lon="1.15066">
        <ele>160</ele>
        <time>2017-01-10T13:52:03Z</time>
      </trkpt>
      <trkpt lat="49.40518" lon="1.15063">
        <ele>160</ele>
        <time>2017-01-10T13:52:03Z</time>
      </trkpt>
      <trkpt lat="49.40514" lon="1.15059">
        <ele>160</ele>
        <time>2017-01-10T13:52:19Z</time>
      </trkpt>
      <trkpt lat="49.40506" lon="1.1505">
        <ele>160</ele>
        <time>2017-01-10T13:52:19Z</time>
      </trkpt>
      <trkpt lat="49.40501" lon="1.15037">
        <ele>159</ele>
        <time>2017-01-10T13:52:19Z</time>
      </trkpt>
      <trkpt lat="49.40497" lon="1.15032">
        <ele>159</ele>
        <time>2017-01-10T13:52:19Z</time>
      </trkpt>
      <trkpt lat="49.40491" lon="1.15032">
        <ele>159</ele>
        <time>2017-01-10T13:52:35Z</time>
      </trkpt>
      <trkpt lat="49.40485" lon="1.15033">
        <ele>159</ele>
        <time>2017-01-10T13:52:35Z</time>
      </trkpt>
      <trkpt lat="49.40481" lon="1.15034">
        <ele>159</ele>
        <time>2017-01-10T13:52:35Z</time>
      </trkpt>
      <trkpt lat="49.40475" lon="1.15034">
        <ele>159</ele>
        <time>2017-01-10T13:52:35Z</time>
      </trkpt>
      <trkpt lat="49.4047" lon="1.15035">
        <ele>159</ele>
        <time>2017-01-10T13:52:51Z</time>
      </trkpt>
      <trkpt lat="49.40466" lon="1.15037">
        <ele>159</ele>
        <time>2017-01-10T13:52:51Z</time>
      </trkpt>
      <trkpt lat="49.40462" lon="1.15041">
        <ele>159</ele>
        <time>2017-01-10T13:52:51Z</time>
      </trkpt>
      <trkpt lat="49.40458" lon="1.15044">
        <ele>159</ele>
        <time>2017-01-10T13:52:51Z</time>
      </trkpt>
      <trkpt lat="49.40454" lon="1.15042">
        <ele>159</ele>
        <time>2017-01-10T13:53:07Z</time>
      </trkpt>
      <trkpt lat="49.40448" lon="1.15038">
        <ele>158</ele>
        <time>2017-01-10T13:53:07Z</time>
      </trkpt>
      <trkpt lat="49.40444" lon="1.15036">
        <ele>158</ele>
        <time>2017-01-10T13:53:07Z</time>
      </trkpt>
      <trkpt lat="49.4044" lon="1.15036">
        <ele>158</ele>
        <time>2017-01-10T13:53:07Z</time>
      </trkpt>
      <trkpt lat="49.40435" lon="1.15037">
        <ele>158</ele>
        <time>2017-01-10T13:53:23Z</time>
      </trkpt>
      <trkpt lat="49.4043" lon="1.15038">
        <ele>158</ele>
        <time>2017-01-10T13:53:23Z</time>
      </trkpt>
      <trkpt lat="49.40426" lon="1.15035">
        <ele>158</ele>
        <time>2017-01-10T13:53:23Z</time>
      </trkpt>
      <trkpt lat="49.40422" lon="1.15032">
        <ele>158</ele>
        <time>2017-01-10T13:53:23Z</time>
      </trkpt>
      <trkpt lat="49.40417" lon="1.15028">
        <ele>158</ele>
        <time>2017-01-10T13:53:39Z</time>
      </trkpt>
      <trkpt lat="49.40413" lon="1.15023">
        <ele>158</ele>
        <time>2017-01-10T13:53:39Z</time>
      </trkpt>
      <trkpt lat="49.40408" lon="1.15012">
        <ele>158</ele>
        <time>2017-01-10T13:53:39Z</time>
      </trkpt>
      <trkpt lat="49.40404" lon="1.15003">
        <ele>158</ele>
        <time>2017-01-10T13:53:39Z</time>
      </trkpt>
      <trkpt lat="49.404" lon="1.14996">
        <ele>158</ele>
        <time>2017-01-10T13:53:55Z</time>
      </trkpt>
      <trkpt lat="49.40398" lon="1.1499">
        <ele>158</ele>
        <time>2017-01-10T13:53:55Z</time>
      </trkpt>
      <trkpt lat="49.40394" lon="1.14985">
        <ele>158</ele>
        <time>2017-01-10T13:53:55Z</time>
      </trkpt>
      <trkpt lat="49.40392" lon="1.14979">
        <ele>158</ele>
        <time>2017-01-10T13:53:55Z</time>
      </trkpt>
      <trkpt lat="49.40393" lon="1.14972">
        <ele>158</ele>
        <time>2017-01-10T13:54:11Z</time>
      </trkpt>
      <trkpt lat="49.40394" lon="1.14964">
        <ele>158</ele>
        <time>2017-01-10T13:54:11Z</time>
      </trkpt>
      <trkpt lat="49.40394" lon="1.14956">
        <ele>158</ele>
        <time>2017-01-10T13:54:11Z</time>
      </trkpt>
      <trkpt lat="49.40393" lon="1.14948">
        <ele>158</ele>
        <time>2017-01-10T13:54:11Z</time>
      </trkpt>
      <trkpt lat="49.40394" lon="1.14941">
        <ele>158</ele>
        <time>2017-01-10T13:54:27Z</time>
      </trkpt>
      <trkpt lat="49.40394" lon="1.14933">
        <ele>158</ele>
        <time>2017-01-10T13:54:27Z</time>
      </trkpt>
      <trkpt lat="49.40395" lon="1.14924">
        <ele>158</ele>
        <time>2017-01-10T13:54:27Z</time>
      </trkpt>
      <trkpt lat="49.40396" lon="1.14915">
        <ele>158</ele>
        <time>2017-01-10T13:54:27Z</time>
      </trkpt>
      <trkpt lat="49.40397" lon="1.14909">
        <ele>158</ele>
        <time>2017-01-10T13:54:43Z</time>
      </trkpt>
      <trkpt lat="49.40397" lon="1.14901">
        <ele>158</ele>
        <time>2017-01-10T13:54:43Z</time>
      </trkpt>
      <trkpt lat="49.40398" lon="1.14893">
        <ele>158</ele>
        <time>2017-01-10T13:54:43Z</time>
      </trkpt>
      <trkpt lat="49.404" lon="1.14886">
        <ele>158</ele>
        <time>2017-01-10T13:54:43Z</time>
      </trkpt>
      <trkpt lat="49.40401" lon="1.14879">
        <ele>158</ele>
        <time>2017-01-10T13:54:59Z</time>
      </trkpt>
      <trkpt lat="49.40403" lon="1.14872">
        <ele>158</ele>
        <time>2017-01-10T13:54:59Z</time>
      </trkpt>
      <trkpt lat="49.40404" lon="1.14865">
        <ele>158</ele>
        <time>2017-01-10T13:54:59Z</time>
      </trkpt>
      <trkpt lat="49.40405" lon="1.14858">
        <ele>158</ele>
        <time>2017-01-10T13:54:59Z</time>
      </trkpt>
      <trkpt lat="49.40405" lon="1.1485">
        <ele>158</ele>
        <time>2017-01-10T13:55:15Z</time>
      </trkpt>
      <trkpt lat="49.40405" lon="1.14843">
        <ele>158</ele>
        <time>2017-01-10T13:55:15Z</time>
      </trkpt>
      <trkpt lat="49.40403" lon="1.14835">
        <ele>158</ele>
        <time>2017-01-10T13:55:15Z</time>
      </trkpt>
      <trkpt lat="49.40401" lon="1.14828">
        <ele>158</ele>
        <time>2017-01-10T13:55:15Z</time>
      </trkpt>
      <trkpt lat="49.40397" lon="1.14822">
        <ele>158</ele>
        <time>2017-01-10T13:55:31Z</time>
      </trkpt>
      <trkpt lat="49.40395" lon="1.14818">
        <ele>158</ele>
        <time>2017-01-10T13:55:31Z</time>
      </trkpt>
      <trkpt lat="49.4039" lon="1.14814">
        <ele>158</ele>
        <time>2017-01-10T13:55:31Z</time>
      </trkpt>
      <trkpt lat="49.40386" lon="1.1481">
        <ele>158</ele>
        <time>2017-01-10T13:55:31Z</time>
      </trkpt>
      <trkpt lat="49.40381" lon="1.14807">
        <ele>158</ele>
        <time>2017-01-10T13:55:47Z</time>
      </trkpt>
      <trkpt lat="49.40376" lon="1.14807">
        <ele>158</ele>
        <time>2017-01-10T13:55:47Z</time>
      </trkpt>
      <trkpt lat="49.40371" lon="1.14806">
        <ele>155</ele>
        <time>2017-01-10T13:55:47Z</time>
      </trkpt>
      <trkpt lat="49.40367" lon="1.14804">
        <ele>155</ele>
        <time>2017-01-10T13:55:47Z</time>
      </trkpt>
      <trkpt lat="49.40363" lon="1.14797">
        <ele>155</ele>
        <time>2017-01-10T13:56:03Z</time>
      </trkpt>
      <trkpt lat="49.40359" lon="1.14793">
        <ele>155</ele>
        <time>2017-01-10T13:56:03Z</time>
      </trkpt>
      <trkpt lat="49.40358" lon="1.14786">
        <ele>155</ele>
        <time>2017-01-10T13:56:03Z</time>
      </trkpt>
      <trkpt lat="49.40355" lon="1.1478">
        <ele>155</ele>
        <time>2017-01-10T13:56:03Z</time>
      </trkpt>
      <trkpt lat="49.40352" lon="1.14774">
        <ele>155</ele>
        <time>2017-01-10T13:56:19Z</time>
      </trkpt>
      <trkpt lat="49.40349" lon="1.14768">
        <ele>155</ele>
        <time>2017-01-10T13:56:19Z</time>
      </trkpt>
      <trkpt lat="49.40342" lon="1.14764">
        <ele>155</ele>
        <time>2017-01-10T13:56:19Z</time>
      </trkpt>
      <trkpt lat="49.40338" lon="1.14756">
        <ele>155</ele>
        <time>2017-01-10T13:56:19Z</time>
      </trkpt>
      <trkpt lat="49.40336" lon="1.14749">
        <ele>155</ele>
        <time>2017-01-10T13:56:35Z</time>
      </trkpt>
      <trkpt lat="49.40333" lon="1.14742">
        <ele>155</ele>
        <time>2017-01-10T13:56:35Z</time>
      </trkpt>
      <trkpt lat="49.40332" lon="1.14734">
        <ele>155</ele>
        <time>2017-01-10T13:56:35Z</time>
      </trkpt>
      <trkpt lat="49.40332" lon="1.14726">
        <ele>155</ele>
        <time>2017-01-10T13:56:35Z</time>
      </trkpt>
      <trkpt lat="49.4033" lon="1.1472">
        <ele>155</ele>
        <time>2017-01-10T13:56:51Z</time>
      </trkpt>
      <trkpt lat="49.4033" lon="1.14713">
        <ele>155</ele>
        <time>2017-01-10T13:56:51Z</time>
      </trkpt>
      <trkpt lat="49.40327" lon="1.14707">
        <ele>155</ele>
        <time>2017-01-10T13:56:51Z</time>
      </trkpt>
      <trkpt lat="49.40325" lon="1.147">
        <ele>155</ele>
        <time>2017-01-10T13:56:51Z</time>
      </trkpt>
      <trkpt lat="49.40326" lon="1.14694">
        <ele>155</ele>
        <time>2017-01-10T13:57:07Z</time>
      </trkpt>
      <trkpt lat="49.40325" lon="1.14687">
        <ele>155</ele>
        <time>2017-01-10T13:57:07Z</time>
      </trkpt>
      <trkpt lat="49.40327" lon="1.14682">
        <ele>155</ele>
        <time>2017-01-10T13:57:07Z</time>
      </trkpt>
      <trkpt lat="49.40329" lon="1.14674">
        <ele>155</ele>
        <time>2017-01-10T13:57:07Z</time>
      </trkpt>
      <trkpt lat="49.4033" lon="1.14665">
        <ele>155</ele>
        <time>2017-01-10T13:57:23Z</time>
      </trkpt>
      <trkpt lat="49.40328" lon="1.14659">
        <ele>155</ele>
        <time>2017-01-10T13:57:23Z</time>
      </trkpt>
      <trkpt lat="49.40326" lon="1.14652">
        <ele>155</ele>
        <time>2017-01-10T13:57:23Z</time>
      </trkpt>
      <trkpt lat="49.40323" lon="1.14647">
        <ele>155</ele>
        <time>2017-01-10T13:57:23Z</time>
      </trkpt>
      <trkpt lat="49.4032" lon="1.1464">
        <ele>155</ele>
        <time>2017-01-10T13:57:39Z</time>
      </trkpt>
      <trkpt lat="49.40318" lon="1.14632">
        <ele>155</ele>
        <time>2017-01-10T13:57:39Z</time>
      </trkpt>
      <trkpt lat="49.40315" lon="1.1463">
        <ele>155</ele>
        <time>2017-01-10T13:57:39Z</time>
      </trkpt>
      <trkpt lat="49.4031" lon="1.14628">
        <ele>155</ele>
        <time>2017-01-10T13:57:39Z</time>
      </trkpt>
      <trkpt lat="49.40305" lon="1.14628">
        <ele>155</ele>
        <time>2017-01-10T13:57:55Z</time>
      </trkpt>
      <trkpt lat="49.403" lon="1.14626">
        <ele>155</ele>
        <time>2017-01-10T13:57:55Z</time>
      </trkpt>
      <trkpt lat="49.40296" lon="1.14621">
        <ele>153</ele>
        <time>2017-01-10T13:57:55Z</time>
      </trkpt>
      <trkpt lat="49.40294" lon="1.14614">
        <ele>153</ele>
        <time>2017-01-10T13:57:55Z</time>
      </trkpt>
      <trkpt lat="49.40293" lon="1.14608">
        <ele>153</ele>
        <time>2017-01-10T13:58:11Z</time>
      </trkpt>
      <trkpt lat="49.40291" lon="1.146">
        <ele>155</ele>
        <time>2017-01-10T13:58:11Z</time>
      </trkpt>
      <trkpt lat="49.40291" lon="1.14592">
        <ele>155</ele>
        <time>2017-01-10T13:58:11Z</time>
      </trkpt>
      <trkpt lat="49.40291" lon="1.14585">
        <ele>155</ele>
        <time>2017-01-10T13:58:11Z</time>
      </trkpt>
      <trkpt lat="49.4029" lon="1.14578">
        <ele>155</ele>
        <time>2017-01-10T13:58:27Z</time>
      </trkpt>
      <trkpt lat="49.40292" lon="1.14573">
        <ele>153</ele>
        <time>2017-01-10T13:58:27Z</time>
      </trkpt>
      <trkpt lat="49.40297" lon="1.14573">
        <ele>153</ele>
        <time>2017-01-10T13:58:27Z</time>
      </trkpt>
      <trkpt lat="49.403" lon="1.14569">
        <ele>153</ele>
        <time>2017-01-10T13:58:27Z</time>
      </trkpt>
      <trkpt lat="49.40304" lon="1.14566">
        <ele>153</ele>
        <time>2017-01-10T13:58:43Z</time>
      </trkpt>
      <trkpt lat="49.40309" lon="1.14563">
        <ele>153</ele>
        <time>2017-01-10T13:58:43Z</time>
      </trkpt>
      <trkpt lat="49.40313" lon="1.14561">
        <ele>153</ele>
        <time>2017-01-10T13:58:43Z</time>
      </trkpt>
      <trkpt lat="49.40318" lon="1.14558">
        <ele>153</ele>
        <time>2017-01-10T13:58:43Z</time>
      </trkpt>
      <trkpt lat="49.40322" lon="1.14556">
        <ele>153</ele>
        <time>2017-01-10T13:58:59Z</time>
      </trkpt>
      <trkpt lat="49.40327" lon="1.14554">
        <ele>153</ele>
        <time>2017-01-10T13:58:59Z</time>
      </trkpt>
      <trkpt lat="49.4033" lon="1.1455">
        <ele>153</ele>
        <time>2017-01-10T13:58:59Z</time>
      </trkpt>
      <trkpt lat="49.40334" lon="1.14545">
        <ele>153</ele>
        <time>2017-01-10T13:58:59Z</time>
      </trkpt>
      <trkpt lat="49.40339" lon="1.14544">
        <ele>153</ele>
        <time>2017-01-10T13:59:15Z</time>
      </trkpt>
      <trkpt lat="49.40343" lon="1.14542">
        <ele>153</ele>
        <time>2017-01-10T13:59:15Z</time>
      </trkpt>
      <trkpt lat="49.40348" lon="1.1454">
        <ele>152</ele>
        <time>2017-01-10T13:59:15Z</time>
      </trkpt>
      <trkpt lat="49.40351" lon="1.14536">
        <ele>152</ele>
        <time>2017-01-10T13:59:15Z</time>
      </trkpt>
      <trkpt lat="49.40356" lon="1.1453">
        <ele>152</ele>
        <time>2017-01-10T13:59:31Z</time>
      </trkpt>
      <trkpt lat="49.40362" lon="1.14525">
        <ele>152</ele>
        <time>2017-01-10T13:59:31Z</time>
      </trkpt>
      <trkpt lat="49.40367" lon="1.14522">
        <ele>152</ele>
        <time>2017-01-10T13:59:31Z</time>
      </trkpt>
      <trkpt lat="49.40371" lon="1.14519">
        <ele>152</ele>
        <time>2017-01-10T13:59:31Z</time>
      </trkpt>
      <trkpt lat="49.40376" lon="1.14515">
        <ele>153</ele>
        <time>2017-01-10T13:59:47Z</time>
      </trkpt>
      <trkpt lat="49.4038" lon="1.14512">
        <ele>153</ele>
        <time>2017-01-10T13:59:47Z</time>
      </trkpt>
      <trkpt lat="49.40384" lon="1.14509">
        <ele>153</ele>
        <time>2017-01-10T13:59:47Z</time>
      </trkpt>
      <trkpt lat="49.40389" lon="1.14506">
        <ele>153</ele>
        <time>2017-01-10T13:59:47Z</time>
      </trkpt>
      <trkpt lat="49.40394" lon="1.14502">
        <ele>153</ele>
        <time>2017-01-10T14:00:03Z</time>
      </trkpt>
      <trkpt lat="49.40398" lon="1.14496">
        <ele>153</ele>
        <time>2017-01-10T14:00:03Z</time>
      </trkpt>
      <trkpt lat="49.40403" lon="1.1449">
        <ele>153</ele>
        <time>2017-01-10T14:00:03Z</time>
      </trkpt>
      <trkpt lat="49.40408" lon="1.14489">
        <ele>153</ele>
        <time>2017-01-10T14:00:03Z</time>
      </trkpt>
      <trkpt lat="49.40413" lon="1.14486">
        <ele>153</ele>
        <time>2017-01-10T14:00:19Z</time>
      </trkpt>
      <trkpt lat="49.40418" lon="1.14483">
        <ele>153</ele>
        <time>2017-01-10T14:00:19Z</time>
      </trkpt>
      <trkpt lat="49.40422" lon="1.1448">
        <ele>153</ele>
        <time>2017-01-10T14:00:19Z</time>
      </trkpt>
      <trkpt lat="49.40426" lon="1.14474">
        <ele>153</ele>
        <time>2017-01-10T14:00:19Z</time>
      </trkpt>
      <trkpt lat="49.4043" lon="1.14469">
        <ele>153</ele>
        <time>2017-01-10T14:00:35Z</time>
      </trkpt>
      <trkpt lat="49.40433" lon="1.14465">
        <ele>153</ele>
        <time>2017-01-10T14:00:35Z</time>
      </trkpt>
      <trkpt lat="49.40437" lon="1.14461">
        <ele>153</ele>
        <time>2017-01-10T14:00:35Z</time>
      </trkpt>
      <trkpt lat="49.40441" lon="1.14458">
        <ele>149</ele>
        <time>2017-01-10T14:00:35Z</time>
      </trkpt>
      <trkpt lat="49.40446" lon="1.14456">
        <ele>149</ele>
        <time>2017-01-10T14:00:51Z</time>
      </trkpt>
      <trkpt lat="49.40452" lon="1.14454">
        <ele>149</ele>
        <time>2017-01-10T14:00:51Z</time>
      </trkpt>
      <trkpt lat="49.40457" lon="1.14451">
        <ele>149</ele>
        <time>2017-01-10T14:00:51Z</time>
      </trkpt>
      <trkpt lat="49.40461" lon="1.1445">
        <ele>149</ele>
        <time>2017-01-10T14:00:51Z</time>
      </trkpt>
      <trkpt lat="49.40466" lon="1.14448">
        <ele>149</ele>
        <time>2017-01-10T14:01:07Z</time>
      </trkpt>
      <trkpt lat="49.40471" lon="1.14444">
        <ele>149</ele>
        <time>2017-01-10T14:01:07Z</time>
      </trkpt>
      <trkpt lat="49.40476" lon="1.14443">
        <ele>149</ele>
        <time>2017-01-10T14:01:07Z</time>
      </trkpt>
      <trkpt lat="49.40481" lon="1.1444">
        <ele>149</ele>
        <time>2017-01-10T14:01:07Z</time>
      </trkpt>
      <trkpt lat="49.40487" lon="1.14437">
        <ele>149</ele>
        <time>2017-01-10T14:01:23Z</time>
      </trkpt>
      <trkpt lat="49.40492" lon="1.14432">
        <ele>149</ele>
        <time>2017-01-10T14:01:23Z</time>
      </trkpt>
      <trkpt lat="49.40497" lon="1.1443">
        <ele>149</ele>
        <time>2017-01-10T14:01:23Z</time>
      </trkpt>
      <trkpt lat="49.40502" lon="1.14429">
        <ele>149</ele>
        <time>2017-01-10T14:01:23Z</time>
      </trkpt>
      <trkpt lat="49.40507" lon="1.14429">
        <ele>149</ele>
        <time>2017-01-10T14:01:39Z</time>
      </trkpt>
      <trkpt lat="49.40512" lon="1.14426">
        <ele>149</ele>
        <time>2017-01-10T14:01:39Z</time>
      </trkpt>
      <trkpt lat="49.40512" lon="1.14419">
        <ele>149</ele>
        <time>2017-01-10T14:01:39Z</time>
      </trkpt>
      <trkpt lat="49.40514" lon="1.14412">
        <ele>149</ele>
        <time>2017-01-10T14:01:39Z</time>
      </trkpt>
      <trkpt lat="49.40514" lon="1.14405">
        <ele>149</ele>
        <time>2017-01-10T14:03:51Z</time>
      </trkpt>
      <trkpt lat="49.4052" lon="1.144">
        <ele>149</ele>
        <time>2017-01-10T14:03:51Z</time>
      </trkpt>
      <trkpt lat="49.4052" lon="1.14396">
        <ele>149</ele>
        <time>2017-01-10T14:03:51Z</time>
      </trkpt>
      <trkpt lat="49.40526" lon="1.14394">
        <ele>149</ele>
        <time>2017-01-10T14:03:51Z</time>
      </trkpt>
      <trkpt lat="49.40531" lon="1.1439">
        <ele>149</ele>
        <time>2017-01-10T14:03:51Z</time>
      </trkpt>
      <trkpt lat="49.40535" lon="1.14386">
        <ele>149</ele>
        <time>2017-01-10T14:04:07Z</time>
      </trkpt>
      <trkpt lat="49.40539" lon="1.14381">
        <ele>149</ele>
        <time>2017-01-10T14:04:07Z</time>
      </trkpt>
      <trkpt lat="49.40545" lon="1.14377">
        <ele>152</ele>
        <time>2017-01-10T14:04:07Z</time>
      </trkpt>
      <trkpt lat="49.40546" lon="1.14375">
        <ele>151</ele>
        <time>2017-01-10T14:04:07Z</time>
      </trkpt>
      <trkpt lat="49.40549" lon="1.1437">
        <ele>151</ele>
        <time>2017-01-10T14:04:23Z</time>
      </trkpt>
      <trkpt lat="49.40552" lon="1.14365">
        <ele>151</ele>
        <time>2017-01-10T14:04:23Z</time>
      </trkpt>
      <trkpt lat="49.40555" lon="1.1436">
        <ele>151</ele>
        <time>2017-01-10T14:04:23Z</time>
      </trkpt>
      <trkpt lat="49.40559" lon="1.14358">
        <ele>151</ele>
        <time>2017-01-10T14:04:23Z</time>
      </trkpt>
      <trkpt lat="49.40563" lon="1.14355">
        <ele>151</ele>
        <time>2017-01-10T14:04:39Z</time>
      </trkpt>
      <trkpt lat="49.40568" lon="1.14351">
        <ele>151</ele>
        <time>2017-01-10T14:04:39Z</time>
      </trkpt>
      <trkpt lat="49.40572" lon="1.14346">
        <ele>151</ele>
        <time>2017-01-10T14:04:39Z</time>
      </trkpt>
      <trkpt lat="49.40576" lon="1.14341">
        <ele>151</ele>
        <time>2017-01-10T14:04:39Z</time>
      </trkpt>
      <trkpt lat="49.4058" lon="1.14338">
        <ele>151</ele>
        <time>2017-01-10T14:04:55Z</time>
      </trkpt>
      <trkpt lat="49.40584" lon="1.14332">
        <ele>151</ele>
        <time>2017-01-10T14:04:55Z</time>
      </trkpt>
      <trkpt lat="49.40588" lon="1.14328">
        <ele>151</ele>
        <time>2017-01-10T14:04:55Z</time>
      </trkpt>
      <trkpt lat="49.40592" lon="1.14322">
        <ele>151</ele>
        <time>2017-01-10T14:04:55Z</time>
      </trkpt>
      <trkpt lat="49.40596" lon="1.14315">
        <ele>151</ele>
        <time>2017-01-10T14:05:11Z</time>
      </trkpt>
      <trkpt lat="49.40599" lon="1.14308">
        <ele>151</ele>
        <time>2017-01-10T14:05:11Z</time>
      </trkpt>
      <trkpt lat="49.40602" lon="1.14302">
        <ele>151</ele>
        <time>2017-01-10T14:05:11Z</time>
      </trkpt>
      <trkpt lat="49.40606" lon="1.14297">
        <ele>151</ele>
        <time>2017-01-10T14:05:11Z</time>
      </trkpt>
      <trkpt lat="49.4061" lon="1.14294">
        <ele>151</ele>
        <time>2017-01-10T14:05:27Z</time>
      </trkpt>
      <trkpt lat="49.40612" lon="1.14289">
        <ele>152</ele>
        <time>2017-01-10T14:05:27Z</time>
      </trkpt>
      <trkpt lat="49.40615" lon="1.14284">
        <ele>152</ele>
        <time>2017-01-10T14:05:27Z</time>
      </trkpt>
      <trkpt lat="49.40618" lon="1.14278">
        <ele>152</ele>
        <time>2017-01-10T14:05:27Z</time>
      </trkpt>
      <trkpt lat="49.40622" lon="1.14271">
        <ele>152</ele>
        <time>2017-01-10T14:05:43Z</time>
      </trkpt>
      <trkpt lat="49.40627" lon="1.14266">
        <ele>153</ele>
        <time>2017-01-10T14:05:43Z</time>
      </trkpt>
      <trkpt lat="49.4063" lon="1.1426">
        <ele>153</ele>
        <time>2017-01-10T14:05:43Z</time>
      </trkpt>
      <trkpt lat="49.40634" lon="1.14253">
        <ele>153</ele>
        <time>2017-01-10T14:05:43Z</time>
      </trkpt>
      <trkpt lat="49.40638" lon="1.14249">
        <ele>153</ele>
        <time>2017-01-10T14:05:59Z</time>
      </trkpt>
      <trkpt lat="49.40642" lon="1.14244">
        <ele>153</ele>
        <time>2017-01-10T14:05:59Z</time>
      </trkpt>
      <trkpt lat="49.40646" lon="1.14238">
        <ele>153</ele>
        <time>2017-01-10T14:05:59Z</time>
      </trkpt>
      <trkpt lat="49.40649" lon="1.14232">
        <ele>153</ele>
        <time>2017-01-10T14:05:59Z</time>
      </trkpt>
      <trkpt lat="49.40652" lon="1.14228">
        <ele>153</ele>
        <time>2017-01-10T14:06:15Z</time>
      </trkpt>
      <trkpt lat="49.40654" lon="1.14222">
        <ele>153</ele>
        <time>2017-01-10T14:06:15Z</time>
      </trkpt>
      <trkpt lat="49.40655" lon="1.14214">
        <ele>153</ele>
        <time>2017-01-10T14:06:15Z</time>
      </trkpt>
      <trkpt lat="49.40654" lon="1.14205">
        <ele>153</ele>
        <time>2017-01-10T14:06:15Z</time>
      </trkpt>
      <trkpt lat="49.40656" lon="1.14196">
        <ele>153</ele>
        <time>2017-01-10T14:06:31Z</time>
      </trkpt>
      <trkpt lat="49.40658" lon="1.14188">
        <ele>153</ele>
        <time>2017-01-10T14:06:31Z</time>
      </trkpt>
      <trkpt lat="49.40657" lon="1.1418">
        <ele>153</ele>
        <time>2017-01-10T14:06:31Z</time>
      </trkpt>
      <trkpt lat="49.40656" lon="1.14174">
        <ele>153</ele>
        <time>2017-01-10T14:06:31Z</time>
      </trkpt>
      <trkpt lat="49.40654" lon="1.14167">
        <ele>153</ele>
        <time>2017-01-10T14:06:47Z</time>
      </trkpt>
      <trkpt lat="49.40652" lon="1.1416">
        <ele>153</ele>
        <time>2017-01-10T14:06:47Z</time>
      </trkpt>
      <trkpt lat="49.4065" lon="1.14154">
        <ele>153</ele>
        <time>2017-01-10T14:06:47Z</time>
      </trkpt>
      <trkpt lat="49.40648" lon="1.14147">
        <ele>153</ele>
        <time>2017-01-10T14:06:47Z</time>
      </trkpt>
      <trkpt lat="49.40646" lon="1.1414">
        <ele>153</ele>
        <time>2017-01-10T14:07:03Z</time>
      </trkpt>
      <trkpt lat="49.40644" lon="1.14133">
        <ele>153</ele>
        <time>2017-01-10T14:07:03Z</time>
      </trkpt>
      <trkpt lat="49.40642" lon="1.14126">
        <ele>153</ele>
        <time>2017-01-10T14:07:03Z</time>
      </trkpt>
      <trkpt lat="49.40641" lon="1.14119">
        <ele>153</ele>
        <time>2017-01-10T14:07:03Z</time>
      </trkpt>
      <trkpt lat="49.40639" lon="1.14112">
        <ele>153</ele>
        <time>2017-01-10T14:07:19Z</time>
      </trkpt>
      <trkpt lat="49.40637" lon="1.14105">
        <ele>153</ele>
        <time>2017-01-10T14:07:19Z</time>
      </trkpt>
      <trkpt lat="49.40632" lon="1.14099">
        <ele>153</ele>
        <time>2017-01-10T14:07:19Z</time>
      </trkpt>
      <trkpt lat="49.40629" lon="1.14092">
        <ele>153</ele>
        <time>2017-01-10T14:07:19Z</time>
      </trkpt>
      <trkpt lat="49.40629" lon="1.14084">
        <ele>153</ele>
        <time>2017-01-10T14:07:35Z</time>
      </trkpt>
      <trkpt lat="49.4063" lon="1.14077">
        <ele>153</ele>
        <time>2017-01-10T14:07:35Z</time>
      </trkpt>
      <trkpt lat="49.4063" lon="1.14074">
        <ele>153</ele>
        <time>2017-01-10T14:07:35Z</time>
      </trkpt>
      <trkpt lat="49.40633" lon="1.14072">
        <ele>153</ele>
        <time>2017-01-10T14:07:35Z</time>
      </trkpt>
      <trkpt lat="49.40637" lon="1.14067">
        <ele>153</ele>
        <time>2017-01-10T14:07:51Z</time>
      </trkpt>
      <trkpt lat="49.4064" lon="1.14063">
        <ele>153</ele>
        <time>2017-01-10T14:07:51Z</time>
      </trkpt>
      <trkpt lat="49.40645" lon="1.14056">
        <ele>153</ele>
        <time>2017-01-10T14:07:51Z</time>
      </trkpt>
      <trkpt lat="49.40648" lon="1.1405">
        <ele>153</ele>
        <time>2017-01-10T14:07:51Z</time>
      </trkpt>
      <trkpt lat="49.40651" lon="1.14045">
        <ele>153</ele>
        <time>2017-01-10T14:08:07Z</time>
      </trkpt>
      <trkpt lat="49.40654" lon="1.14039">
        <ele>152</ele>
        <time>2017-01-10T14:08:07Z</time>
      </trkpt>
      <trkpt lat="49.40657" lon="1.14033">
        <ele>152</ele>
        <time>2017-01-10T14:08:07Z</time>
      </trkpt>
      <trkpt lat="49.40661" lon="1.14026">
        <ele>152</ele>
        <time>2017-01-10T14:08:07Z</time>
      </trkpt>
      <trkpt lat="49.40663" lon="1.14024">
        <ele>152</ele>
        <time>2017-01-10T14:08:23Z</time>
      </trkpt>
      <trkpt lat="49.40667" lon="1.14019">
        <ele>152</ele>
        <time>2017-01-10T14:08:23Z</time>
      </trkpt>
      <trkpt lat="49.4067" lon="1.14013">
        <ele>152</ele>
        <time>2017-01-10T14:08:23Z</time>
      </trkpt>
      <trkpt lat="49.40672" lon="1.14008">
        <ele>152</ele>
        <time>2017-01-10T14:08:23Z</time>
      </trkpt>
      <trkpt lat="49.40676" lon="1.14002">
        <ele>152</ele>
        <time>2017-01-10T14:08:39Z</time>
      </trkpt>
      <trkpt lat="49.40679" lon="1.13997">
        <ele>152</ele>
        <time>2017-01-10T14:08:39Z</time>
      </trkpt>
      <trkpt lat="49.40681" lon="1.1399">
        <ele>152</ele>
        <time>2017-01-10T14:08:39Z</time>
      </trkpt>
      <trkpt lat="49.40683" lon="1.13991">
        <ele>152</ele>
        <time>2017-01-10T14:08:39Z</time>
      </trkpt>
      <trkpt lat="49.40689" lon="1.13991">
        <ele>152</ele>
        <time>2017-01-10T14:08:55Z</time>
      </trkpt>
      <trkpt lat="49.40693" lon="1.13988">
        <ele>152</ele>
        <time>2017-01-10T14:08:55Z</time>
      </trkpt>
      <trkpt lat="49.40698" lon="1.13988">
        <ele>152</ele>
        <time>2017-01-10T14:08:55Z</time>
      </trkpt>
      <trkpt lat="49.40701" lon="1.13976">
        <ele>152</ele>
        <time>2017-01-10T14:08:55Z</time>
      </trkpt>
      <trkpt lat="49.40702" lon="1.13966">
        <ele>152</ele>
        <time>2017-01-10T14:09:11Z</time>
      </trkpt>
      <trkpt lat="49.40706" lon="1.13958">
        <ele>150</ele>
        <time>2017-01-10T14:09:11Z</time>
      </trkpt>
      <trkpt lat="49.4071" lon="1.13952">
        <ele>151</ele>
        <time>2017-01-10T14:09:11Z</time>
      </trkpt>
      <trkpt lat="49.40713" lon="1.13945">
        <ele>151</ele>
        <time>2017-01-10T14:09:11Z</time>
      </trkpt>
      <trkpt lat="49.40715" lon="1.13939">
        <ele>151</ele>
        <time>2017-01-10T14:09:27Z</time>
      </trkpt>
      <trkpt lat="49.40717" lon="1.13932">
        <ele>151</ele>
        <time>2017-01-10T14:09:27Z</time>
      </trkpt>
      <trkpt lat="49.40718" lon="1.13923">
        <ele>151</ele>
        <time>2017-01-10T14:09:27Z</time>
      </trkpt>
      <trkpt lat="49.4072" lon="1.13917">
        <ele>151</ele>
        <time>2017-01-10T14:09:27Z</time>
      </trkpt>
      <trkpt lat="49.40724" lon="1.13912">
        <ele>151</ele>
        <time>2017-01-10T14:09:43Z</time>
      </trkpt>
      <trkpt lat="49.40728" lon="1.13906">
        <ele>151</ele>
        <time>2017-01-10T14:09:43Z</time>
      </trkpt>
      <trkpt lat="49.40727" lon="1.13896">
        <ele>151</ele>
        <time>2017-01-10T14:09:43Z</time>
      </trkpt>
      <trkpt lat="49.40725" lon="1.13889">
        <ele>151</ele>
        <time>2017-01-10T14:09:43Z</time>
      </trkpt>
      <trkpt lat="49.40721" lon="1.13884">
        <ele>151</ele>
        <time>2017-01-10T14:09:59Z</time>
      </trkpt>
      <trkpt lat="49.40715" lon="1.13881">
        <ele>151</ele>
        <time>2017-01-10T14:09:59Z</time>
      </trkpt>
      <trkpt lat="49.4071" lon="1.13878">
        <ele>151</ele>
        <time>2017-01-10T14:09:59Z</time>
      </trkpt>
      <trkpt lat="49.40707" lon="1.1387">
        <ele>148</ele>
        <time>2017-01-10T14:09:59Z</time>
      </trkpt>
      <trkpt lat="49.40704" lon="1.13863">
        <ele>148</ele>
        <time>2017-01-10T14:10:15Z</time>
      </trkpt>
      <trkpt lat="49.40705" lon="1.13856">
        <ele>148</ele>
        <time>2017-01-10T14:10:15Z</time>
      </trkpt>
      <trkpt lat="49.40706" lon="1.13848">
        <ele>148</ele>
        <time>2017-01-10T14:10:15Z</time>
      </trkpt>
      <trkpt lat="49.40708" lon="1.1384">
        <ele>148</ele>
        <time>2017-01-10T14:10:15Z</time>
      </trkpt>
      <trkpt lat="49.40712" lon="1.13834">
        <ele>150</ele>
        <time>2017-01-10T14:10:31Z</time>
      </trkpt>
      <trkpt lat="49.40715" lon="1.13828">
        <ele>150</ele>
        <time>2017-01-10T14:10:31Z</time>
      </trkpt>
      <trkpt lat="49.40719" lon="1.13825">
        <ele>150</ele>
        <time>2017-01-10T14:10:31Z</time>
      </trkpt>
      <trkpt lat="49.40722" lon="1.1382">
        <ele>150</ele>
        <time>2017-01-10T14:10:31Z</time>
      </trkpt>
      <trkpt lat="49.40726" lon="1.13816">
        <ele>150</ele>
        <time>2017-01-10T14:10:47Z</time>
      </trkpt>
      <trkpt lat="49.40732" lon="1.13813">
        <ele>150</ele>
        <time>2017-01-10T14:10:47Z</time>
      </trkpt>
      <trkpt lat="49.40736" lon="1.13809">
        <ele>150</ele>
        <time>2017-01-10T14:10:47Z</time>
      </trkpt>
      <trkpt lat="49.40741" lon="1.13802">
        <ele>150</ele>
        <time>2017-01-10T14:10:47Z</time>
      </trkpt>
      <trkpt lat="49.40745" lon="1.13799">
        <ele>150</ele>
        <time>2017-01-10T14:11:03Z</time>
      </trkpt>
      <trkpt lat="49.40749" lon="1.13794">
        <ele>150</ele>
        <time>2017-01-10T14:11:03Z</time>
      </trkpt>
      <trkpt lat="49.40753" lon="1.13788">
        <ele>150</ele>
        <time>2017-01-10T14:11:03Z</time>
      </trkpt>
      <trkpt lat="49.40756" lon="1.13783">
        <ele>150</ele>
        <time>2017-01-10T14:11:03Z</time>
      </trkpt>
      <trkpt lat="49.4076" lon="1.13778">
        <ele>150</ele>
        <time>2017-01-10T14:11:19Z</time>
      </trkpt>
      <trkpt lat="49.40763" lon="1.13775">
        <ele>150</ele>
        <time>2017-01-10T14:11:19Z</time>
      </trkpt>
      <trkpt lat="49.40767" lon="1.13771">
        <ele>150</ele>
        <time>2017-01-10T14:11:19Z</time>
      </trkpt>
      <trkpt lat="49.40769" lon="1.13767">
        <ele>150</ele>
        <time>2017-01-10T14:11:19Z</time>
      </trkpt>
      <trkpt lat="49.40772" lon="1.1376">
        <ele>150</ele>
        <time>2017-01-10T14:11:35Z</time>
      </trkpt>
      <trkpt lat="49.40775" lon="1.13755">
        <ele>150</ele>
        <time>2017-01-10T14:11:35Z</time>
      </trkpt>
      <trkpt lat="49.40779" lon="1.13749">
        <ele>150</ele>
        <time>2017-01-10T14:11:35Z</time>
      </trkpt>
      <trkpt lat="49.40783" lon="1.13744">
        <ele>150</ele>
        <time>2017-01-10T14:11:35Z</time>
      </trkpt>
      <trkpt lat="49.40787" lon="1.1374">
        <ele>150</ele>
        <time>2017-01-10T14:11:51Z</time>
      </trkpt>
      <trkpt lat="49.40791" lon="1.13736">
        <ele>150</ele>
        <time>2017-01-10T14:11:51Z</time>
      </trkpt>
      <trkpt lat="49.40795" lon="1.1373">
        <ele>153</ele>
        <time>2017-01-10T14:11:51Z</time>
      </trkpt>
      <trkpt lat="49.40799" lon="1.13723">
        <ele>153</ele>
        <time>2017-01-10T14:11:51Z</time>
      </trkpt>
      <trkpt lat="49.40802" lon="1.13716">
        <ele>153</ele>
        <time>2017-01-10T14:12:07Z</time>
      </trkpt>
      <trkpt lat="49.40805" lon="1.1371">
        <ele>153</ele>
        <time>2017-01-10T14:12:07Z</time>
      </trkpt>
      <trkpt lat="49.40808" lon="1.13706">
        <ele>150</ele>
        <time>2017-01-10T14:12:07Z</time>
      </trkpt>
      <trkpt lat="49.40812" lon="1.13703">
        <ele>150</ele>
        <time>2017-01-10T14:12:07Z</time>
      </trkpt>
      <trkpt lat="49.40815" lon="1.13701">
        <ele>150</ele>
        <time>2017-01-10T14:12:23Z</time>
      </trkpt>
      <trkpt lat="49.40818" lon="1.13697">
        <ele>150</ele>
        <time>2017-01-10T14:12:23Z</time>
      </trkpt>
      <trkpt lat="49.40823" lon="1.13692">
        <ele>150</ele>
        <time>2017-01-10T14:12:23Z</time>
      </trkpt>
      <trkpt lat="49.40827" lon="1.13686">
        <ele>150</ele>
        <time>2017-01-10T14:12:23Z</time>
      </trkpt>
      <trkpt lat="49.40831" lon="1.1368">
        <ele>150</ele>
        <time>2017-01-10T14:12:39Z</time>
      </trkpt>
      <trkpt lat="49.40835" lon="1.13677">
        <ele>150</ele>
        <time>2017-01-10T14:12:39Z</time>
      </trkpt>
      <trkpt lat="49.4084" lon="1.13676">
        <ele>150</ele>
        <time>2017-01-10T14:12:39Z</time>
      </trkpt>
      <trkpt lat="49.40844" lon="1.13674">
        <ele>150</ele>
        <time>2017-01-10T14:12:39Z</time>
      </trkpt>
      <trkpt lat="49.40848" lon="1.13668">
        <ele>150</ele>
        <time>2017-01-10T14:12:55Z</time>
      </trkpt>
      <trkpt lat="49.40852" lon="1.13663">
        <ele>150</ele>
        <time>2017-01-10T14:12:55Z</time>
      </trkpt>
      <trkpt lat="49.40857" lon="1.13661">
        <ele>150</ele>
        <time>2017-01-10T14:12:55Z</time>
      </trkpt>
      <trkpt lat="49.40861" lon="1.13659">
        <ele>150</ele>
        <time>2017-01-10T14:12:55Z</time>
      </trkpt>
      <trkpt lat="49.40864" lon="1.13654">
        <ele>150</ele>
        <time>2017-01-10T14:13:11Z</time>
      </trkpt>
      <trkpt lat="49.40867" lon="1.13648">
        <ele>150</ele>
        <time>2017-01-10T14:13:11Z</time>
      </trkpt>
      <trkpt lat="49.40872" lon="1.13644">
        <ele>150</ele>
        <time>2017-01-10T14:13:11Z</time>
      </trkpt>
      <trkpt lat="49.40875" lon="1.13641">
        <ele>154</ele>
        <time>2017-01-10T14:13:11Z</time>
      </trkpt>
      <trkpt lat="49.40879" lon="1.13639">
        <ele>154</ele>
        <time>2017-01-10T14:13:27Z</time>
      </trkpt>
      <trkpt lat="49.40883" lon="1.13636">
        <ele>154</ele>
        <time>2017-01-10T14:13:27Z</time>
      </trkpt>
      <trkpt lat="49.40889" lon="1.13635">
        <ele>154</ele>
        <time>2017-01-10T14:13:27Z</time>
      </trkpt>
      <trkpt lat="49.40893" lon="1.13633">
        <ele>154</ele>
        <time>2017-01-10T14:13:27Z</time>
      </trkpt>
      <trkpt lat="49.40898" lon="1.1363">
        <ele>154</ele>
        <time>2017-01-10T14:13:43Z</time>
      </trkpt>
      <trkpt lat="49.40902" lon="1.13629">
        <ele>154</ele>
        <time>2017-01-10T14:13:43Z</time>
      </trkpt>
      <trkpt lat="49.40908" lon="1.13625">
        <ele>154</ele>
        <time>2017-01-10T14:13:43Z</time>
      </trkpt>
      <trkpt lat="49.40912" lon="1.13619">
        <ele>153</ele>
        <time>2017-01-10T14:13:43Z</time>
      </trkpt>
      <trkpt lat="49.40915" lon="1.13615">
        <ele>153</ele>
        <time>2017-01-10T14:13:59Z</time>
      </trkpt>
      <trkpt lat="49.4092" lon="1.13613">
        <ele>153</ele>
        <time>2017-01-10T14:13:59Z</time>
      </trkpt>
      <trkpt lat="49.40925" lon="1.13612">
        <ele>153</ele>
        <time>2017-01-10T14:13:59Z</time>
      </trkpt>
      <trkpt lat="49.40929" lon="1.13612">
        <ele>153</ele>
        <time>2017-01-10T14:13:59Z</time>
      </trkpt>
      <trkpt lat="49.40933" lon="1.13612">
        <ele>153</ele>
        <time>2017-01-10T14:14:15Z</time>
      </trkpt>
      <trkpt lat="49.40937" lon="1.13611">
        <ele>153</ele>
        <time>2017-01-10T14:14:15Z</time>
      </trkpt>
      <trkpt lat="49.40943" lon="1.13608">
        <ele>153</ele>
        <time>2017-01-10T14:14:15Z</time>
      </trkpt>
      <trkpt lat="49.40948" lon="1.13605">
        <ele>153</ele>
        <time>2017-01-10T14:14:15Z</time>
      </trkpt>
      <trkpt lat="49.40953" lon="1.13599">
        <ele>153</ele>
        <time>2017-01-10T14:14:31Z</time>
      </trkpt>
      <trkpt lat="49.40958" lon="1.13597">
        <ele>153</ele>
        <time>2017-01-10T14:14:31Z</time>
      </trkpt>
      <trkpt lat="49.40963" lon="1.13594">
        <ele>156</ele>
        <time>2017-01-10T14:14:31Z</time>
      </trkpt>
      <trkpt lat="49.40967" lon="1.1359">
        <ele>156</ele>
        <time>2017-01-10T14:14:31Z</time>
      </trkpt>
      <trkpt lat="49.40972" lon="1.13587">
        <ele>156</ele>
        <time>2017-01-10T14:14:47Z</time>
      </trkpt>
      <trkpt lat="49.40977" lon="1.13585">
        <ele>156</ele>
        <time>2017-01-10T14:14:47Z</time>
      </trkpt>
      <trkpt lat="49.40982" lon="1.13583">
        <ele>156</ele>
        <time>2017-01-10T14:14:47Z</time>
      </trkpt>
      <trkpt lat="49.40986" lon="1.13581">
        <ele>156</ele>
        <time>2017-01-10T14:14:47Z</time>
      </trkpt>
      <trkpt lat="49.40991" lon="1.13575">
        <ele>156</ele>
        <time>2017-01-10T14:15:03Z</time>
      </trkpt>
      <trkpt lat="49.40996" lon="1.1357">
        <ele>156</ele>
        <time>2017-01-10T14:15:03Z</time>
      </trkpt>
      <trkpt lat="49.40999" lon="1.13567">
        <ele>156</ele>
        <time>2017-01-10T14:15:03Z</time>
      </trkpt>
      <trkpt lat="49.41003" lon="1.13563">
        <ele>156</ele>
        <time>2017-01-10T14:15:03Z</time>
      </trkpt>
      <trkpt lat="49.41007" lon="1.13559">
        <ele>156</ele>
        <time>2017-01-10T14:15:19Z</time>
      </trkpt>
      <trkpt lat="49.41011" lon="1.13555">
        <ele>156</ele>
        <time>2017-01-10T14:15:19Z</time>
      </trkpt>
      <trkpt lat="49.41015" lon="1.13551">
        <ele>156</ele>
        <time>2017-01-10T14:15:19Z</time>
      </trkpt>
      <trkpt lat="49.41019" lon="1.13547">
        <ele>156</ele>
        <time>2017-01-10T14:15:19Z</time>
      </trkpt>
      <trkpt lat="49.4102" lon="1.13541">
        <ele>157</ele>
        <time>2017-01-10T14:15:35Z</time>
      </trkpt>
      <trkpt lat="49.41025" lon="1.13534">
        <ele>157</ele>
        <time>2017-01-10T14:15:35Z</time>
      </trkpt>
      <trkpt lat="49.41028" lon="1.13528">
        <ele>157</ele>
        <time>2017-01-10T14:15:35Z</time>
      </trkpt>
      <trkpt lat="49.41033" lon="1.13524">
        <ele>157</ele>
        <time>2017-01-10T14:15:35Z</time>
      </trkpt>
      <trkpt lat="49.41037" lon="1.13519">
        <ele>157</ele>
        <time>2017-01-10T14:15:51Z</time>
      </trkpt>
      <trkpt lat="49.41041" lon="1.13515">
        <ele>157</ele>
        <time>2017-01-10T14:15:51Z</time>
      </trkpt>
      <trkpt lat="49.41046" lon="1.1351">
        <ele>154</ele>
        <time>2017-01-10T14:15:51Z</time>
      </trkpt>
      <trkpt lat="49.41051" lon="1.13505">
        <ele>154</ele>
        <time>2017-01-10T14:15:51Z</time>
      </trkpt>
      <trkpt lat="49.41056" lon="1.13502">
        <ele>154</ele>
        <time>2017-01-10T14:16:07Z</time>
      </trkpt>
      <trkpt lat="49.4106" lon="1.13499">
        <ele>154</ele>
        <time>2017-01-10T14:16:07Z</time>
      </trkpt>
      <trkpt lat="49.41064" lon="1.13494">
        <ele>154</ele>
        <time>2017-01-10T14:16:07Z</time>
      </trkpt>
      <trkpt lat="49.41066" lon="1.13492">
        <ele>154</ele>
        <time>2017-01-10T14:16:07Z</time>
      </trkpt>
      <trkpt lat="49.41078" lon="1.1348">
        <ele>154</ele>
        <time>2017-01-10T14:16:39Z</time>
      </trkpt>
      <trkpt lat="49.41078" lon="1.1348">
        <ele>154</ele>
        <time>2017-01-10T14:16:39Z</time>
      </trkpt>
      <trkpt lat="49.41082" lon="1.13475">
        <ele>154</ele>
        <time>2017-01-10T14:16:39Z</time>
      </trkpt>
      <trkpt lat="49.41083" lon="1.13474">
        <ele>154</ele>
        <time>2017-01-10T14:16:39Z</time>
      </trkpt>
      <trkpt lat="49.41085" lon="1.13474">
        <ele>154</ele>
        <time>2017-01-10T14:16:39Z</time>
      </trkpt>
      <trkpt lat="49.41086" lon="1.13471">
        <ele>154</ele>
        <time>2017-01-10T14:17:59Z</time>
      </trkpt>
      <trkpt lat="49.41086" lon="1.13471">
        <ele>154</ele>
        <time>2017-01-10T14:17:59Z</time>
      </trkpt>
      <trkpt lat="49.41086" lon="1.13471">
        <ele>154</ele>
        <time>2017-01-10T14:17:59Z</time>
      </trkpt>
      <trkpt lat="49.41088" lon="1.13467">
        <ele>154</ele>
        <time>2017-01-10T14:17:59Z</time>
      </trkpt>
      <trkpt lat="49.41093" lon="1.13446">
        <ele>154</ele>
        <time>2017-01-10T14:17:59Z</time>
      </trkpt>
      <trkpt lat="49.41096" lon="1.1344">
        <ele>154</ele>
        <time>2017-01-10T14:18:15Z</time>
      </trkpt>
      <trkpt lat="49.41098" lon="1.13433">
        <ele>154</ele>
        <time>2017-01-10T14:18:15Z</time>
      </trkpt>
      <trkpt lat="49.411" lon="1.13421">
        <ele>154</ele>
        <time>2017-01-10T14:18:15Z</time>
      </trkpt>
      <trkpt lat="49.41098" lon="1.13408">
        <ele>154</ele>
        <time>2017-01-10T14:18:15Z</time>
      </trkpt>
      <trkpt lat="49.41096" lon="1.13401">
        <ele>154</ele>
        <time>2017-01-10T14:18:31Z</time>
      </trkpt>
      <trkpt lat="49.41092" lon="1.13393">
        <ele>154</ele>
        <time>2017-01-10T14:18:31Z</time>
      </trkpt>
      <trkpt lat="49.41089" lon="1.13386">
        <ele>154</ele>
        <time>2017-01-10T14:18:31Z</time>
      </trkpt>
      <trkpt lat="49.41086" lon="1.13379">
        <ele>154</ele>
        <time>2017-01-10T14:18:31Z</time>
      </trkpt>
      <trkpt lat="49.41084" lon="1.13371">
        <ele>153</ele>
        <time>2017-01-10T14:18:47Z</time>
      </trkpt>
      <trkpt lat="49.41083" lon="1.13362">
        <ele>153</ele>
        <time>2017-01-10T14:18:47Z</time>
      </trkpt>
      <trkpt lat="49.41082" lon="1.13354">
        <ele>153</ele>
        <time>2017-01-10T14:18:47Z</time>
      </trkpt>
      <trkpt lat="49.4108" lon="1.13347">
        <ele>153</ele>
        <time>2017-01-10T14:18:47Z</time>
      </trkpt>
      <trkpt lat="49.41076" lon="1.13343">
        <ele>153</ele>
        <time>2017-01-10T14:19:03Z</time>
      </trkpt>
      <trkpt lat="49.41076" lon="1.13336">
        <ele>153</ele>
        <time>2017-01-10T14:19:03Z</time>
      </trkpt>
      <trkpt lat="49.41078" lon="1.1333">
        <ele>153</ele>
        <time>2017-01-10T14:19:03Z</time>
      </trkpt>
      <trkpt lat="49.41081" lon="1.13325">
        <ele>153</ele>
        <time>2017-01-10T14:19:03Z</time>
      </trkpt>
      <trkpt lat="49.41087" lon="1.13328">
        <ele>153</ele>
        <time>2017-01-10T14:19:27Z</time>
      </trkpt>
      <trkpt lat="49.41089" lon="1.13325">
        <ele>153</ele>
        <time>2017-01-10T14:19:27Z</time>
      </trkpt>
      <trkpt lat="49.41089" lon="1.13324">
        <ele>153</ele>
        <time>2017-01-10T14:19:27Z</time>
      </trkpt>
      <trkpt lat="49.41089" lon="1.13323">
        <ele>153</ele>
        <time>2017-01-10T14:19:27Z</time>
      </trkpt>
      <trkpt lat="49.41093" lon="1.13321">
        <ele>153</ele>
        <time>2017-01-10T14:19:27Z</time>
      </trkpt>
      <trkpt lat="49.41097" lon="1.13316">
        <ele>153</ele>
        <time>2017-01-10T14:19:43Z</time>
      </trkpt>
      <trkpt lat="49.41102" lon="1.1331">
        <ele>153</ele>
        <time>2017-01-10T14:19:43Z</time>
      </trkpt>
      <trkpt lat="49.41107" lon="1.13305">
        <ele>153</ele>
        <time>2017-01-10T14:19:43Z</time>
      </trkpt>
      <trkpt lat="49.41111" lon="1.13305">
        <ele>153</ele>
        <time>2017-01-10T14:19:43Z</time>
      </trkpt>
      <trkpt lat="49.41116" lon="1.13305">
        <ele>153</ele>
        <time>2017-01-10T14:19:59Z</time>
      </trkpt>
      <trkpt lat="49.41121" lon="1.13303">
        <ele>153</ele>
        <time>2017-01-10T14:19:59Z</time>
      </trkpt>
      <trkpt lat="49.41125" lon="1.133">
        <ele>151</ele>
        <time>2017-01-10T14:19:59Z</time>
      </trkpt>
      <trkpt lat="49.4113" lon="1.13298">
        <ele>151</ele>
        <time>2017-01-10T14:19:59Z</time>
      </trkpt>
      <trkpt lat="49.41134" lon="1.13294">
        <ele>151</ele>
        <time>2017-01-10T14:20:15Z</time>
      </trkpt>
      <trkpt lat="49.41138" lon="1.13289">
        <ele>149</ele>
        <time>2017-01-10T14:20:15Z</time>
      </trkpt>
      <trkpt lat="49.41143" lon="1.13285">
        <ele>149</ele>
        <time>2017-01-10T14:20:15Z</time>
      </trkpt>
      <trkpt lat="49.41147" lon="1.13283">
        <ele>149</ele>
        <time>2017-01-10T14:20:15Z</time>
      </trkpt>
      <trkpt lat="49.41151" lon="1.13281">
        <ele>149</ele>
        <time>2017-01-10T14:20:31Z</time>
      </trkpt>
      <trkpt lat="49.41155" lon="1.13278">
        <ele>149</ele>
        <time>2017-01-10T14:20:31Z</time>
      </trkpt>
      <trkpt lat="49.4116" lon="1.13276">
        <ele>149</ele>
        <time>2017-01-10T14:20:31Z</time>
      </trkpt>
      <trkpt lat="49.41166" lon="1.13274">
        <ele>149</ele>
        <time>2017-01-10T14:20:31Z</time>
      </trkpt>
      <trkpt lat="49.41171" lon="1.13272">
        <ele>149</ele>
        <time>2017-01-10T14:20:47Z</time>
      </trkpt>
      <trkpt lat="49.41175" lon="1.13269">
        <ele>149</ele>
        <time>2017-01-10T14:20:47Z</time>
      </trkpt>
      <trkpt lat="49.4118" lon="1.13265">
        <ele>149</ele>
        <time>2017-01-10T14:20:47Z</time>
      </trkpt>
      <trkpt lat="49.41184" lon="1.13262">
        <ele>149</ele>
        <time>2017-01-10T14:20:47Z</time>
      </trkpt>
      <trkpt lat="49.41189" lon="1.1326">
        <ele>149</ele>
        <time>2017-01-10T14:21:03Z</time>
      </trkpt>
      <trkpt lat="49.41194" lon="1.13259">
        <ele>149</ele>
        <time>2017-01-10T14:21:03Z</time>
      </trkpt>
      <trkpt lat="49.41198" lon="1.13259">
        <ele>149</ele>
        <time>2017-01-10T14:21:03Z</time>
      </trkpt>
      <trkpt lat="49.41203" lon="1.1326">
        <ele>149</ele>
        <time>2017-01-10T14:21:03Z</time>
      </trkpt>
      <trkpt lat="49.41208" lon="1.13263">
        <ele>149</ele>
        <time>2017-01-10T14:21:19Z</time>
      </trkpt>
      <trkpt lat="49.41212" lon="1.13266">
        <ele>151</ele>
        <time>2017-01-10T14:21:19Z</time>
      </trkpt>
      <trkpt lat="49.41218" lon="1.13277">
        <ele>151</ele>
        <time>2017-01-10T14:21:19Z</time>
      </trkpt>
      <trkpt lat="49.41221" lon="1.13281">
        <ele>151</ele>
        <time>2017-01-10T14:21:19Z</time>
      </trkpt>
      <trkpt lat="49.41225" lon="1.13282">
        <ele>151</ele>
        <time>2017-01-10T14:21:35Z</time>
      </trkpt>
      <trkpt lat="49.4123" lon="1.13282">
        <ele>151</ele>
        <time>2017-01-10T14:21:35Z</time>
      </trkpt>
      <trkpt lat="49.41235" lon="1.13282">
        <ele>151</ele>
        <time>2017-01-10T14:21:35Z</time>
      </trkpt>
      <trkpt lat="49.4124" lon="1.13281">
        <ele>151</ele>
        <time>2017-01-10T14:21:35Z</time>
      </trkpt>
      <trkpt lat="49.41244" lon="1.13278">
        <ele>151</ele>
        <time>2017-01-10T14:21:51Z</time>
      </trkpt>
      <trkpt lat="49.41249" lon="1.13276">
        <ele>151</ele>
        <time>2017-01-10T14:21:51Z</time>
      </trkpt>
      <trkpt lat="49.41254" lon="1.13275">
        <ele>151</ele>
        <time>2017-01-10T14:21:51Z</time>
      </trkpt>
      <trkpt lat="49.41259" lon="1.13273">
        <ele>151</ele>
        <time>2017-01-10T14:21:51Z</time>
      </trkpt>
      <trkpt lat="49.41263" lon="1.13271">
        <ele>151</ele>
        <time>2017-01-10T14:22:07Z</time>
      </trkpt>
      <trkpt lat="49.41268" lon="1.13269">
        <ele>151</ele>
        <time>2017-01-10T14:22:07Z</time>
      </trkpt>
      <trkpt lat="49.41273" lon="1.13268">
        <ele>151</ele>
        <time>2017-01-10T14:22:07Z</time>
      </trkpt>
      <trkpt lat="49.41277" lon="1.13267">
        <ele>151</ele>
        <time>2017-01-10T14:22:07Z</time>
      </trkpt>
      <trkpt lat="49.41282" lon="1.13264">
        <ele>151</ele>
        <time>2017-01-10T14:22:23Z</time>
      </trkpt>
      <trkpt lat="49.41286" lon="1.1326">
        <ele>151</ele>
        <time>2017-01-10T14:22:23Z</time>
      </trkpt>
      <trkpt lat="49.4129" lon="1.13258">
        <ele>151</ele>
        <time>2017-01-10T14:22:23Z</time>
      </trkpt>
      <trkpt lat="49.41295" lon="1.13256">
        <ele>151</ele>
        <time>2017-01-10T14:22:23Z</time>
      </trkpt>
      <trkpt lat="49.41299" lon="1.13255">
        <ele>151</ele>
        <time>2017-01-10T14:22:39Z</time>
      </trkpt>
      <trkpt lat="49.41301" lon="1.1326">
        <ele>151</ele>
        <time>2017-01-10T14:22:39Z</time>
      </trkpt>
      <trkpt lat="49.41305" lon="1.1326">
        <ele>151</ele>
        <time>2017-01-10T14:22:39Z</time>
      </trkpt>
      <trkpt lat="49.4131" lon="1.13258">
        <ele>151</ele>
        <time>2017-01-10T14:22:39Z</time>
      </trkpt>
      <trkpt lat="49.41315" lon="1.13256">
        <ele>151</ele>
        <time>2017-01-10T14:22:59Z</time>
      </trkpt>
      <trkpt lat="49.41318" lon="1.13253">
        <ele>151</ele>
        <time>2017-01-10T14:22:59Z</time>
      </trkpt>
      <trkpt lat="49.4132" lon="1.1325">
        <ele>151</ele>
        <time>2017-01-10T14:22:59Z</time>
      </trkpt>
      <trkpt lat="49.41322" lon="1.13249">
        <ele>151</ele>
        <time>2017-01-10T14:22:59Z</time>
      </trkpt>
      <trkpt lat="49.41326" lon="1.13245">
        <ele>151</ele>
        <time>2017-01-10T14:22:59Z</time>
      </trkpt>
      <trkpt lat="49.4133" lon="1.13243">
        <ele>151</ele>
        <time>2017-01-10T14:23:15Z</time>
      </trkpt>
      <trkpt lat="49.41336" lon="1.13241">
        <ele>151</ele>
        <time>2017-01-10T14:23:15Z</time>
      </trkpt>
      <trkpt lat="49.4134" lon="1.13239">
        <ele>151</ele>
        <time>2017-01-10T14:23:15Z</time>
      </trkpt>
      <trkpt lat="49.41345" lon="1.13237">
        <ele>151</ele>
        <time>2017-01-10T14:23:15Z</time>
      </trkpt>
      <trkpt lat="49.41345" lon="1.13231">
        <ele>151</ele>
        <time>2017-01-10T14:23:31Z</time>
      </trkpt>
      <trkpt lat="49.41344" lon="1.13226">
        <ele>151</ele>
        <time>2017-01-10T14:23:31Z</time>
      </trkpt>
      <trkpt lat="49.41346" lon="1.13221">
        <ele>151</ele>
        <time>2017-01-10T14:23:31Z</time>
      </trkpt>
      <trkpt lat="49.41351" lon="1.13218">
        <ele>151</ele>
        <time>2017-01-10T14:23:31Z</time>
      </trkpt>
      <trkpt lat="49.41356" lon="1.13216">
        <ele>151</ele>
        <time>2017-01-10T14:23:47Z</time>
      </trkpt>
      <trkpt lat="49.41361" lon="1.13214">
        <ele>151</ele>
        <time>2017-01-10T14:23:47Z</time>
      </trkpt>
      <trkpt lat="49.41364" lon="1.13212">
        <ele>151</ele>
        <time>2017-01-10T14:23:47Z</time>
      </trkpt>
      <trkpt lat="49.41369" lon="1.1321">
        <ele>151</ele>
        <time>2017-01-10T14:23:47Z</time>
      </trkpt>
      <trkpt lat="49.41374" lon="1.13208">
        <ele>150</ele>
        <time>2017-01-10T14:24:03Z</time>
      </trkpt>
      <trkpt lat="49.41377" lon="1.13205">
        <ele>149</ele>
        <time>2017-01-10T14:24:03Z</time>
      </trkpt>
      <trkpt lat="49.41381" lon="1.13203">
        <ele>149</ele>
        <time>2017-01-10T14:24:03Z</time>
      </trkpt>
      <trkpt lat="49.41385" lon="1.13201">
        <ele>149</ele>
        <time>2017-01-10T14:24:03Z</time>
      </trkpt>
      <trkpt lat="49.41389" lon="1.13207">
        <ele>149</ele>
        <time>2017-01-10T14:24:19Z</time>
      </trkpt>
      <trkpt lat="49.41393" lon="1.13214">
        <ele>149</ele>
        <time>2017-01-10T14:24:19Z</time>
      </trkpt>
      <trkpt lat="49.41396" lon="1.13221">
        <ele>149</ele>
        <time>2017-01-10T14:24:19Z</time>
      </trkpt>
      <trkpt lat="49.41399" lon="1.13226">
        <ele>149</ele>
        <time>2017-01-10T14:24:19Z</time>
      </trkpt>
      <trkpt lat="49.41402" lon="1.13232">
        <ele>149</ele>
        <time>2017-01-10T14:24:35Z</time>
      </trkpt>
      <trkpt lat="49.41405" lon="1.13239">
        <ele>149</ele>
        <time>2017-01-10T14:24:35Z</time>
      </trkpt>
      <trkpt lat="49.41407" lon="1.13246">
        <ele>149</ele>
        <time>2017-01-10T14:24:35Z</time>
      </trkpt>
      <trkpt lat="49.41409" lon="1.13253">
        <ele>149</ele>
        <time>2017-01-10T14:24:35Z</time>
      </trkpt>
      <trkpt lat="49.41413" lon="1.13258">
        <ele>149</ele>
        <time>2017-01-10T14:24:51Z</time>
      </trkpt>
      <trkpt lat="49.41415" lon="1.13264">
        <ele>149</ele>
        <time>2017-01-10T14:24:51Z</time>
      </trkpt>
      <trkpt lat="49.41418" lon="1.13263">
        <ele>149</ele>
        <time>2017-01-10T14:24:51Z</time>
      </trkpt>
      <trkpt lat="49.41422" lon="1.13263">
        <ele>149</ele>
        <time>2017-01-10T14:24:51Z</time>
      </trkpt>
      <trkpt lat="49.41428" lon="1.13266">
        <ele>149</ele>
        <time>2017-01-10T14:25:23Z</time>
      </trkpt>
      <trkpt lat="49.41433" lon="1.1326">
        <ele>149</ele>
        <time>2017-01-10T14:25:23Z</time>
      </trkpt>
      <trkpt lat="49.41438" lon="1.13254">
        <ele>149</ele>
        <time>2017-01-10T14:25:23Z</time>
      </trkpt>
      <trkpt lat="49.41442" lon="1.13249">
        <ele>149</ele>
        <time>2017-01-10T14:25:23Z</time>
      </trkpt>
      <trkpt lat="49.41446" lon="1.13245">
        <ele>149</ele>
        <time>2017-01-10T14:25:23Z</time>
      </trkpt>
      <trkpt lat="49.4145" lon="1.13243">
        <ele>149</ele>
        <time>2017-01-10T14:25:39Z</time>
      </trkpt>
      <trkpt lat="49.41454" lon="1.13242">
        <ele>149</ele>
        <time>2017-01-10T14:25:39Z</time>
      </trkpt>
      <trkpt lat="49.41458" lon="1.13241">
        <ele>149</ele>
        <time>2017-01-10T14:25:39Z</time>
      </trkpt>
      <trkpt lat="49.41462" lon="1.13237">
        <ele>149</ele>
        <time>2017-01-10T14:25:39Z</time>
      </trkpt>
      <trkpt lat="49.41465" lon="1.13235">
        <ele>149</ele>
        <time>2017-01-10T14:25:55Z</time>
      </trkpt>
      <trkpt lat="49.41469" lon="1.13234">
        <ele>149</ele>
        <time>2017-01-10T14:25:55Z</time>
      </trkpt>
      <trkpt lat="49.41473" lon="1.13233">
        <ele>149</ele>
        <time>2017-01-10T14:25:55Z</time>
      </trkpt>
      <trkpt lat="49.41477" lon="1.13231">
        <ele>149</ele>
        <time>2017-01-10T14:25:55Z</time>
      </trkpt>
      <trkpt lat="49.41481" lon="1.13228">
        <ele>149</ele>
        <time>2017-01-10T14:26:11Z</time>
      </trkpt>
      <trkpt lat="49.41486" lon="1.13227">
        <ele>149</ele>
        <time>2017-01-10T14:26:11Z</time>
      </trkpt>
      <trkpt lat="49.41489" lon="1.13227">
        <ele>149</ele>
        <time>2017-01-10T14:26:11Z</time>
      </trkpt>
      <trkpt lat="49.41496" lon="1.13224">
        <ele>149</ele>
        <time>2017-01-10T14:26:11Z</time>
      </trkpt>
      <trkpt lat="49.415" lon="1.13222">
        <ele>149</ele>
        <time>2017-01-10T14:26:27Z</time>
      </trkpt>
      <trkpt lat="49.41506" lon="1.13218">
        <ele>149</ele>
        <time>2017-01-10T14:26:27Z</time>
      </trkpt>
      <trkpt lat="49.41511" lon="1.13215">
        <ele>149</ele>
        <time>2017-01-10T14:26:27Z</time>
      </trkpt>
      <trkpt lat="49.41516" lon="1.13213">
        <ele>149</ele>
        <time>2017-01-10T14:26:27Z</time>
      </trkpt>
      <trkpt lat="49.41521" lon="1.13209">
        <ele>149</ele>
        <time>2017-01-10T14:26:43Z</time>
      </trkpt>
      <trkpt lat="49.41524" lon="1.13208">
        <ele>147</ele>
        <time>2017-01-10T14:26:43Z</time>
      </trkpt>
      <trkpt lat="49.41529" lon="1.13207">
        <ele>147</ele>
        <time>2017-01-10T14:26:43Z</time>
      </trkpt>
      <trkpt lat="49.41533" lon="1.13204">
        <ele>147</ele>
        <time>2017-01-10T14:26:43Z</time>
      </trkpt>
      <trkpt lat="49.41537" lon="1.13202">
        <ele>147</ele>
        <time>2017-01-10T14:26:59Z</time>
      </trkpt>
      <trkpt lat="49.41542" lon="1.132">
        <ele>147</ele>
        <time>2017-01-10T14:26:59Z</time>
      </trkpt>
      <trkpt lat="49.41546" lon="1.13198">
        <ele>147</ele>
        <time>2017-01-10T14:26:59Z</time>
      </trkpt>
      <trkpt lat="49.4155" lon="1.13195">
        <ele>147</ele>
        <time>2017-01-10T14:26:59Z</time>
      </trkpt>
      <trkpt lat="49.41554" lon="1.13191">
        <ele>147</ele>
        <time>2017-01-10T14:27:15Z</time>
      </trkpt>
      <trkpt lat="49.41558" lon="1.13189">
        <ele>147</ele>
        <time>2017-01-10T14:27:15Z</time>
      </trkpt>
      <trkpt lat="49.41563" lon="1.13186">
        <ele>147</ele>
        <time>2017-01-10T14:27:15Z</time>
      </trkpt>
      <trkpt lat="49.41567" lon="1.13183">
        <ele>147</ele>
        <time>2017-01-10T14:27:15Z</time>
      </trkpt>
      <trkpt lat="49.41571" lon="1.1318">
        <ele>147</ele>
        <time>2017-01-10T14:27:31Z</time>
      </trkpt>
      <trkpt lat="49.41575" lon="1.13177">
        <ele>147</ele>
        <time>2017-01-10T14:27:31Z</time>
      </trkpt>
      <trkpt lat="49.41579" lon="1.13174">
        <ele>147</ele>
        <time>2017-01-10T14:27:31Z</time>
      </trkpt>
      <trkpt lat="49.41583" lon="1.1317">
        <ele>147</ele>
        <time>2017-01-10T14:27:31Z</time>
      </trkpt>
      <trkpt lat="49.4159" lon="1.13173">
        <ele>147</ele>
        <time>2017-01-10T14:27:47Z</time>
      </trkpt>
      <trkpt lat="49.41598" lon="1.13171">
        <ele>147</ele>
        <time>2017-01-10T14:27:47Z</time>
      </trkpt>
      <trkpt lat="49.41602" lon="1.13165">
        <ele>147</ele>
        <time>2017-01-10T14:27:47Z</time>
      </trkpt>
      <trkpt lat="49.41606" lon="1.13161">
        <ele>147</ele>
        <time>2017-01-10T14:27:47Z</time>
      </trkpt>
      <trkpt lat="49.41611" lon="1.13158">
        <ele>147</ele>
        <time>2017-01-10T14:28:03Z</time>
      </trkpt>
      <trkpt lat="49.41616" lon="1.13156">
        <ele>147</ele>
        <time>2017-01-10T14:28:03Z</time>
      </trkpt>
      <trkpt lat="49.4162" lon="1.13154">
        <ele>147</ele>
        <time>2017-01-10T14:28:03Z</time>
      </trkpt>
      <trkpt lat="49.41623" lon="1.1315">
        <ele>147</ele>
        <time>2017-01-10T14:28:03Z</time>
      </trkpt>
      <trkpt lat="49.41626" lon="1.13146">
        <ele>147</ele>
        <time>2017-01-10T14:28:19Z</time>
      </trkpt>
      <trkpt lat="49.41632" lon="1.13142">
        <ele>147</ele>
        <time>2017-01-10T14:28:19Z</time>
      </trkpt>
      <trkpt lat="49.41637" lon="1.13137">
        <ele>147</ele>
        <time>2017-01-10T14:28:19Z</time>
      </trkpt>
      <trkpt lat="49.41641" lon="1.13131">
        <ele>147</ele>
        <time>2017-01-10T14:28:19Z</time>
      </trkpt>
      <trkpt lat="49.41644" lon="1.13128">
        <ele>147</ele>
        <time>2017-01-10T14:28:35Z</time>
      </trkpt>
      <trkpt lat="49.41647" lon="1.13126">
        <ele>147</ele>
        <time>2017-01-10T14:28:35Z</time>
      </trkpt>
      <trkpt lat="49.41652" lon="1.1312">
        <ele>146</ele>
        <time>2017-01-10T14:28:35Z</time>
      </trkpt>
      <trkpt lat="49.41657" lon="1.13117">
        <ele>146</ele>
        <time>2017-01-10T14:28:35Z</time>
      </trkpt>
      <trkpt lat="49.41662" lon="1.13113">
        <ele>146</ele>
        <time>2017-01-10T14:28:51Z</time>
      </trkpt>
      <trkpt lat="49.41666" lon="1.1311">
        <ele>146</ele>
        <time>2017-01-10T14:28:51Z</time>
      </trkpt>
      <trkpt lat="49.41667" lon="1.13102">
        <ele>146</ele>
        <time>2017-01-10T14:28:51Z</time>
      </trkpt>
      <trkpt lat="49.41669" lon="1.13094">
        <ele>146</ele>
        <time>2017-01-10T14:28:51Z</time>
      </trkpt>
      <trkpt lat="49.41673" lon="1.13089">
        <ele>146</ele>
        <time>2017-01-10T14:29:07Z</time>
      </trkpt>
      <trkpt lat="49.41677" lon="1.13091">
        <ele>146</ele>
        <time>2017-01-10T14:29:07Z</time>
      </trkpt>
      <trkpt lat="49.4168" lon="1.13098">
        <ele>146</ele>
        <time>2017-01-10T14:29:07Z</time>
      </trkpt>
      <trkpt lat="49.41681" lon="1.13105">
        <ele>146</ele>
        <time>2017-01-10T14:29:07Z</time>
      </trkpt>
      <trkpt lat="49.41679" lon="1.13112">
        <ele>146</ele>
        <time>2017-01-10T14:29:23Z</time>
      </trkpt>
      <trkpt lat="49.41679" lon="1.13118">
        <ele>146</ele>
        <time>2017-01-10T14:29:23Z</time>
      </trkpt>
      <trkpt lat="49.41678" lon="1.13123">
        <ele>146</ele>
        <time>2017-01-10T14:29:23Z</time>
      </trkpt>
      <trkpt lat="49.41681" lon="1.13128">
        <ele>147</ele>
        <time>2017-01-10T14:29:23Z</time>
      </trkpt>
      <trkpt lat="49.41684" lon="1.13132">
        <ele>147</ele>
        <time>2017-01-10T14:29:39Z</time>
      </trkpt>
      <trkpt lat="49.41688" lon="1.13136">
        <ele>147</ele>
        <time>2017-01-10T14:29:39Z</time>
      </trkpt>
      <trkpt lat="49.41692" lon="1.13136">
        <ele>147</ele>
        <time>2017-01-10T14:29:39Z</time>
      </trkpt>
      <trkpt lat="49.41696" lon="1.13133">
        <ele>147</ele>
        <time>2017-01-10T14:29:39Z</time>
      </trkpt>
      <trkpt lat="49.41701" lon="1.13129">
        <ele>147</ele>
        <time>2017-01-10T14:29:55Z</time>
      </trkpt>
      <trkpt lat="49.41705" lon="1.13125">
        <ele>146</ele>
        <time>2017-01-10T14:29:55Z</time>
      </trkpt>
      <trkpt lat="49.41709" lon="1.13122">
        <ele>149</ele>
        <time>2017-01-10T14:29:55Z</time>
      </trkpt>
      <trkpt lat="49.41713" lon="1.13119">
        <ele>149</ele>
        <time>2017-01-10T14:29:55Z</time>
      </trkpt>
      <trkpt lat="49.41717" lon="1.13116">
        <ele>149</ele>
        <time>2017-01-10T14:30:11Z</time>
      </trkpt>
      <trkpt lat="49.41721" lon="1.13112">
        <ele>149</ele>
        <time>2017-01-10T14:30:11Z</time>
      </trkpt>
      <trkpt lat="49.41725" lon="1.13108">
        <ele>149</ele>
        <time>2017-01-10T14:30:11Z</time>
      </trkpt>
      <trkpt lat="49.41729" lon="1.13105">
        <ele>149</ele>
        <time>2017-01-10T14:30:11Z</time>
      </trkpt>
      <trkpt lat="49.41733" lon="1.13101">
        <ele>149</ele>
        <time>2017-01-10T14:30:27Z</time>
      </trkpt>
      <trkpt lat="49.41737" lon="1.13099">
        <ele>149</ele>
        <time>2017-01-10T14:30:27Z</time>
      </trkpt>
      <trkpt lat="49.41741" lon="1.13095">
        <ele>149</ele>
        <time>2017-01-10T14:30:27Z</time>
      </trkpt>
      <trkpt lat="49.41745" lon="1.13091">
        <ele>149</ele>
        <time>2017-01-10T14:30:27Z</time>
      </trkpt>
      <trkpt lat="49.41749" lon="1.13088">
        <ele>149</ele>
        <time>2017-01-10T14:30:43Z</time>
      </trkpt>
      <trkpt lat="49.41753" lon="1.13085">
        <ele>149</ele>
        <time>2017-01-10T14:30:43Z</time>
      </trkpt>
      <trkpt lat="49.41757" lon="1.13081">
        <ele>149</ele>
        <time>2017-01-10T14:30:43Z</time>
      </trkpt>
      <trkpt lat="49.41761" lon="1.13079">
        <ele>149</ele>
        <time>2017-01-10T14:30:43Z</time>
      </trkpt>
      <trkpt lat="49.41766" lon="1.13075">
        <ele>149</ele>
        <time>2017-01-10T14:30:59Z</time>
      </trkpt>
      <trkpt lat="49.41769" lon="1.13068">
        <ele>149</ele>
        <time>2017-01-10T14:30:59Z</time>
      </trkpt>
      <trkpt lat="49.41774" lon="1.1306">
        <ele>149</ele>
        <time>2017-01-10T14:30:59Z</time>
      </trkpt>
      <trkpt lat="49.41777" lon="1.13055">
        <ele>149</ele>
        <time>2017-01-10T14:30:59Z</time>
      </trkpt>
      <trkpt lat="49.41782" lon="1.1305">
        <ele>149</ele>
        <time>2017-01-10T14:31:15Z</time>
      </trkpt>
      <trkpt lat="49.41786" lon="1.13042">
        <ele>149</ele>
        <time>2017-01-10T14:31:15Z</time>
      </trkpt>
      <trkpt lat="49.4179" lon="1.13036">
        <ele>149</ele>
        <time>2017-01-10T14:31:15Z</time>
      </trkpt>
      <trkpt lat="49.41794" lon="1.13031">
        <ele>149</ele>
        <time>2017-01-10T14:31:15Z</time>
      </trkpt>
      <trkpt lat="49.41796" lon="1.13025">
        <ele>149</ele>
        <time>2017-01-10T14:31:31Z</time>
      </trkpt>
      <trkpt lat="49.41796" lon="1.13016">
        <ele>149</ele>
        <time>2017-01-10T14:31:31Z</time>
      </trkpt>
      <trkpt lat="49.41796" lon="1.13008">
        <ele>149</ele>
        <time>2017-01-10T14:31:31Z</time>
      </trkpt>
      <trkpt lat="49.41795" lon="1.13002">
        <ele>149</ele>
        <time>2017-01-10T14:31:31Z</time>
      </trkpt>
      <trkpt lat="49.41796" lon="1.12995">
        <ele>149</ele>
        <time>2017-01-10T14:31:47Z</time>
      </trkpt>
      <trkpt lat="49.41797" lon="1.12988">
        <ele>149</ele>
        <time>2017-01-10T14:31:47Z</time>
      </trkpt>
      <trkpt lat="49.41799" lon="1.12982">
        <ele>149</ele>
        <time>2017-01-10T14:31:47Z</time>
      </trkpt>
      <trkpt lat="49.41802" lon="1.12977">
        <ele>149</ele>
        <time>2017-01-10T14:31:47Z</time>
      </trkpt>
      <trkpt lat="49.41805" lon="1.12972">
        <ele>149</ele>
        <time>2017-01-10T14:32:03Z</time>
      </trkpt>
      <trkpt lat="49.41809" lon="1.12965">
        <ele>149</ele>
        <time>2017-01-10T14:32:03Z</time>
      </trkpt>
      <trkpt lat="49.41812" lon="1.1296">
        <ele>149</ele>
        <time>2017-01-10T14:32:03Z</time>
      </trkpt>
      <trkpt lat="49.41816" lon="1.12956">
        <ele>149</ele>
        <time>2017-01-10T14:32:03Z</time>
      </trkpt>
      <trkpt lat="49.4182" lon="1.12952">
        <ele>149</ele>
        <time>2017-01-10T14:32:19Z</time>
      </trkpt>
      <trkpt lat="49.41823" lon="1.12947">
        <ele>149</ele>
        <time>2017-01-10T14:32:19Z</time>
      </trkpt>
      <trkpt lat="49.41826" lon="1.12941">
        <ele>149</ele>
        <time>2017-01-10T14:32:19Z</time>
      </trkpt>
      <trkpt lat="49.41829" lon="1.12936">
        <ele>149</ele>
        <time>2017-01-10T14:32:19Z</time>
      </trkpt>
      <trkpt lat="49.41831" lon="1.12928">
        <ele>149</ele>
        <time>2017-01-10T14:32:35Z</time>
      </trkpt>
      <trkpt lat="49.41833" lon="1.1292">
        <ele>149</ele>
        <time>2017-01-10T14:32:35Z</time>
      </trkpt>
      <trkpt lat="49.41834" lon="1.12911">
        <ele>149</ele>
        <time>2017-01-10T14:32:35Z</time>
      </trkpt>
      <trkpt lat="49.41833" lon="1.12903">
        <ele>149</ele>
        <time>2017-01-10T14:32:35Z</time>
      </trkpt>
      <trkpt lat="49.4183" lon="1.12895">
        <ele>149</ele>
        <time>2017-01-10T14:32:51Z</time>
      </trkpt>
      <trkpt lat="49.41827" lon="1.1289">
        <ele>149</ele>
        <time>2017-01-10T14:32:51Z</time>
      </trkpt>
      <trkpt lat="49.41824" lon="1.12884">
        <ele>149</ele>
        <time>2017-01-10T14:32:51Z</time>
      </trkpt>
      <trkpt lat="49.41821" lon="1.12878">
        <ele>149</ele>
        <time>2017-01-10T14:32:51Z</time>
      </trkpt>
      <trkpt lat="49.41821" lon="1.12872">
        <ele>148</ele>
        <time>2017-01-10T14:33:07Z</time>
      </trkpt>
      <trkpt lat="49.41823" lon="1.12865">
        <ele>148</ele>
        <time>2017-01-10T14:33:07Z</time>
      </trkpt>
      <trkpt lat="49.41824" lon="1.12858">
        <ele>148</ele>
        <time>2017-01-10T14:33:07Z</time>
      </trkpt>
      <trkpt lat="49.41825" lon="1.12853">
        <ele>148</ele>
        <time>2017-01-10T14:33:07Z</time>
      </trkpt>
      <trkpt lat="49.41827" lon="1.12847">
        <ele>148</ele>
        <time>2017-01-10T14:33:23Z</time>
      </trkpt>
      <trkpt lat="49.4183" lon="1.12841">
        <ele>148</ele>
        <time>2017-01-10T14:33:23Z</time>
      </trkpt>
      <trkpt lat="49.41831" lon="1.12836">
        <ele>148</ele>
        <time>2017-01-10T14:33:23Z</time>
      </trkpt>
      <trkpt lat="49.41834" lon="1.1283">
        <ele>148</ele>
        <time>2017-01-10T14:33:23Z</time>
      </trkpt>
      <trkpt lat="49.41836" lon="1.12822">
        <ele>148</ele>
        <time>2017-01-10T14:33:39Z</time>
      </trkpt>
      <trkpt lat="49.41837" lon="1.12816">
        <ele>148</ele>
        <time>2017-01-10T14:33:39Z</time>
      </trkpt>
      <trkpt lat="49.41837" lon="1.12808">
        <ele>148</ele>
        <time>2017-01-10T14:33:39Z</time>
      </trkpt>
      <trkpt lat="49.41839" lon="1.12801">
        <ele>148</ele>
        <time>2017-01-10T14:33:39Z</time>
      </trkpt>
      <trkpt lat="49.41841" lon="1.12792">
        <ele>148</ele>
        <time>2017-01-10T14:33:55Z</time>
      </trkpt>
      <trkpt lat="49.41842" lon="1.12785">
        <ele>148</ele>
        <time>2017-01-10T14:33:55Z</time>
      </trkpt>
      <trkpt lat="49.41844" lon="1.12779">
        <ele>148</ele>
        <time>2017-01-10T14:33:55Z</time>
      </trkpt>
      <trkpt lat="49.41847" lon="1.12774">
        <ele>148</ele>
        <time>2017-01-10T14:33:55Z</time>
      </trkpt>
      <trkpt lat="49.4185" lon="1.12767">
        <ele>148</ele>
        <time>2017-01-10T14:34:11Z</time>
      </trkpt>
      <trkpt lat="49.41853" lon="1.1276">
        <ele>148</ele>
        <time>2017-01-10T14:34:11Z</time>
      </trkpt>
      <trkpt lat="49.41855" lon="1.12753">
        <ele>148</ele>
        <time>2017-01-10T14:34:11Z</time>
      </trkpt>
      <trkpt lat="49.41857" lon="1.12746">
        <ele>148</ele>
        <time>2017-01-10T14:34:11Z</time>
      </trkpt>
      <trkpt lat="49.4186" lon="1.1274">
        <ele>148</ele>
        <time>2017-01-10T14:34:27Z</time>
      </trkpt>
      <trkpt lat="49.41862" lon="1.12734">
        <ele>148</ele>
        <time>2017-01-10T14:34:27Z</time>
      </trkpt>
      <trkpt lat="49.41864" lon="1.12729">
        <ele>148</ele>
        <time>2017-01-10T14:34:27Z</time>
      </trkpt>
      <trkpt lat="49.41866" lon="1.12722">
        <ele>148</ele>
        <time>2017-01-10T14:34:27Z</time>
      </trkpt>
      <trkpt lat="49.41869" lon="1.12714">
        <ele>148</ele>
        <time>2017-01-10T14:34:43Z</time>
      </trkpt>
      <trkpt lat="49.41871" lon="1.12709">
        <ele>148</ele>
        <time>2017-01-10T14:34:43Z</time>
      </trkpt>
      <trkpt lat="49.41876" lon="1.12704">
        <ele>147</ele>
        <time>2017-01-10T14:34:43Z</time>
      </trkpt>
      <trkpt lat="49.41879" lon="1.12699">
        <ele>147</ele>
        <time>2017-01-10T14:34:43Z</time>
      </trkpt>
      <trkpt lat="49.41882" lon="1.12695">
        <ele>147</ele>
        <time>2017-01-10T14:34:59Z</time>
      </trkpt>
      <trkpt lat="49.41886" lon="1.1269">
        <ele>147</ele>
        <time>2017-01-10T14:34:59Z</time>
      </trkpt>
      <trkpt lat="49.41889" lon="1.12686">
        <ele>147</ele>
        <time>2017-01-10T14:34:59Z</time>
      </trkpt>
      <trkpt lat="49.41893" lon="1.1268">
        <ele>147</ele>
        <time>2017-01-10T14:34:59Z</time>
      </trkpt>
      <trkpt lat="49.41897" lon="1.12675">
        <ele>147</ele>
        <time>2017-01-10T14:35:15Z</time>
      </trkpt>
      <trkpt lat="49.41901" lon="1.12671">
        <ele>147</ele>
        <time>2017-01-10T14:35:15Z</time>
      </trkpt>
      <trkpt lat="49.41905" lon="1.12667">
        <ele>147</ele>
        <time>2017-01-10T14:35:15Z</time>
      </trkpt>
      <trkpt lat="49.41908" lon="1.1266">
        <ele>147</ele>
        <time>2017-01-10T14:35:15Z</time>
      </trkpt>
      <trkpt lat="49.41911" lon="1.12655">
        <ele>147</ele>
        <time>2017-01-10T14:35:31Z</time>
      </trkpt>
      <trkpt lat="49.41915" lon="1.12651">
        <ele>147</ele>
        <time>2017-01-10T14:35:31Z</time>
      </trkpt>
      <trkpt lat="49.41919" lon="1.12647">
        <ele>147</ele>
        <time>2017-01-10T14:35:31Z</time>
      </trkpt>
      <trkpt lat="49.41923" lon="1.12643">
        <ele>147</ele>
        <time>2017-01-10T14:35:31Z</time>
      </trkpt>
      <trkpt lat="49.41927" lon="1.1264">
        <ele>147</ele>
        <time>2017-01-10T14:35:47Z</time>
      </trkpt>
      <trkpt lat="49.4193" lon="1.12637">
        <ele>147</ele>
        <time>2017-01-10T14:35:47Z</time>
      </trkpt>
      <trkpt lat="49.41934" lon="1.1263">
        <ele>147</ele>
        <time>2017-01-10T14:35:47Z</time>
      </trkpt>
      <trkpt lat="49.41938" lon="1.12624">
        <ele>148</ele>
        <time>2017-01-10T14:35:47Z</time>
      </trkpt>
      <trkpt lat="49.41942" lon="1.12619">
        <ele>148</ele>
        <time>2017-01-10T14:36:03Z</time>
      </trkpt>
      <trkpt lat="49.41946" lon="1.12614">
        <ele>148</ele>
        <time>2017-01-10T14:36:03Z</time>
      </trkpt>
      <trkpt lat="49.4195" lon="1.1261">
        <ele>148</ele>
        <time>2017-01-10T14:36:03Z</time>
      </trkpt>
      <trkpt lat="49.41953" lon="1.12605">
        <ele>148</ele>
        <time>2017-01-10T14:36:03Z</time>
      </trkpt>
      <trkpt lat="49.41957" lon="1.12601">
        <ele>148</ele>
        <time>2017-01-10T14:36:19Z</time>
      </trkpt>
      <trkpt lat="49.41961" lon="1.12596">
        <ele>148</ele>
        <time>2017-01-10T14:36:19Z</time>
      </trkpt>
      <trkpt lat="49.41965" lon="1.12592">
        <ele>148</ele>
        <time>2017-01-10T14:36:19Z</time>
      </trkpt>
      <trkpt lat="49.41969" lon="1.12588">
        <ele>148</ele>
        <time>2017-01-10T14:36:19Z</time>
      </trkpt>
      <trkpt lat="49.41972" lon="1.12583">
        <ele>148</ele>
        <time>2017-01-10T14:36:35Z</time>
      </trkpt>
      <trkpt lat="49.41976" lon="1.12579">
        <ele>148</ele>
        <time>2017-01-10T14:36:35Z</time>
      </trkpt>
      <trkpt lat="49.4198" lon="1.12575">
        <ele>148</ele>
        <time>2017-01-10T14:36:35Z</time>
      </trkpt>
      <trkpt lat="49.41984" lon="1.12571">
        <ele>148</ele>
        <time>2017-01-10T14:36:35Z</time>
      </trkpt>
      <trkpt lat="49.41988" lon="1.12567">
        <ele>148</ele>
        <time>2017-01-10T14:36:51Z</time>
      </trkpt>
      <trkpt lat="49.41992" lon="1.1256">
        <ele>148</ele>
        <time>2017-01-10T14:36:51Z</time>
      </trkpt>
      <trkpt lat="49.41996" lon="1.12553">
        <ele>148</ele>
        <time>2017-01-10T14:36:51Z</time>
      </trkpt>
      <trkpt lat="49.42" lon="1.12547">
        <ele>148</ele>
        <time>2017-01-10T14:36:51Z</time>
      </trkpt>
      <trkpt lat="49.42003" lon="1.12542">
        <ele>148</ele>
        <time>2017-01-10T14:37:07Z</time>
      </trkpt>
      <trkpt lat="49.42007" lon="1.12538">
        <ele>149</ele>
        <time>2017-01-10T14:37:07Z</time>
      </trkpt>
      <trkpt lat="49.42011" lon="1.12534">
        <ele>149</ele>
        <time>2017-01-10T14:37:07Z</time>
      </trkpt>
      <trkpt lat="49.42015" lon="1.1253">
        <ele>149</ele>
        <time>2017-01-10T14:37:07Z</time>
      </trkpt>
      <trkpt lat="49.4202" lon="1.12527">
        <ele>149</ele>
        <time>2017-01-10T14:37:23Z</time>
      </trkpt>
      <trkpt lat="49.42024" lon="1.12524">
        <ele>149</ele>
        <time>2017-01-10T14:37:23Z</time>
      </trkpt>
      <trkpt lat="49.42029" lon="1.1252">
        <ele>149</ele>
        <time>2017-01-10T14:37:23Z</time>
      </trkpt>
      <trkpt lat="49.42031" lon="1.12513">
        <ele>149</ele>
        <time>2017-01-10T14:37:23Z</time>
      </trkpt>
      <trkpt lat="49.42035" lon="1.12509">
        <ele>149</ele>
        <time>2017-01-10T14:37:39Z</time>
      </trkpt>
      <trkpt lat="49.42039" lon="1.12506">
        <ele>149</ele>
        <time>2017-01-10T14:37:39Z</time>
      </trkpt>
      <trkpt lat="49.42043" lon="1.12502">
        <ele>150</ele>
        <time>2017-01-10T14:37:39Z</time>
      </trkpt>
      <trkpt lat="49.42047" lon="1.12499">
        <ele>150</ele>
        <time>2017-01-10T14:37:39Z</time>
      </trkpt>
      <trkpt lat="49.42051" lon="1.12495">
        <ele>150</ele>
        <time>2017-01-10T14:37:55Z</time>
      </trkpt>
      <trkpt lat="49.42056" lon="1.12491">
        <ele>150</ele>
        <time>2017-01-10T14:37:55Z</time>
      </trkpt>
      <trkpt lat="49.42058" lon="1.1249">
        <ele>150</ele>
        <time>2017-01-10T14:37:55Z</time>
      </trkpt>
      <trkpt lat="49.42063" lon="1.12488">
        <ele>150</ele>
        <time>2017-01-10T14:37:55Z</time>
      </trkpt>
      <trkpt lat="49.42068" lon="1.12487">
        <ele>150</ele>
        <time>2017-01-10T14:38:11Z</time>
      </trkpt>
      <trkpt lat="49.42074" lon="1.12487">
        <ele>150</ele>
        <time>2017-01-10T14:38:11Z</time>
      </trkpt>
      <trkpt lat="49.4208" lon="1.12487">
        <ele>150</ele>
        <time>2017-01-10T14:38:11Z</time>
      </trkpt>
      <trkpt lat="49.42085" lon="1.12486">
        <ele>150</ele>
        <time>2017-01-10T14:38:11Z</time>
      </trkpt>
      <trkpt lat="49.42089" lon="1.12486">
        <ele>150</ele>
        <time>2017-01-10T14:38:27Z</time>
      </trkpt>
      <trkpt lat="49.42094" lon="1.12487">
        <ele>150</ele>
        <time>2017-01-10T14:38:27Z</time>
      </trkpt>
      <trkpt lat="49.42097" lon="1.12486">
        <ele>150</ele>
        <time>2017-01-10T14:38:27Z</time>
      </trkpt>
      <trkpt lat="49.42102" lon="1.12488">
        <ele>150</ele>
        <time>2017-01-10T14:38:27Z</time>
      </trkpt>
      <trkpt lat="49.42107" lon="1.1249">
        <ele>150</ele>
        <time>2017-01-10T14:38:43Z</time>
      </trkpt>
      <trkpt lat="49.4211" lon="1.12493">
        <ele>150</ele>
        <time>2017-01-10T14:38:43Z</time>
      </trkpt>
      <trkpt lat="49.42114" lon="1.12495">
        <ele>150</ele>
        <time>2017-01-10T14:38:43Z</time>
      </trkpt>
      <trkpt lat="49.42118" lon="1.12497">
        <ele>150</ele>
        <time>2017-01-10T14:38:43Z</time>
      </trkpt>
      <trkpt lat="49.42123" lon="1.12497">
        <ele>150</ele>
        <time>2017-01-10T14:38:59Z</time>
      </trkpt>
      <trkpt lat="49.42128" lon="1.12496">
        <ele>148</ele>
        <time>2017-01-10T14:38:59Z</time>
      </trkpt>
      <trkpt lat="49.42133" lon="1.12496">
        <ele>148</ele>
        <time>2017-01-10T14:38:59Z</time>
      </trkpt>
      <trkpt lat="49.42138" lon="1.12493">
        <ele>148</ele>
        <time>2017-01-10T14:38:59Z</time>
      </trkpt>
      <trkpt lat="49.42142" lon="1.12489">
        <ele>148</ele>
        <time>2017-01-10T14:39:15Z</time>
      </trkpt>
      <trkpt lat="49.42147" lon="1.12484">
        <ele>148</ele>
        <time>2017-01-10T14:39:15Z</time>
      </trkpt>
      <trkpt lat="49.42152" lon="1.12478">
        <ele>148</ele>
        <time>2017-01-10T14:39:15Z</time>
      </trkpt>
      <trkpt lat="49.42156" lon="1.12475">
        <ele>148</ele>
        <time>2017-01-10T14:39:15Z</time>
      </trkpt>
      <trkpt lat="49.4216" lon="1.12473">
        <ele>148</ele>
        <time>2017-01-10T14:39:31Z</time>
      </trkpt>
      <trkpt lat="49.42165" lon="1.12471">
        <ele>148</ele>
        <time>2017-01-10T14:39:31Z</time>
      </trkpt>
      <trkpt lat="49.42169" lon="1.12468">
        <ele>148</ele>
        <time>2017-01-10T14:39:31Z</time>
      </trkpt>
      <trkpt lat="49.42172" lon="1.12467">
        <ele>148</ele>
        <time>2017-01-10T14:39:31Z</time>
      </trkpt>
      <trkpt lat="49.42179" lon="1.12463">
        <ele>148</ele>
        <time>2017-01-10T14:44:11Z</time>
      </trkpt>
      <trkpt lat="49.4218" lon="1.12462">
        <ele>148</ele>
        <time>2017-01-10T14:44:11Z</time>
      </trkpt>
      <trkpt lat="49.42183" lon="1.12459">
        <ele>148</ele>
        <time>2017-01-10T14:44:11Z</time>
      </trkpt>
      <trkpt lat="49.42188" lon="1.12457">
        <ele>147</ele>
        <time>2017-01-10T14:44:11Z</time>
      </trkpt>
      <trkpt lat="49.42188" lon="1.12456">
        <ele>147</ele>
        <time>2017-01-10T14:44:11Z</time>
      </trkpt>
      <trkpt lat="49.42199" lon="1.12439">
        <ele>147</ele>
        <time>2017-01-10T14:45:11Z</time>
      </trkpt>
      <trkpt lat="49.42201" lon="1.12439">
        <ele>147</ele>
        <time>2017-01-10T14:45:11Z</time>
      </trkpt>
      <trkpt lat="49.42207" lon="1.1244">
        <ele>147</ele>
        <time>2017-01-10T14:45:11Z</time>
      </trkpt>
      <trkpt lat="49.42211" lon="1.12436">
        <ele>147</ele>
        <time>2017-01-10T14:45:11Z</time>
      </trkpt>
      <trkpt lat="49.42215" lon="1.12432">
        <ele>147</ele>
        <time>2017-01-10T14:45:11Z</time>
      </trkpt>
      <trkpt lat="49.42218" lon="1.1243">
        <ele>147</ele>
        <time>2017-01-10T14:45:27Z</time>
      </trkpt>
      <trkpt lat="49.42222" lon="1.12427">
        <ele>147</ele>
        <time>2017-01-10T14:45:27Z</time>
      </trkpt>
      <trkpt lat="49.42226" lon="1.12423">
        <ele>147</ele>
        <time>2017-01-10T14:45:27Z</time>
      </trkpt>
      <trkpt lat="49.4223" lon="1.1242">
        <ele>147</ele>
        <time>2017-01-10T14:45:27Z</time>
      </trkpt>
      <trkpt lat="49.42233" lon="1.12416">
        <ele>147</ele>
        <time>2017-01-10T14:45:43Z</time>
      </trkpt>
      <trkpt lat="49.42237" lon="1.12412">
        <ele>147</ele>
        <time>2017-01-10T14:45:43Z</time>
      </trkpt>
      <trkpt lat="49.4224" lon="1.12409">
        <ele>147</ele>
        <time>2017-01-10T14:45:43Z</time>
      </trkpt>
      <trkpt lat="49.42244" lon="1.12407">
        <ele>147</ele>
        <time>2017-01-10T14:45:43Z</time>
      </trkpt>
      <trkpt lat="49.42249" lon="1.12404">
        <ele>147</ele>
        <time>2017-01-10T14:45:59Z</time>
      </trkpt>
      <trkpt lat="49.42253" lon="1.12402">
        <ele>147</ele>
        <time>2017-01-10T14:45:59Z</time>
      </trkpt>
      <trkpt lat="49.42258" lon="1.124">
        <ele>147</ele>
        <time>2017-01-10T14:45:59Z</time>
      </trkpt>
      <trkpt lat="49.42262" lon="1.12398">
        <ele>147</ele>
        <time>2017-01-10T14:45:59Z</time>
      </trkpt>
      <trkpt lat="49.4227" lon="1.12397">
        <ele>147</ele>
        <time>2017-01-10T14:46:31Z</time>
      </trkpt>
      <trkpt lat="49.42273" lon="1.12397">
        <ele>147</ele>
        <time>2017-01-10T14:46:31Z</time>
      </trkpt>
      <trkpt lat="49.42276" lon="1.12398">
        <ele>147</ele>
        <time>2017-01-10T14:46:31Z</time>
      </trkpt>
      <trkpt lat="49.4228" lon="1.12397">
        <ele>147</ele>
        <time>2017-01-10T14:46:31Z</time>
      </trkpt>
      <trkpt lat="49.42284" lon="1.12394">
        <ele>147</ele>
        <time>2017-01-10T14:46:31Z</time>
      </trkpt>
      <trkpt lat="49.42288" lon="1.1239">
        <ele>147</ele>
        <time>2017-01-10T14:46:47Z</time>
      </trkpt>
      <trkpt lat="49.42293" lon="1.12387">
        <ele>145</ele>
        <time>2017-01-10T14:46:47Z</time>
      </trkpt>
      <trkpt lat="49.42297" lon="1.12385">
        <ele>145</ele>
        <time>2017-01-10T14:46:47Z</time>
      </trkpt>
      <trkpt lat="49.42301" lon="1.12382">
        <ele>145</ele>
        <time>2017-01-10T14:46:47Z</time>
      </trkpt>
      <trkpt lat="49.42305" lon="1.12378">
        <ele>145</ele>
        <time>2017-01-10T14:47:03Z</time>
      </trkpt>
      <trkpt lat="49.42309" lon="1.12374">
        <ele>145</ele>
        <time>2017-01-10T14:47:03Z</time>
      </trkpt>
      <trkpt lat="49.42315" lon="1.12368">
        <ele>145</ele>
        <time>2017-01-10T14:47:03Z</time>
      </trkpt>
      <trkpt lat="49.4232" lon="1.12364">
        <ele>145</ele>
        <time>2017-01-10T14:47:03Z</time>
      </trkpt>
      <trkpt lat="49.42324" lon="1.1236">
        <ele>145</ele>
        <time>2017-01-10T14:47:19Z</time>
      </trkpt>
      <trkpt lat="49.42328" lon="1.12356">
        <ele>145</ele>
        <time>2017-01-10T14:47:19Z</time>
      </trkpt>
      <trkpt lat="49.42332" lon="1.12352">
        <ele>145</ele>
        <time>2017-01-10T14:47:19Z</time>
      </trkpt>
      <trkpt lat="49.42338" lon="1.12349">
        <ele>145</ele>
        <time>2017-01-10T14:47:19Z</time>
      </trkpt>
      <trkpt lat="49.42343" lon="1.12346">
        <ele>145</ele>
        <time>2017-01-10T14:47:35Z</time>
      </trkpt>
      <trkpt lat="49.42347" lon="1.12342">
        <ele>145</ele>
        <time>2017-01-10T14:47:35Z</time>
      </trkpt>
      <trkpt lat="49.4235" lon="1.12338">
        <ele>145</ele>
        <time>2017-01-10T14:47:35Z</time>
      </trkpt>
      <trkpt lat="49.42354" lon="1.12334">
        <ele>145</ele>
        <time>2017-01-10T14:47:35Z</time>
      </trkpt>
      <trkpt lat="49.42358" lon="1.12329">
        <ele>145</ele>
        <time>2017-01-10T14:47:51Z</time>
      </trkpt>
      <trkpt lat="49.42362" lon="1.12322">
        <ele>145</ele>
        <time>2017-01-10T14:47:51Z</time>
      </trkpt>
      <trkpt lat="49.42364" lon="1.12315">
        <ele>145</ele>
        <time>2017-01-10T14:47:51Z</time>
      </trkpt>
      <trkpt lat="49.42367" lon="1.12311">
        <ele>145</ele>
        <time>2017-01-10T14:47:51Z</time>
      </trkpt>
      <trkpt lat="49.42373" lon="1.12305">
        <ele>145</ele>
        <time>2017-01-10T14:48:07Z</time>
      </trkpt>
      <trkpt lat="49.42377" lon="1.12299">
        <ele>144</ele>
        <time>2017-01-10T14:48:07Z</time>
      </trkpt>
      <trkpt lat="49.42381" lon="1.12293">
        <ele>144</ele>
        <time>2017-01-10T14:48:07Z</time>
      </trkpt>
      <trkpt lat="49.42384" lon="1.12289">
        <ele>143</ele>
        <time>2017-01-10T14:48:07Z</time>
      </trkpt>
      <trkpt lat="49.42388" lon="1.12285">
        <ele>143</ele>
        <time>2017-01-10T14:48:23Z</time>
      </trkpt>
      <trkpt lat="49.42392" lon="1.12283">
        <ele>143</ele>
        <time>2017-01-10T14:48:23Z</time>
      </trkpt>
      <trkpt lat="49.42396" lon="1.1228">
        <ele>143</ele>
        <time>2017-01-10T14:48:23Z</time>
      </trkpt>
      <trkpt lat="49.424" lon="1.12276">
        <ele>143</ele>
        <time>2017-01-10T14:48:23Z</time>
      </trkpt>
      <trkpt lat="49.42404" lon="1.12273">
        <ele>143</ele>
        <time>2017-01-10T14:48:39Z</time>
      </trkpt>
      <trkpt lat="49.42408" lon="1.12268">
        <ele>143</ele>
        <time>2017-01-10T14:48:39Z</time>
      </trkpt>
      <trkpt lat="49.42412" lon="1.12264">
        <ele>143</ele>
        <time>2017-01-10T14:48:39Z</time>
      </trkpt>
      <trkpt lat="49.42416" lon="1.12266">
        <ele>143</ele>
        <time>2017-01-10T14:48:39Z</time>
      </trkpt>
      <trkpt lat="49.4242" lon="1.12263">
        <ele>143</ele>
        <time>2017-01-10T14:48:55Z</time>
      </trkpt>
      <trkpt lat="49.42424" lon="1.1226">
        <ele>143</ele>
        <time>2017-01-10T14:48:55Z</time>
      </trkpt>
      <trkpt lat="49.42427" lon="1.12255">
        <ele>143</ele>
        <time>2017-01-10T14:48:55Z</time>
      </trkpt>
      <trkpt lat="49.4243" lon="1.1225">
        <ele>143</ele>
        <time>2017-01-10T14:48:55Z</time>
      </trkpt>
      <trkpt lat="49.42433" lon="1.12246">
        <ele>143</ele>
        <time>2017-01-10T14:49:11Z</time>
      </trkpt>
      <trkpt lat="49.42436" lon="1.12241">
        <ele>143</ele>
        <time>2017-01-10T14:49:11Z</time>
      </trkpt>
      <trkpt lat="49.4244" lon="1.12236">
        <ele>143</ele>
        <time>2017-01-10T14:49:11Z</time>
      </trkpt>
      <trkpt lat="49.42444" lon="1.12231">
        <ele>143</ele>
        <time>2017-01-10T14:49:11Z</time>
      </trkpt>
      <trkpt lat="49.42446" lon="1.12225">
        <ele>143</ele>
        <time>2017-01-10T14:49:27Z</time>
      </trkpt>
      <trkpt lat="49.42449" lon="1.1222">
        <ele>143</ele>
        <time>2017-01-10T14:49:27Z</time>
      </trkpt>
      <trkpt lat="49.42452" lon="1.12214">
        <ele>143</ele>
        <time>2017-01-10T14:49:27Z</time>
      </trkpt>
      <trkpt lat="49.42454" lon="1.12207">
        <ele>145</ele>
        <time>2017-01-10T14:49:27Z</time>
      </trkpt>
      <trkpt lat="49.42457" lon="1.12199">
        <ele>145</ele>
        <time>2017-01-10T14:49:43Z</time>
      </trkpt>
      <trkpt lat="49.42461" lon="1.12196">
        <ele>139</ele>
        <time>2017-01-10T14:49:43Z</time>
      </trkpt>
      <trkpt lat="49.42464" lon="1.1219">
        <ele>139</ele>
        <time>2017-01-10T14:49:43Z</time>
      </trkpt>
      <trkpt lat="49.42468" lon="1.12186">
        <ele>139</ele>
        <time>2017-01-10T14:49:43Z</time>
      </trkpt>
      <trkpt lat="49.42469" lon="1.12181">
        <ele>139</ele>
        <time>2017-01-10T14:49:59Z</time>
      </trkpt>
      <trkpt lat="49.42473" lon="1.12179">
        <ele>139</ele>
        <time>2017-01-10T14:49:59Z</time>
      </trkpt>
      <trkpt lat="49.42477" lon="1.12177">
        <ele>139</ele>
        <time>2017-01-10T14:49:59Z</time>
      </trkpt>
      <trkpt lat="49.42482" lon="1.12174">
        <ele>139</ele>
        <time>2017-01-10T14:49:59Z</time>
      </trkpt>
      <trkpt lat="49.42487" lon="1.12173">
        <ele>139</ele>
        <time>2017-01-10T14:50:15Z</time>
      </trkpt>
      <trkpt lat="49.42491" lon="1.12168">
        <ele>139</ele>
        <time>2017-01-10T14:50:15Z</time>
      </trkpt>
      <trkpt lat="49.42494" lon="1.12159">
        <ele>139</ele>
        <time>2017-01-10T14:50:15Z</time>
      </trkpt>
      <trkpt lat="49.42497" lon="1.12153">
        <ele>139</ele>
        <time>2017-01-10T14:50:15Z</time>
      </trkpt>
      <trkpt lat="49.425" lon="1.12149">
        <ele>139</ele>
        <time>2017-01-10T14:50:31Z</time>
      </trkpt>
      <trkpt lat="49.42504" lon="1.12144">
        <ele>139</ele>
        <time>2017-01-10T14:50:31Z</time>
      </trkpt>
      <trkpt lat="49.42507" lon="1.12139">
        <ele>139</ele>
        <time>2017-01-10T14:50:31Z</time>
      </trkpt>
      <trkpt lat="49.4251" lon="1.12134">
        <ele>139</ele>
        <time>2017-01-10T14:50:31Z</time>
      </trkpt>
      <trkpt lat="49.42513" lon="1.12129">
        <ele>139</ele>
        <time>2017-01-10T14:50:47Z</time>
      </trkpt>
      <trkpt lat="49.42516" lon="1.12124">
        <ele>142</ele>
        <time>2017-01-10T14:50:47Z</time>
      </trkpt>
      <trkpt lat="49.42519" lon="1.12118">
        <ele>142</ele>
        <time>2017-01-10T14:50:47Z</time>
      </trkpt>
      <trkpt lat="49.42521" lon="1.12111">
        <ele>142</ele>
        <time>2017-01-10T14:50:47Z</time>
      </trkpt>
      <trkpt lat="49.42522" lon="1.12104">
        <ele>142</ele>
        <time>2017-01-10T14:51:03Z</time>
      </trkpt>
      <trkpt lat="49.42524" lon="1.12097">
        <ele>142</ele>
        <time>2017-01-10T14:51:03Z</time>
      </trkpt>
      <trkpt lat="49.42528" lon="1.12093">
        <ele>142</ele>
        <time>2017-01-10T14:51:03Z</time>
      </trkpt>
      <trkpt lat="49.42532" lon="1.12088">
        <ele>142</ele>
        <time>2017-01-10T14:51:03Z</time>
      </trkpt>
      <trkpt lat="49.42535" lon="1.12083">
        <ele>142</ele>
        <time>2017-01-10T14:51:19Z</time>
      </trkpt>
      <trkpt lat="49.42537" lon="1.12076">
        <ele>142</ele>
        <time>2017-01-10T14:51:19Z</time>
      </trkpt>
      <trkpt lat="49.42539" lon="1.1207">
        <ele>142</ele>
        <time>2017-01-10T14:51:19Z</time>
      </trkpt>
      <trkpt lat="49.42535" lon="1.12061">
        <ele>142</ele>
        <time>2017-01-10T14:51:19Z</time>
      </trkpt>
      <trkpt lat="49.42535" lon="1.12056">
        <ele>142</ele>
        <time>2017-01-10T14:51:35Z</time>
      </trkpt>
      <trkpt lat="49.42536" lon="1.12049">
        <ele>142</ele>
        <time>2017-01-10T14:51:35Z</time>
      </trkpt>
      <trkpt lat="49.42526" lon="1.12046">
        <ele>142</ele>
        <time>2017-01-10T14:51:35Z</time>
      </trkpt>
      <trkpt lat="49.42522" lon="1.12045">
        <ele>142</ele>
        <time>2017-01-10T14:51:35Z</time>
      </trkpt>
      <trkpt lat="49.42522" lon="1.12043">
        <ele>142</ele>
        <time>2017-01-10T14:51:51Z</time>
      </trkpt>
      <trkpt lat="49.42516" lon="1.12042">
        <ele>145</ele>
        <time>2017-01-10T14:51:51Z</time>
      </trkpt>
      <trkpt lat="49.42511" lon="1.12047">
        <ele>142</ele>
        <time>2017-01-10T14:51:51Z</time>
      </trkpt>
      <trkpt lat="49.42509" lon="1.12053">
        <ele>142</ele>
        <time>2017-01-10T14:51:51Z</time>
      </trkpt>
      <trkpt lat="49.42509" lon="1.12053">
        <ele>142</ele>
        <time>2017-01-10T14:52:59Z</time>
      </trkpt>
      <trkpt lat="49.42508" lon="1.12054">
        <ele>142</ele>
        <time>2017-01-10T14:52:59Z</time>
      </trkpt>
      <trkpt lat="49.42509" lon="1.12051">
        <ele>142</ele>
        <time>2017-01-10T14:52:59Z</time>
      </trkpt>
      <trkpt lat="49.42514" lon="1.12044">
        <ele>142</ele>
        <time>2017-01-10T14:52:59Z</time>
      </trkpt>
      <trkpt lat="49.42518" lon="1.12039">
        <ele>145</ele>
        <time>2017-01-10T14:52:59Z</time>
      </trkpt>
      <trkpt lat="49.42523" lon="1.12034">
        <ele>145</ele>
        <time>2017-01-10T14:53:15Z</time>
      </trkpt>
      <trkpt lat="49.42527" lon="1.12029">
        <ele>145</ele>
        <time>2017-01-10T14:53:15Z</time>
      </trkpt>
      <trkpt lat="49.42527" lon="1.12019">
        <ele>145</ele>
        <time>2017-01-10T14:53:15Z</time>
      </trkpt>
      <trkpt lat="49.42539" lon="1.12004">
        <ele>145</ele>
        <time>2017-01-10T14:53:15Z</time>
      </trkpt>
      <trkpt lat="49.42545" lon="1.11996">
        <ele>124</ele>
        <time>2017-01-10T14:53:31Z</time>
      </trkpt>
      <trkpt lat="49.42548" lon="1.1199">
        <ele>124</ele>
        <time>2017-01-10T14:53:31Z</time>
      </trkpt>
      <trkpt lat="49.4255" lon="1.11984">
        <ele>124</ele>
        <time>2017-01-10T14:53:31Z</time>
      </trkpt>
      <trkpt lat="49.42553" lon="1.11978">
        <ele>124</ele>
        <time>2017-01-10T14:53:31Z</time>
      </trkpt>
      <trkpt lat="49.42556" lon="1.11972">
        <ele>124</ele>
        <time>2017-01-10T14:53:47Z</time>
      </trkpt>
      <trkpt lat="49.42559" lon="1.11967">
        <ele>124</ele>
        <time>2017-01-10T14:53:47Z</time>
      </trkpt>
      <trkpt lat="49.42561" lon="1.11961">
        <ele>124</ele>
        <time>2017-01-10T14:53:47Z</time>
      </trkpt>
      <trkpt lat="49.42564" lon="1.11955">
        <ele>130</ele>
        <time>2017-01-10T14:53:47Z</time>
      </trkpt>
      <trkpt lat="49.42567" lon="1.11949">
        <ele>130</ele>
        <time>2017-01-10T14:54:03Z</time>
      </trkpt>
      <trkpt lat="49.4257" lon="1.11943">
        <ele>130</ele>
        <time>2017-01-10T14:54:03Z</time>
      </trkpt>
      <trkpt lat="49.42573" lon="1.11937">
        <ele>130</ele>
        <time>2017-01-10T14:54:03Z</time>
      </trkpt>
      <trkpt lat="49.42576" lon="1.11931">
        <ele>130</ele>
        <time>2017-01-10T14:54:03Z</time>
      </trkpt>
      <trkpt lat="49.4258" lon="1.11925">
        <ele>130</ele>
        <time>2017-01-10T14:54:19Z</time>
      </trkpt>
      <trkpt lat="49.42582" lon="1.11919">
        <ele>130</ele>
        <time>2017-01-10T14:54:19Z</time>
      </trkpt>
      <trkpt lat="49.42585" lon="1.11913">
        <ele>130</ele>
        <time>2017-01-10T14:54:19Z</time>
      </trkpt>
      <trkpt lat="49.42588" lon="1.11906">
        <ele>130</ele>
        <time>2017-01-10T14:54:19Z</time>
      </trkpt>
      <trkpt lat="49.42591" lon="1.119">
        <ele>130</ele>
        <time>2017-01-10T14:54:35Z</time>
      </trkpt>
      <trkpt lat="49.42594" lon="1.11893">
        <ele>130</ele>
        <time>2017-01-10T14:54:35Z</time>
      </trkpt>
      <trkpt lat="49.42596" lon="1.11885">
        <ele>130</ele>
        <time>2017-01-10T14:54:35Z</time>
      </trkpt>
      <trkpt lat="49.42599" lon="1.11878">
        <ele>130</ele>
        <time>2017-01-10T14:54:35Z</time>
      </trkpt>
      <trkpt lat="49.42602" lon="1.11871">
        <ele>131</ele>
        <time>2017-01-10T14:54:51Z</time>
      </trkpt>
      <trkpt lat="49.42606" lon="1.11865">
        <ele>131</ele>
        <time>2017-01-10T14:54:51Z</time>
      </trkpt>
      <trkpt lat="49.42609" lon="1.11858">
        <ele>131</ele>
        <time>2017-01-10T14:54:51Z</time>
      </trkpt>
      <trkpt lat="49.42611" lon="1.11849">
        <ele>131</ele>
        <time>2017-01-10T14:54:51Z</time>
      </trkpt>
      <trkpt lat="49.42613" lon="1.11842">
        <ele>131</ele>
        <time>2017-01-10T14:55:07Z</time>
      </trkpt>
      <trkpt lat="49.42616" lon="1.11834">
        <ele>131</ele>
        <time>2017-01-10T14:55:07Z</time>
      </trkpt>
      <trkpt lat="49.42618" lon="1.11794">
        <ele>131</ele>
        <time>2017-01-10T14:55:07Z</time>
      </trkpt>
      <trkpt lat="49.42617" lon="1.11784">
        <ele>129</ele>
        <time>2017-01-10T14:55:07Z</time>
      </trkpt>
      <trkpt lat="49.42616" lon="1.11772">
        <ele>129</ele>
        <time>2017-01-10T14:55:23Z</time>
      </trkpt>
      <trkpt lat="49.42617" lon="1.11763">
        <ele>129</ele>
        <time>2017-01-10T14:55:23Z</time>
      </trkpt>
      <trkpt lat="49.42616" lon="1.11754">
        <ele>129</ele>
        <time>2017-01-10T14:55:23Z</time>
      </trkpt>
      <trkpt lat="49.42613" lon="1.11745">
        <ele>129</ele>
        <time>2017-01-10T14:55:23Z</time>
      </trkpt>
      <trkpt lat="49.42614" lon="1.11735">
        <ele>129</ele>
        <time>2017-01-10T14:55:39Z</time>
      </trkpt>
      <trkpt lat="49.42615" lon="1.11725">
        <ele>129</ele>
        <time>2017-01-10T14:55:39Z</time>
      </trkpt>
      <trkpt lat="49.42616" lon="1.11717">
        <ele>129</ele>
        <time>2017-01-10T14:55:39Z</time>
      </trkpt>
      <trkpt lat="49.4262" lon="1.11711">
        <ele>129</ele>
        <time>2017-01-10T14:55:39Z</time>
      </trkpt>
      <trkpt lat="49.42623" lon="1.11705">
        <ele>122</ele>
        <time>2017-01-10T14:55:55Z</time>
      </trkpt>
      <trkpt lat="49.42624" lon="1.11698">
        <ele>122</ele>
        <time>2017-01-10T14:55:55Z</time>
      </trkpt>
      <trkpt lat="49.42625" lon="1.11691">
        <ele>88</ele>
        <time>2017-01-10T14:55:55Z</time>
      </trkpt>
      <trkpt lat="49.42626" lon="1.11684">
        <ele>88</ele>
        <time>2017-01-10T14:55:55Z</time>
      </trkpt>
      <trkpt lat="49.42626" lon="1.11676">
        <ele>88</ele>
        <time>2017-01-10T14:56:11Z</time>
      </trkpt>
      <trkpt lat="49.42624" lon="1.11668">
        <ele>122</ele>
        <time>2017-01-10T14:56:11Z</time>
      </trkpt>
      <trkpt lat="49.42621" lon="1.11657">
        <ele>122</ele>
        <time>2017-01-10T14:56:11Z</time>
      </trkpt>
      <trkpt lat="49.42617" lon="1.11651">
        <ele>122</ele>
        <time>2017-01-10T14:56:11Z</time>
      </trkpt>
      <trkpt lat="49.42616" lon="1.11643">
        <ele>122</ele>
        <time>2017-01-10T14:56:27Z</time>
      </trkpt>
      <trkpt lat="49.42613" lon="1.11637">
        <ele>122</ele>
        <time>2017-01-10T14:56:27Z</time>
      </trkpt>
      <trkpt lat="49.42608" lon="1.11633">
        <ele>122</ele>
        <time>2017-01-10T14:56:27Z</time>
      </trkpt>
      <trkpt lat="49.42603" lon="1.11631">
        <ele>122</ele>
        <time>2017-01-10T14:56:27Z</time>
      </trkpt>
      <trkpt lat="49.42598" lon="1.11628">
        <ele>122</ele>
        <time>2017-01-10T14:56:43Z</time>
      </trkpt>
      <trkpt lat="49.42594" lon="1.11626">
        <ele>122</ele>
        <time>2017-01-10T14:56:43Z</time>
      </trkpt>
      <trkpt lat="49.42589" lon="1.11626">
        <ele>122</ele>
        <time>2017-01-10T14:56:43Z</time>
      </trkpt>
      <trkpt lat="49.42584" lon="1.11628">
        <ele>122</ele>
        <time>2017-01-10T14:56:43Z</time>
      </trkpt>
      <trkpt lat="49.4258" lon="1.11631">
        <ele>122</ele>
        <time>2017-01-10T14:56:59Z</time>
      </trkpt>
      <trkpt lat="49.42576" lon="1.11634">
        <ele>122</ele>
        <time>2017-01-10T14:56:59Z</time>
      </trkpt>
      <trkpt lat="49.42572" lon="1.11638">
        <ele>122</ele>
        <time>2017-01-10T14:56:59Z</time>
      </trkpt>
      <trkpt lat="49.42568" lon="1.11643">
        <ele>122</ele>
        <time>2017-01-10T14:56:59Z</time>
      </trkpt>
      <trkpt lat="49.42564" lon="1.11647">
        <ele>122</ele>
        <time>2017-01-10T14:57:15Z</time>
      </trkpt>
      <trkpt lat="49.42561" lon="1.11652">
        <ele>122</ele>
        <time>2017-01-10T14:57:15Z</time>
      </trkpt>
      <trkpt lat="49.42558" lon="1.11658">
        <ele>122</ele>
        <time>2017-01-10T14:57:15Z</time>
      </trkpt>
      <trkpt lat="49.42555" lon="1.11663">
        <ele>122</ele>
        <time>2017-01-10T14:57:15Z</time>
      </trkpt>
      <trkpt lat="49.42551" lon="1.11662">
        <ele>122</ele>
        <time>2017-01-10T14:57:31Z</time>
      </trkpt>
      <trkpt lat="49.4254" lon="1.1166">
        <ele>117</ele>
        <time>2017-01-10T14:57:31Z</time>
      </trkpt>
      <trkpt lat="49.42535" lon="1.11665">
        <ele>117</ele>
        <time>2017-01-10T14:57:31Z</time>
      </trkpt>
      <trkpt lat="49.42532" lon="1.11671">
        <ele>117</ele>
        <time>2017-01-10T14:57:31Z</time>
      </trkpt>
      <trkpt lat="49.42529" lon="1.11677">
        <ele>117</ele>
        <time>2017-01-10T14:57:47Z</time>
      </trkpt>
      <trkpt lat="49.42526" lon="1.11682">
        <ele>117</ele>
        <time>2017-01-10T14:57:47Z</time>
      </trkpt>
      <trkpt lat="49.42523" lon="1.11688">
        <ele>117</ele>
        <time>2017-01-10T14:57:47Z</time>
      </trkpt>
      <trkpt lat="49.42519" lon="1.11692">
        <ele>117</ele>
        <time>2017-01-10T14:57:47Z</time>
      </trkpt>
      <trkpt lat="49.42517" lon="1.11687">
        <ele>117</ele>
        <time>2017-01-10T14:58:03Z</time>
      </trkpt>
      <trkpt lat="49.42513" lon="1.11682">
        <ele>117</ele>
        <time>2017-01-10T14:58:03Z</time>
      </trkpt>
      <trkpt lat="49.42509" lon="1.11685">
        <ele>117</ele>
        <time>2017-01-10T14:58:03Z</time>
      </trkpt>
      <trkpt lat="49.42505" lon="1.11689">
        <ele>117</ele>
        <time>2017-01-10T14:58:03Z</time>
      </trkpt>
      <trkpt lat="49.42502" lon="1.11695">
        <ele>117</ele>
        <time>2017-01-10T14:58:19Z</time>
      </trkpt>
      <trkpt lat="49.42499" lon="1.117">
        <ele>117</ele>
        <time>2017-01-10T14:58:19Z</time>
      </trkpt>
      <trkpt lat="49.42497" lon="1.11706">
        <ele>117</ele>
        <time>2017-01-10T14:58:19Z</time>
      </trkpt>
      <trkpt lat="49.42494" lon="1.11712">
        <ele>137</ele>
        <time>2017-01-10T14:58:19Z</time>
      </trkpt>
      <trkpt lat="49.42492" lon="1.11719">
        <ele>137</ele>
        <time>2017-01-10T14:58:35Z</time>
      </trkpt>
      <trkpt lat="49.42491" lon="1.11726">
        <ele>137</ele>
        <time>2017-01-10T14:58:35Z</time>
      </trkpt>
      <trkpt lat="49.42489" lon="1.11732">
        <ele>137</ele>
        <time>2017-01-10T14:58:35Z</time>
      </trkpt>
      <trkpt lat="49.42486" lon="1.11738">
        <ele>137</ele>
        <time>2017-01-10T14:58:35Z</time>
      </trkpt>
      <trkpt lat="49.42484" lon="1.11743">
        <ele>137</ele>
        <time>2017-01-10T14:58:51Z</time>
      </trkpt>
      <trkpt lat="49.42481" lon="1.11749">
        <ele>137</ele>
        <time>2017-01-10T14:58:51Z</time>
      </trkpt>
      <trkpt lat="49.42479" lon="1.11755">
        <ele>137</ele>
        <time>2017-01-10T14:58:51Z</time>
      </trkpt>
      <trkpt lat="49.42477" lon="1.11761">
        <ele>137</ele>
        <time>2017-01-10T14:58:51Z</time>
      </trkpt>
      <trkpt lat="49.42466" lon="1.11761">
        <ele>137</ele>
        <time>2017-01-10T14:59:07Z</time>
      </trkpt>
      <trkpt lat="49.42449" lon="1.11756">
        <ele>119</ele>
        <time>2017-01-10T14:59:07Z</time>
      </trkpt>
      <trkpt lat="49.4244" lon="1.11754">
        <ele>119</ele>
        <time>2017-01-10T14:59:07Z</time>
      </trkpt>
      <trkpt lat="49.42436" lon="1.11751">
        <ele>119</ele>
        <time>2017-01-10T14:59:07Z</time>
      </trkpt>
      <trkpt lat="49.4243" lon="1.11748">
        <ele>119</ele>
        <time>2017-01-10T14:59:23Z</time>
      </trkpt>
      <trkpt lat="49.42423" lon="1.11747">
        <ele>119</ele>
        <time>2017-01-10T14:59:23Z</time>
      </trkpt>
      <trkpt lat="49.42418" lon="1.11749">
        <ele>119</ele>
        <time>2017-01-10T14:59:23Z</time>
      </trkpt>
      <trkpt lat="49.42413" lon="1.11751">
        <ele>119</ele>
        <time>2017-01-10T14:59:23Z</time>
      </trkpt>
      <trkpt lat="49.4241" lon="1.11756">
        <ele>119</ele>
        <time>2017-01-10T14:59:39Z</time>
      </trkpt>
      <trkpt lat="49.42408" lon="1.1176">
        <ele>119</ele>
        <time>2017-01-10T14:59:39Z</time>
      </trkpt>
      <trkpt lat="49.42404" lon="1.11764">
        <ele>119</ele>
        <time>2017-01-10T14:59:39Z</time>
      </trkpt>
      <trkpt lat="49.42399" lon="1.11765">
        <ele>119</ele>
        <time>2017-01-10T14:59:39Z</time>
      </trkpt>
      <trkpt lat="49.42396" lon="1.1177">
        <ele>119</ele>
        <time>2017-01-10T14:59:55Z</time>
      </trkpt>
      <trkpt lat="49.42394" lon="1.11775">
        <ele>119</ele>
        <time>2017-01-10T14:59:55Z</time>
      </trkpt>
      <trkpt lat="49.42391" lon="1.11779">
        <ele>119</ele>
        <time>2017-01-10T14:59:55Z</time>
      </trkpt>
      <trkpt lat="49.42389" lon="1.11783">
        <ele>119</ele>
        <time>2017-01-10T14:59:55Z</time>
      </trkpt>
      <trkpt lat="49.42387" lon="1.11789">
        <ele>119</ele>
        <time>2017-01-10T15:00:11Z</time>
      </trkpt>
      <trkpt lat="49.42385" lon="1.11795">
        <ele>137</ele>
        <time>2017-01-10T15:00:11Z</time>
      </trkpt>
      <trkpt lat="49.42382" lon="1.11797">
        <ele>137</ele>
        <time>2017-01-10T15:00:11Z</time>
      </trkpt>
      <trkpt lat="49.42378" lon="1.118">
        <ele>137</ele>
        <time>2017-01-10T15:00:11Z</time>
      </trkpt>
      <trkpt lat="49.42375" lon="1.11805">
        <ele>112</ele>
        <time>2017-01-10T15:00:27Z</time>
      </trkpt>
      <trkpt lat="49.4237" lon="1.11809">
        <ele>112</ele>
        <time>2017-01-10T15:00:27Z</time>
      </trkpt>
      <trkpt lat="49.42367" lon="1.11813">
        <ele>112</ele>
        <time>2017-01-10T15:00:27Z</time>
      </trkpt>
      <trkpt lat="49.42365" lon="1.11819">
        <ele>112</ele>
        <time>2017-01-10T15:00:27Z</time>
      </trkpt>
      <trkpt lat="49.42363" lon="1.11825">
        <ele>112</ele>
        <time>2017-01-10T15:00:43Z</time>
      </trkpt>
      <trkpt lat="49.4236" lon="1.11829">
        <ele>112</ele>
        <time>2017-01-10T15:00:43Z</time>
      </trkpt>
      <trkpt lat="49.42357" lon="1.11833">
        <ele>112</ele>
        <time>2017-01-10T15:00:43Z</time>
      </trkpt>
      <trkpt lat="49.42354" lon="1.11835">
        <ele>112</ele>
        <time>2017-01-10T15:00:43Z</time>
      </trkpt>
      <trkpt lat="49.42351" lon="1.11834">
        <ele>112</ele>
        <time>2017-01-10T15:00:59Z</time>
      </trkpt>
      <trkpt lat="49.42348" lon="1.11836">
        <ele>112</ele>
        <time>2017-01-10T15:00:59Z</time>
      </trkpt>
      <trkpt lat="49.42344" lon="1.11839">
        <ele>112</ele>
        <time>2017-01-10T15:00:59Z</time>
      </trkpt>
      <trkpt lat="49.42341" lon="1.11843">
        <ele>112</ele>
        <time>2017-01-10T15:00:59Z</time>
      </trkpt>
      <trkpt lat="49.4234" lon="1.11849">
        <ele>112</ele>
        <time>2017-01-10T15:01:15Z</time>
      </trkpt>
      <trkpt lat="49.42338" lon="1.11855">
        <ele>112</ele>
        <time>2017-01-10T15:01:15Z</time>
      </trkpt>
      <trkpt lat="49.42334" lon="1.11862">
        <ele>112</ele>
        <time>2017-01-10T15:01:15Z</time>
      </trkpt>
      <trkpt lat="49.42332" lon="1.11868">
        <ele>112</ele>
        <time>2017-01-10T15:01:15Z</time>
      </trkpt>
      <trkpt lat="49.42329" lon="1.11873">
        <ele>112</ele>
        <time>2017-01-10T15:01:31Z</time>
      </trkpt>
      <trkpt lat="49.42326" lon="1.11879">
        <ele>127</ele>
        <time>2017-01-10T15:01:31Z</time>
      </trkpt>
      <trkpt lat="49.42323" lon="1.11883">
        <ele>127</ele>
        <time>2017-01-10T15:01:31Z</time>
      </trkpt>
      <trkpt lat="49.42322" lon="1.11887">
        <ele>127</ele>
        <time>2017-01-10T15:01:31Z</time>
      </trkpt>
      <trkpt lat="49.42319" lon="1.1189">
        <ele>127</ele>
        <time>2017-01-10T15:01:47Z</time>
      </trkpt>
      <trkpt lat="49.42319" lon="1.11896">
        <ele>127</ele>
        <time>2017-01-10T15:01:47Z</time>
      </trkpt>
      <trkpt lat="49.42318" lon="1.11901">
        <ele>127</ele>
        <time>2017-01-10T15:01:47Z</time>
      </trkpt>
      <trkpt lat="49.42317" lon="1.11906">
        <ele>127</ele>
        <time>2017-01-10T15:01:47Z</time>
      </trkpt>
      <trkpt lat="49.42313" lon="1.1191">
        <ele>127</ele>
        <time>2017-01-10T15:02:03Z</time>
      </trkpt>
      <trkpt lat="49.42307" lon="1.11908">
        <ele>127</ele>
        <time>2017-01-10T15:02:03Z</time>
      </trkpt>
      <trkpt lat="49.42304" lon="1.11915">
        <ele>127</ele>
        <time>2017-01-10T15:02:03Z</time>
      </trkpt>
      <trkpt lat="49.42302" lon="1.11921">
        <ele>127</ele>
        <time>2017-01-10T15:02:03Z</time>
      </trkpt>
      <trkpt lat="49.42292" lon="1.11905">
        <ele>101</ele>
        <time>2017-01-10T15:03:51Z</time>
      </trkpt>
      <trkpt lat="49.42292" lon="1.11904">
        <ele>101</ele>
        <time>2017-01-10T15:03:51Z</time>
      </trkpt>
      <trkpt lat="49.42291" lon="1.11904">
        <ele>101</ele>
        <time>2017-01-10T15:03:51Z</time>
      </trkpt>
      <trkpt lat="49.42291" lon="1.11903">
        <ele>101</ele>
        <time>2017-01-10T15:03:51Z</time>
      </trkpt>
      <trkpt lat="49.42291" lon="1.11903">
        <ele>101</ele>
        <time>2017-01-10T15:03:51Z</time>
      </trkpt>
      <trkpt lat="49.42292" lon="1.11904">
        <ele>101</ele>
        <time>2017-01-10T15:06:07Z</time>
      </trkpt>
      <trkpt lat="49.4229" lon="1.119">
        <ele>101</ele>
        <time>2017-01-10T15:06:07Z</time>
      </trkpt>
      <trkpt lat="49.42287" lon="1.11893">
        <ele>101</ele>
        <time>2017-01-10T15:06:07Z</time>
      </trkpt>
      <trkpt lat="49.42285" lon="1.11885">
        <ele>101</ele>
        <time>2017-01-10T15:06:07Z</time>
      </trkpt>
      <trkpt lat="49.42286" lon="1.11878">
        <ele>101</ele>
        <time>2017-01-10T15:06:07Z</time>
      </trkpt>
      <trkpt lat="49.42286" lon="1.11873">
        <ele>80</ele>
        <time>2017-01-10T15:06:23Z</time>
      </trkpt>
      <trkpt lat="49.42287" lon="1.11867">
        <ele>80</ele>
        <time>2017-01-10T15:06:23Z</time>
      </trkpt>
      <trkpt lat="49.42288" lon="1.11862">
        <ele>80</ele>
        <time>2017-01-10T15:06:23Z</time>
      </trkpt>
      <trkpt lat="49.4229" lon="1.11857">
        <ele>80</ele>
        <time>2017-01-10T15:06:23Z</time>
      </trkpt>
      <trkpt lat="49.42292" lon="1.11853">
        <ele>112</ele>
        <time>2017-01-10T15:06:39Z</time>
      </trkpt>
      <trkpt lat="49.42295" lon="1.11848">
        <ele>112</ele>
        <time>2017-01-10T15:06:39Z</time>
      </trkpt>
      <trkpt lat="49.42297" lon="1.11844">
        <ele>112</ele>
        <time>2017-01-10T15:06:39Z</time>
      </trkpt>
      <trkpt lat="49.423" lon="1.1184">
        <ele>112</ele>
        <time>2017-01-10T15:06:39Z</time>
      </trkpt>
      <trkpt lat="49.42298" lon="1.11836">
        <ele>112</ele>
        <time>2017-01-10T15:06:55Z</time>
      </trkpt>
      <trkpt lat="49.42298" lon="1.11832">
        <ele>112</ele>
        <time>2017-01-10T15:06:55Z</time>
      </trkpt>
      <trkpt lat="49.42299" lon="1.11826">
        <ele>112</ele>
        <time>2017-01-10T15:06:55Z</time>
      </trkpt>
      <trkpt lat="49.42301" lon="1.1182">
        <ele>112</ele>
        <time>2017-01-10T15:06:55Z</time>
      </trkpt>
      <trkpt lat="49.42304" lon="1.11815">
        <ele>112</ele>
        <time>2017-01-10T15:07:11Z</time>
      </trkpt>
      <trkpt lat="49.42307" lon="1.1181">
        <ele>112</ele>
        <time>2017-01-10T15:07:11Z</time>
      </trkpt>
      <trkpt lat="49.4231" lon="1.11805">
        <ele>112</ele>
        <time>2017-01-10T15:07:11Z</time>
      </trkpt>
      <trkpt lat="49.42313" lon="1.118">
        <ele>112</ele>
        <time>2017-01-10T15:07:11Z</time>
      </trkpt>
      <trkpt lat="49.42315" lon="1.11794">
        <ele>112</ele>
        <time>2017-01-10T15:07:27Z</time>
      </trkpt>
      <trkpt lat="49.42318" lon="1.11789">
        <ele>90</ele>
        <time>2017-01-10T15:07:27Z</time>
      </trkpt>
      <trkpt lat="49.42322" lon="1.11785">
        <ele>90</ele>
        <time>2017-01-10T15:07:27Z</time>
      </trkpt>
      <trkpt lat="49.42327" lon="1.11783">
        <ele>90</ele>
        <time>2017-01-10T15:07:27Z</time>
      </trkpt>
      <trkpt lat="49.4233" lon="1.11779">
        <ele>90</ele>
        <time>2017-01-10T15:07:43Z</time>
      </trkpt>
      <trkpt lat="49.42334" lon="1.11775">
        <ele>90</ele>
        <time>2017-01-10T15:07:43Z</time>
      </trkpt>
      <trkpt lat="49.42339" lon="1.11773">
        <ele>90</ele>
        <time>2017-01-10T15:07:43Z</time>
      </trkpt>
      <trkpt lat="49.42343" lon="1.11772">
        <ele>90</ele>
        <time>2017-01-10T15:07:43Z</time>
      </trkpt>
      <trkpt lat="49.42347" lon="1.11767">
        <ele>90</ele>
        <time>2017-01-10T15:07:59Z</time>
      </trkpt>
      <trkpt lat="49.4235" lon="1.11763">
        <ele>90</ele>
        <time>2017-01-10T15:07:59Z</time>
      </trkpt>
      <trkpt lat="49.42354" lon="1.11759">
        <ele>90</ele>
        <time>2017-01-10T15:07:59Z</time>
      </trkpt>
      <trkpt lat="49.42357" lon="1.11754">
        <ele>90</ele>
        <time>2017-01-10T15:07:59Z</time>
      </trkpt>
      <trkpt lat="49.4236" lon="1.1175">
        <ele>90</ele>
        <time>2017-01-10T15:08:15Z</time>
      </trkpt>
      <trkpt lat="49.42362" lon="1.11744">
        <ele>90</ele>
        <time>2017-01-10T15:08:15Z</time>
      </trkpt>
      <trkpt lat="49.42363" lon="1.11738">
        <ele>90</ele>
        <time>2017-01-10T15:08:15Z</time>
      </trkpt>
      <trkpt lat="49.42366" lon="1.11733">
        <ele>90</ele>
        <time>2017-01-10T15:08:15Z</time>
      </trkpt>
      <trkpt lat="49.42369" lon="1.11728">
        <ele>90</ele>
        <time>2017-01-10T15:08:31Z</time>
      </trkpt>
      <trkpt lat="49.42373" lon="1.11723">
        <ele>90</ele>
        <time>2017-01-10T15:08:31Z</time>
      </trkpt>
      <trkpt lat="49.42376" lon="1.11718">
        <ele>119</ele>
        <time>2017-01-10T15:08:31Z</time>
      </trkpt>
      <trkpt lat="49.42379" lon="1.11715">
        <ele>119</ele>
        <time>2017-01-10T15:08:31Z</time>
      </trkpt>
      <trkpt lat="49.42382" lon="1.11711">
        <ele>119</ele>
        <time>2017-01-10T15:08:47Z</time>
      </trkpt>
      <trkpt lat="49.42387" lon="1.11711">
        <ele>119</ele>
        <time>2017-01-10T15:08:47Z</time>
      </trkpt>
      <trkpt lat="49.42391" lon="1.11707">
        <ele>90</ele>
        <time>2017-01-10T15:08:47Z</time>
      </trkpt>
      <trkpt lat="49.42394" lon="1.11702">
        <ele>90</ele>
        <time>2017-01-10T15:08:47Z</time>
      </trkpt>
      <trkpt lat="49.42398" lon="1.11699">
        <ele>90</ele>
        <time>2017-01-10T15:09:03Z</time>
      </trkpt>
      <trkpt lat="49.42401" lon="1.11695">
        <ele>90</ele>
        <time>2017-01-10T15:09:03Z</time>
      </trkpt>
      <trkpt lat="49.42405" lon="1.1169">
        <ele>90</ele>
        <time>2017-01-10T15:09:03Z</time>
      </trkpt>
      <trkpt lat="49.42407" lon="1.11686">
        <ele>90</ele>
        <time>2017-01-10T15:09:03Z</time>
      </trkpt>
      <trkpt lat="49.42411" lon="1.11685">
        <ele>90</ele>
        <time>2017-01-10T15:09:19Z</time>
      </trkpt>
      <trkpt lat="49.42415" lon="1.1168">
        <ele>90</ele>
        <time>2017-01-10T15:09:19Z</time>
      </trkpt>
      <trkpt lat="49.42418" lon="1.11675">
        <ele>90</ele>
        <time>2017-01-10T15:09:19Z</time>
      </trkpt>
      <trkpt lat="49.42421" lon="1.1167">
        <ele>90</ele>
        <time>2017-01-10T15:09:19Z</time>
      </trkpt>
      <trkpt lat="49.42425" lon="1.11667">
        <ele>90</ele>
        <time>2017-01-10T15:09:35Z</time>
      </trkpt>
      <trkpt lat="49.42429" lon="1.11663">
        <ele>90</ele>
        <time>2017-01-10T15:09:35Z</time>
      </trkpt>
      <trkpt lat="49.42432" lon="1.11659">
        <ele>90</ele>
        <time>2017-01-10T15:09:35Z</time>
      </trkpt>
      <trkpt lat="49.42436" lon="1.11656">
        <ele>90</ele>
        <time>2017-01-10T15:09:35Z</time>
      </trkpt>
      <trkpt lat="49.4244" lon="1.11654">
        <ele>90</ele>
        <time>2017-01-10T15:09:51Z</time>
      </trkpt>
      <trkpt lat="49.42444" lon="1.11651">
        <ele>90</ele>
        <time>2017-01-10T15:09:51Z</time>
      </trkpt>
      <trkpt lat="49.42448" lon="1.11647">
        <ele>90</ele>
        <time>2017-01-10T15:09:51Z</time>
      </trkpt>
      <trkpt lat="49.42452" lon="1.11643">
        <ele>90</ele>
        <time>2017-01-10T15:09:51Z</time>
      </trkpt>
      <trkpt lat="49.42456" lon="1.1164">
        <ele>90</ele>
        <time>2017-01-10T15:10:07Z</time>
      </trkpt>
      <trkpt lat="49.4246" lon="1.11638">
        <ele>117</ele>
        <time>2017-01-10T15:10:07Z</time>
      </trkpt>
      <trkpt lat="49.42465" lon="1.11638">
        <ele>117</ele>
        <time>2017-01-10T15:10:07Z</time>
      </trkpt>
      <trkpt lat="49.42469" lon="1.11633">
        <ele>117</ele>
        <time>2017-01-10T15:10:07Z</time>
      </trkpt>
      <trkpt lat="49.42471" lon="1.11627">
        <ele>117</ele>
        <time>2017-01-10T15:10:23Z</time>
      </trkpt>
      <trkpt lat="49.42474" lon="1.11623">
        <ele>81</ele>
        <time>2017-01-10T15:10:23Z</time>
      </trkpt>
      <trkpt lat="49.42477" lon="1.11618">
        <ele>81</ele>
        <time>2017-01-10T15:10:23Z</time>
      </trkpt>
      <trkpt lat="49.42481" lon="1.11614">
        <ele>81</ele>
        <time>2017-01-10T15:10:23Z</time>
      </trkpt>
      <trkpt lat="49.42483" lon="1.11609">
        <ele>81</ele>
        <time>2017-01-10T15:10:39Z</time>
      </trkpt>
      <trkpt lat="49.42485" lon="1.11605">
        <ele>81</ele>
        <time>2017-01-10T15:10:39Z</time>
      </trkpt>
      <trkpt lat="49.42489" lon="1.11601">
        <ele>81</ele>
        <time>2017-01-10T15:10:39Z</time>
      </trkpt>
      <trkpt lat="49.42492" lon="1.11597">
        <ele>81</ele>
        <time>2017-01-10T15:10:39Z</time>
      </trkpt>
      <trkpt lat="49.42496" lon="1.11593">
        <ele>81</ele>
        <time>2017-01-10T15:10:55Z</time>
      </trkpt>
      <trkpt lat="49.425" lon="1.11589">
        <ele>81</ele>
        <time>2017-01-10T15:10:55Z</time>
      </trkpt>
      <trkpt lat="49.42503" lon="1.11586">
        <ele>81</ele>
        <time>2017-01-10T15:10:55Z</time>
      </trkpt>
      <trkpt lat="49.42507" lon="1.11583">
        <ele>81</ele>
        <time>2017-01-10T15:10:55Z</time>
      </trkpt>
      <trkpt lat="49.42511" lon="1.1158">
        <ele>81</ele>
        <time>2017-01-10T15:11:11Z</time>
      </trkpt>
      <trkpt lat="49.42515" lon="1.11577">
        <ele>81</ele>
        <time>2017-01-10T15:11:11Z</time>
      </trkpt>
      <trkpt lat="49.42519" lon="1.11573">
        <ele>81</ele>
        <time>2017-01-10T15:11:11Z</time>
      </trkpt>
      <trkpt lat="49.42522" lon="1.11568">
        <ele>81</ele>
        <time>2017-01-10T15:11:11Z</time>
      </trkpt>
      <trkpt lat="49.42526" lon="1.11565">
        <ele>81</ele>
        <time>2017-01-10T15:11:27Z</time>
      </trkpt>
      <trkpt lat="49.4253" lon="1.11562">
        <ele>81</ele>
        <time>2017-01-10T15:11:27Z</time>
      </trkpt>
      <trkpt lat="49.42534" lon="1.11558">
        <ele>81</ele>
        <time>2017-01-10T15:11:27Z</time>
      </trkpt>
      <trkpt lat="49.42538" lon="1.11554">
        <ele>81</ele>
        <time>2017-01-10T15:11:27Z</time>
      </trkpt>
      <trkpt lat="49.42545" lon="1.11548">
        <ele>103</ele>
        <time>2017-01-10T15:11:43Z</time>
      </trkpt>
      <trkpt lat="49.42549" lon="1.11546">
        <ele>103</ele>
        <time>2017-01-10T15:11:43Z</time>
      </trkpt>
      <trkpt lat="49.42553" lon="1.11544">
        <ele>103</ele>
        <time>2017-01-10T15:11:43Z</time>
      </trkpt>
      <trkpt lat="49.42557" lon="1.11542">
        <ele>103</ele>
        <time>2017-01-10T15:11:43Z</time>
      </trkpt>
      <trkpt lat="49.42561" lon="1.11539">
        <ele>66</ele>
        <time>2017-01-10T15:11:59Z</time>
      </trkpt>
      <trkpt lat="49.42565" lon="1.11536">
        <ele>66</ele>
        <time>2017-01-10T15:11:59Z</time>
      </trkpt>
      <trkpt lat="49.42569" lon="1.11533">
        <ele>66</ele>
        <time>2017-01-10T15:11:59Z</time>
      </trkpt>
      <trkpt lat="49.42574" lon="1.11531">
        <ele>66</ele>
        <time>2017-01-10T15:11:59Z</time>
      </trkpt>
      <trkpt lat="49.42579" lon="1.11527">
        <ele>66</ele>
        <time>2017-01-10T15:12:15Z</time>
      </trkpt>
      <trkpt lat="49.42585" lon="1.11524">
        <ele>66</ele>
        <time>2017-01-10T15:12:15Z</time>
      </trkpt>
      <trkpt lat="49.4259" lon="1.11523">
        <ele>66</ele>
        <time>2017-01-10T15:12:15Z</time>
      </trkpt>
      <trkpt lat="49.42594" lon="1.11521">
        <ele>66</ele>
        <time>2017-01-10T15:12:15Z</time>
      </trkpt>
      <trkpt lat="49.42598" lon="1.11518">
        <ele>66</ele>
        <time>2017-01-10T15:12:31Z</time>
      </trkpt>
      <trkpt lat="49.42602" lon="1.11514">
        <ele>66</ele>
        <time>2017-01-10T15:12:31Z</time>
      </trkpt>
      <trkpt lat="49.42606" lon="1.11512">
        <ele>66</ele>
        <time>2017-01-10T15:12:31Z</time>
      </trkpt>
      <trkpt lat="49.4261" lon="1.11509">
        <ele>66</ele>
        <time>2017-01-10T15:12:31Z</time>
      </trkpt>
      <trkpt lat="49.42614" lon="1.11507">
        <ele>66</ele>
        <time>2017-01-10T15:12:47Z</time>
      </trkpt>
      <trkpt lat="49.42619" lon="1.11505">
        <ele>66</ele>
        <time>2017-01-10T15:12:47Z</time>
      </trkpt>
      <trkpt lat="49.42623" lon="1.11503">
        <ele>66</ele>
        <time>2017-01-10T15:12:47Z</time>
      </trkpt>
      <trkpt lat="49.42627" lon="1.11502">
        <ele>69</ele>
        <time>2017-01-10T15:12:47Z</time>
      </trkpt>
      <trkpt lat="49.42631" lon="1.115">
        <ele>69</ele>
        <time>2017-01-10T15:13:03Z</time>
      </trkpt>
      <trkpt lat="49.42636" lon="1.11498">
        <ele>69</ele>
        <time>2017-01-10T15:13:03Z</time>
      </trkpt>
      <trkpt lat="49.42639" lon="1.11496">
        <ele>69</ele>
        <time>2017-01-10T15:13:03Z</time>
      </trkpt>
      <trkpt lat="49.42639" lon="1.1149">
        <ele>69</ele>
        <time>2017-01-10T15:13:03Z</time>
      </trkpt>
      <trkpt lat="49.42644" lon="1.11489">
        <ele>69</ele>
        <time>2017-01-10T15:13:19Z</time>
      </trkpt>
      <trkpt lat="49.42649" lon="1.11487">
        <ele>69</ele>
        <time>2017-01-10T15:13:19Z</time>
      </trkpt>
      <trkpt lat="49.42654" lon="1.11488">
        <ele>69</ele>
        <time>2017-01-10T15:13:19Z</time>
      </trkpt>
      <trkpt lat="49.42659" lon="1.11487">
        <ele>69</ele>
        <time>2017-01-10T15:13:19Z</time>
      </trkpt>
      <trkpt lat="49.42663" lon="1.11485">
        <ele>69</ele>
        <time>2017-01-10T15:13:35Z</time>
      </trkpt>
      <trkpt lat="49.42667" lon="1.11484">
        <ele>69</ele>
        <time>2017-01-10T15:13:35Z</time>
      </trkpt>
      <trkpt lat="49.42672" lon="1.11486">
        <ele>69</ele>
        <time>2017-01-10T15:13:35Z</time>
      </trkpt>
      <trkpt lat="49.42676" lon="1.11488">
        <ele>69</ele>
        <time>2017-01-10T15:13:35Z</time>
      </trkpt>
      <trkpt lat="49.4268" lon="1.11492">
        <ele>69</ele>
        <time>2017-01-10T15:13:51Z</time>
      </trkpt>
      <trkpt lat="49.42686" lon="1.11508">
        <ele>69</ele>
        <time>2017-01-10T15:13:51Z</time>
      </trkpt>
      <trkpt lat="49.42689" lon="1.11519">
        <ele>69</ele>
        <time>2017-01-10T15:13:51Z</time>
      </trkpt>
      <trkpt lat="49.42691" lon="1.11526">
        <ele>69</ele>
        <time>2017-01-10T15:13:51Z</time>
      </trkpt>
      <trkpt lat="49.42693" lon="1.11533">
        <ele>69</ele>
        <time>2017-01-10T15:14:07Z</time>
      </trkpt>
      <trkpt lat="49.42697" lon="1.11537">
        <ele>69</ele>
        <time>2017-01-10T15:14:07Z</time>
      </trkpt>
      <trkpt lat="49.427" lon="1.11542">
        <ele>69</ele>
        <time>2017-01-10T15:14:07Z</time>
      </trkpt>
      <trkpt lat="49.42703" lon="1.11547">
        <ele>81</ele>
        <time>2017-01-10T15:14:07Z</time>
      </trkpt>
      <trkpt lat="49.42705" lon="1.11558">
        <ele>81</ele>
        <time>2017-01-10T15:14:23Z</time>
      </trkpt>
      <trkpt lat="49.42709" lon="1.11564">
        <ele>54</ele>
        <time>2017-01-10T15:14:23Z</time>
      </trkpt>
      <trkpt lat="49.4271" lon="1.11571">
        <ele>54</ele>
        <time>2017-01-10T15:14:23Z</time>
      </trkpt>
      <trkpt lat="49.42712" lon="1.11578">
        <ele>54</ele>
        <time>2017-01-10T15:14:23Z</time>
      </trkpt>
      <trkpt lat="49.42712" lon="1.11587">
        <ele>54</ele>
        <time>2017-01-10T15:14:39Z</time>
      </trkpt>
      <trkpt lat="49.42714" lon="1.11596">
        <ele>54</ele>
        <time>2017-01-10T15:14:39Z</time>
      </trkpt>
      <trkpt lat="49.42716" lon="1.11603">
        <ele>54</ele>
        <time>2017-01-10T15:14:39Z</time>
      </trkpt>
      <trkpt lat="49.42717" lon="1.1161">
        <ele>54</ele>
        <time>2017-01-10T15:14:39Z</time>
      </trkpt>
      <trkpt lat="49.42719" lon="1.11618">
        <ele>54</ele>
        <time>2017-01-10T15:14:55Z</time>
      </trkpt>
      <trkpt lat="49.42719" lon="1.11626">
        <ele>63</ele>
        <time>2017-01-10T15:14:55Z</time>
      </trkpt>
      <trkpt lat="49.42719" lon="1.11635">
        <ele>63</ele>
        <time>2017-01-10T15:14:55Z</time>
      </trkpt>
      <trkpt lat="49.4272" lon="1.11641">
        <ele>63</ele>
        <time>2017-01-10T15:14:55Z</time>
      </trkpt>
      <trkpt lat="49.42722" lon="1.11647">
        <ele>63</ele>
        <time>2017-01-10T15:15:11Z</time>
      </trkpt>
      <trkpt lat="49.42725" lon="1.11653">
        <ele>63</ele>
        <time>2017-01-10T15:15:11Z</time>
      </trkpt>
      <trkpt lat="49.42727" lon="1.11658">
        <ele>63</ele>
        <time>2017-01-10T15:15:11Z</time>
      </trkpt>
      <trkpt lat="49.42729" lon="1.11663">
        <ele>63</ele>
        <time>2017-01-10T15:15:11Z</time>
      </trkpt>
      <trkpt lat="49.42732" lon="1.11667">
        <ele>63</ele>
        <time>2017-01-10T15:15:27Z</time>
      </trkpt>
      <trkpt lat="49.42734" lon="1.11672">
        <ele>63</ele>
        <time>2017-01-10T15:15:27Z</time>
      </trkpt>
      <trkpt lat="49.42738" lon="1.11676">
        <ele>63</ele>
        <time>2017-01-10T15:15:27Z</time>
      </trkpt>
      <trkpt lat="49.42741" lon="1.11682">
        <ele>63</ele>
        <time>2017-01-10T15:15:27Z</time>
      </trkpt>
      <trkpt lat="49.42744" lon="1.11687">
        <ele>63</ele>
        <time>2017-01-10T15:15:43Z</time>
      </trkpt>
      <trkpt lat="49.42748" lon="1.1169">
        <ele>63</ele>
        <time>2017-01-10T15:15:43Z</time>
      </trkpt>
      <trkpt lat="49.42752" lon="1.1169">
        <ele>63</ele>
        <time>2017-01-10T15:15:43Z</time>
      </trkpt>
      <trkpt lat="49.42755" lon="1.11692">
        <ele>63</ele>
        <time>2017-01-10T15:15:43Z</time>
      </trkpt>
      <trkpt lat="49.42759" lon="1.11694">
        <ele>63</ele>
        <time>2017-01-10T15:15:59Z</time>
      </trkpt>
      <trkpt lat="49.42763" lon="1.11695">
        <ele>63</ele>
        <time>2017-01-10T15:15:59Z</time>
      </trkpt>
      <trkpt lat="49.42768" lon="1.11696">
        <ele>63</ele>
        <time>2017-01-10T15:15:59Z</time>
      </trkpt>
      <trkpt lat="49.42772" lon="1.11695">
        <ele>63</ele>
        <time>2017-01-10T15:15:59Z</time>
      </trkpt>
      <trkpt lat="49.4277" lon="1.11701">
        <ele>63</ele>
        <time>2017-01-10T15:16:31Z</time>
      </trkpt>
      <trkpt lat="49.42774" lon="1.11698">
        <ele>63</ele>
        <time>2017-01-10T15:16:31Z</time>
      </trkpt>
      <trkpt lat="49.42779" lon="1.11695">
        <ele>63</ele>
        <time>2017-01-10T15:16:31Z</time>
      </trkpt>
      <trkpt lat="49.42783" lon="1.11694">
        <ele>63</ele>
        <time>2017-01-10T15:16:31Z</time>
      </trkpt>
      <trkpt lat="49.42787" lon="1.1169">
        <ele>63</ele>
        <time>2017-01-10T15:16:31Z</time>
      </trkpt>
      <trkpt lat="49.42789" lon="1.11685">
        <ele>63</ele>
        <time>2017-01-10T15:16:47Z</time>
      </trkpt>
      <trkpt lat="49.42793" lon="1.11682">
        <ele>74</ele>
        <time>2017-01-10T15:16:47Z</time>
      </trkpt>
      <trkpt lat="49.42797" lon="1.11679">
        <ele>74</ele>
        <time>2017-01-10T15:16:47Z</time>
      </trkpt>
      <trkpt lat="49.428" lon="1.11677">
        <ele>74</ele>
        <time>2017-01-10T15:16:47Z</time>
      </trkpt>
      <trkpt lat="49.42805" lon="1.11677">
        <ele>74</ele>
        <time>2017-01-10T15:17:07Z</time>
      </trkpt>
      <trkpt lat="49.42804" lon="1.11677">
        <ele>74</ele>
        <time>2017-01-10T15:17:07Z</time>
      </trkpt>
      <trkpt lat="49.42804" lon="1.11671">
        <ele>74</ele>
        <time>2017-01-10T15:17:07Z</time>
      </trkpt>
      <trkpt lat="49.42803" lon="1.11665">
        <ele>74</ele>
        <time>2017-01-10T15:17:07Z</time>
      </trkpt>
      <trkpt lat="49.42802" lon="1.1166">
        <ele>74</ele>
        <time>2017-01-10T15:17:07Z</time>
      </trkpt>
      <trkpt lat="49.42805" lon="1.11653">
        <ele>74</ele>
        <time>2017-01-10T15:17:39Z</time>
      </trkpt>
      <trkpt lat="49.42805" lon="1.11653">
        <ele>74</ele>
        <time>2017-01-10T15:17:39Z</time>
      </trkpt>
      <trkpt lat="49.42806" lon="1.11649">
        <ele>74</ele>
        <time>2017-01-10T15:17:39Z</time>
      </trkpt>
      <trkpt lat="49.42809" lon="1.11644">
        <ele>74</ele>
        <time>2017-01-10T15:17:39Z</time>
      </trkpt>
      <trkpt lat="49.42812" lon="1.1164">
        <ele>74</ele>
        <time>2017-01-10T15:17:39Z</time>
      </trkpt>
      <trkpt lat="49.42817" lon="1.11638">
        <ele>74</ele>
        <time>2017-01-10T15:17:55Z</time>
      </trkpt>
      <trkpt lat="49.42825" lon="1.11624">
        <ele>66</ele>
        <time>2017-01-10T15:17:55Z</time>
      </trkpt>
      <trkpt lat="49.4283" lon="1.11616">
        <ele>66</ele>
        <time>2017-01-10T15:17:55Z</time>
      </trkpt>
      <trkpt lat="49.42832" lon="1.11613">
        <ele>66</ele>
        <time>2017-01-10T15:17:55Z</time>
      </trkpt>
      <trkpt lat="49.42834" lon="1.11606">
        <ele>66</ele>
        <time>2017-01-10T15:18:11Z</time>
      </trkpt>
      <trkpt lat="49.42834" lon="1.11599">
        <ele>66</ele>
        <time>2017-01-10T15:18:11Z</time>
      </trkpt>
      <trkpt lat="49.42832" lon="1.11594">
        <ele>66</ele>
        <time>2017-01-10T15:18:11Z</time>
      </trkpt>
      <trkpt lat="49.42831" lon="1.11589">
        <ele>66</ele>
        <time>2017-01-10T15:18:11Z</time>
      </trkpt>
      <trkpt lat="49.42831" lon="1.11584">
        <ele>66</ele>
        <time>2017-01-10T15:18:27Z</time>
      </trkpt>
      <trkpt lat="49.42829" lon="1.11578">
        <ele>66</ele>
        <time>2017-01-10T15:18:27Z</time>
      </trkpt>
      <trkpt lat="49.42828" lon="1.11572">
        <ele>66</ele>
        <time>2017-01-10T15:18:27Z</time>
      </trkpt>
      <trkpt lat="49.42827" lon="1.11566">
        <ele>66</ele>
        <time>2017-01-10T15:18:27Z</time>
      </trkpt>
      <trkpt lat="49.42827" lon="1.11559">
        <ele>66</ele>
        <time>2017-01-10T15:18:43Z</time>
      </trkpt>
      <trkpt lat="49.42829" lon="1.11553">
        <ele>66</ele>
        <time>2017-01-10T15:18:43Z</time>
      </trkpt>
      <trkpt lat="49.42829" lon="1.11547">
        <ele>66</ele>
        <time>2017-01-10T15:18:43Z</time>
      </trkpt>
      <trkpt lat="49.42828" lon="1.1154">
        <ele>59</ele>
        <time>2017-01-10T15:18:43Z</time>
      </trkpt>
      <trkpt lat="49.42831" lon="1.11533">
        <ele>59</ele>
        <time>2017-01-10T15:18:59Z</time>
      </trkpt>
      <trkpt lat="49.42833" lon="1.1153">
        <ele>59</ele>
        <time>2017-01-10T15:18:59Z</time>
      </trkpt>
      <trkpt lat="49.42833" lon="1.11526">
        <ele>59</ele>
        <time>2017-01-10T15:18:59Z</time>
      </trkpt>
      <trkpt lat="49.42835" lon="1.11518">
        <ele>59</ele>
        <time>2017-01-10T15:18:59Z</time>
      </trkpt>
      <trkpt lat="49.42836" lon="1.11507">
        <ele>59</ele>
        <time>2017-01-10T15:19:15Z</time>
      </trkpt>
      <trkpt lat="49.42837" lon="1.11501">
        <ele>59</ele>
        <time>2017-01-10T15:19:15Z</time>
      </trkpt>
      <trkpt lat="49.4284" lon="1.11494">
        <ele>59</ele>
        <time>2017-01-10T15:19:15Z</time>
      </trkpt>
      <trkpt lat="49.42842" lon="1.11486">
        <ele>59</ele>
        <time>2017-01-10T15:19:15Z</time>
      </trkpt>
      <trkpt lat="49.42843" lon="1.11481">
        <ele>59</ele>
        <time>2017-01-10T15:19:31Z</time>
      </trkpt>
      <trkpt lat="49.42846" lon="1.11475">
        <ele>59</ele>
        <time>2017-01-10T15:19:31Z</time>
      </trkpt>
      <trkpt lat="49.42849" lon="1.11469">
        <ele>59</ele>
        <time>2017-01-10T15:19:31Z</time>
      </trkpt>
      <trkpt lat="49.42852" lon="1.11464">
        <ele>59</ele>
        <time>2017-01-10T15:19:31Z</time>
      </trkpt>
      <trkpt lat="49.42857" lon="1.11464">
        <ele>59</ele>
        <time>2017-01-10T15:19:47Z</time>
      </trkpt>
      <trkpt lat="49.42861" lon="1.1146">
        <ele>59</ele>
        <time>2017-01-10T15:19:47Z</time>
      </trkpt>
      <trkpt lat="49.42864" lon="1.11455">
        <ele>47</ele>
        <time>2017-01-10T15:19:47Z</time>
      </trkpt>
      <trkpt lat="49.42867" lon="1.11451">
        <ele>47</ele>
        <time>2017-01-10T15:19:47Z</time>
      </trkpt>
      <trkpt lat="49.42869" lon="1.11447">
        <ele>47</ele>
        <time>2017-01-10T15:20:03Z</time>
      </trkpt>
      <trkpt lat="49.42871" lon="1.11442">
        <ele>47</ele>
        <time>2017-01-10T15:20:03Z</time>
      </trkpt>
      <trkpt lat="49.42874" lon="1.11436">
        <ele>47</ele>
        <time>2017-01-10T15:20:03Z</time>
      </trkpt>
      <trkpt lat="49.42877" lon="1.11431">
        <ele>68</ele>
        <time>2017-01-10T15:20:03Z</time>
      </trkpt>
      <trkpt lat="49.42881" lon="1.11428">
        <ele>68</ele>
        <time>2017-01-10T15:20:23Z</time>
      </trkpt>
      <trkpt lat="49.42883" lon="1.1143">
        <ele>68</ele>
        <time>2017-01-10T15:20:23Z</time>
      </trkpt>
      <trkpt lat="49.42883" lon="1.11422">
        <ele>68</ele>
        <time>2017-01-10T15:20:23Z</time>
      </trkpt>
      <trkpt lat="49.42883" lon="1.11416">
        <ele>68</ele>
        <time>2017-01-10T15:20:23Z</time>
      </trkpt>
      <trkpt lat="49.42885" lon="1.11413">
        <ele>68</ele>
        <time>2017-01-10T15:20:23Z</time>
      </trkpt>
      <trkpt lat="49.42889" lon="1.1141">
        <ele>68</ele>
        <time>2017-01-10T15:20:39Z</time>
      </trkpt>
      <trkpt lat="49.42891" lon="1.11407">
        <ele>68</ele>
        <time>2017-01-10T15:20:39Z</time>
      </trkpt>
      <trkpt lat="49.42894" lon="1.11404">
        <ele>68</ele>
        <time>2017-01-10T15:20:39Z</time>
      </trkpt>
      <trkpt lat="49.42895" lon="1.11399">
        <ele>68</ele>
        <time>2017-01-10T15:20:39Z</time>
      </trkpt>
      <trkpt lat="49.42897" lon="1.11394">
        <ele>68</ele>
        <time>2017-01-10T15:20:55Z</time>
      </trkpt>
      <trkpt lat="49.42899" lon="1.11389">
        <ele>68</ele>
        <time>2017-01-10T15:20:55Z</time>
      </trkpt>
      <trkpt lat="49.42902" lon="1.11384">
        <ele>68</ele>
        <time>2017-01-10T15:20:55Z</time>
      </trkpt>
      <trkpt lat="49.42905" lon="1.1138">
        <ele>68</ele>
        <time>2017-01-10T15:20:55Z</time>
      </trkpt>
      <trkpt lat="49.42907" lon="1.11377">
        <ele>68</ele>
        <time>2017-01-10T15:21:11Z</time>
      </trkpt>
      <trkpt lat="49.4291" lon="1.11373">
        <ele>56</ele>
        <time>2017-01-10T15:21:11Z</time>
      </trkpt>
      <trkpt lat="49.42913" lon="1.11367">
        <ele>56</ele>
        <time>2017-01-10T15:21:11Z</time>
      </trkpt>
      <trkpt lat="49.42915" lon="1.11365">
        <ele>56</ele>
        <time>2017-01-10T15:21:11Z</time>
      </trkpt>
      <trkpt lat="49.42917" lon="1.11362">
        <ele>56</ele>
        <time>2017-01-10T15:21:27Z</time>
      </trkpt>
      <trkpt lat="49.4292" lon="1.11358">
        <ele>56</ele>
        <time>2017-01-10T15:21:27Z</time>
      </trkpt>
      <trkpt lat="49.42925" lon="1.11354">
        <ele>56</ele>
        <time>2017-01-10T15:21:27Z</time>
      </trkpt>
      <trkpt lat="49.42929" lon="1.11349">
        <ele>56</ele>
        <time>2017-01-10T15:21:27Z</time>
      </trkpt>
      <trkpt lat="49.42932" lon="1.11345">
        <ele>56</ele>
        <time>2017-01-10T15:21:43Z</time>
      </trkpt>
      <trkpt lat="49.42936" lon="1.11343">
        <ele>56</ele>
        <time>2017-01-10T15:21:43Z</time>
      </trkpt>
      <trkpt lat="49.4294" lon="1.11341">
        <ele>56</ele>
        <time>2017-01-10T15:21:43Z</time>
      </trkpt>
      <trkpt lat="49.42942" lon="1.11337">
        <ele>56</ele>
        <time>2017-01-10T15:21:43Z</time>
      </trkpt>
      <trkpt lat="49.42946" lon="1.11334">
        <ele>56</ele>
        <time>2017-01-10T15:21:59Z</time>
      </trkpt>
      <trkpt lat="49.42949" lon="1.11331">
        <ele>56</ele>
        <time>2017-01-10T15:21:59Z</time>
      </trkpt>
      <trkpt lat="49.42953" lon="1.11327">
        <ele>56</ele>
        <time>2017-01-10T15:21:59Z</time>
      </trkpt>
      <trkpt lat="49.42957" lon="1.11326">
        <ele>56</ele>
        <time>2017-01-10T15:21:59Z</time>
      </trkpt>
      <trkpt lat="49.42959" lon="1.11331">
        <ele>83</ele>
        <time>2017-01-10T15:22:15Z</time>
      </trkpt>
      <trkpt lat="49.4296" lon="1.11338">
        <ele>83</ele>
        <time>2017-01-10T15:22:15Z</time>
      </trkpt>
      <trkpt lat="49.42958" lon="1.11348">
        <ele>56</ele>
        <time>2017-01-10T15:22:15Z</time>
      </trkpt>
      <trkpt lat="49.42958" lon="1.11354">
        <ele>56</ele>
        <time>2017-01-10T15:22:15Z</time>
      </trkpt>
      <trkpt lat="49.42956" lon="1.11358">
        <ele>56</ele>
        <time>2017-01-10T15:22:31Z</time>
      </trkpt>
      <trkpt lat="49.42953" lon="1.11362">
        <ele>56</ele>
        <time>2017-01-10T15:22:31Z</time>
      </trkpt>
      <trkpt lat="49.42951" lon="1.11366">
        <ele>56</ele>
        <time>2017-01-10T15:22:31Z</time>
      </trkpt>
      <trkpt lat="49.42948" lon="1.1137">
        <ele>56</ele>
        <time>2017-01-10T15:22:31Z</time>
      </trkpt>
      <trkpt lat="49.42945" lon="1.11374">
        <ele>56</ele>
        <time>2017-01-10T15:22:47Z</time>
      </trkpt>
      <trkpt lat="49.42944" lon="1.1138">
        <ele>68</ele>
        <time>2017-01-10T15:22:47Z</time>
      </trkpt>
      <trkpt lat="49.42943" lon="1.11386">
        <ele>68</ele>
        <time>2017-01-10T15:22:47Z</time>
      </trkpt>
      <trkpt lat="49.42943" lon="1.11393">
        <ele>68</ele>
        <time>2017-01-10T15:22:47Z</time>
      </trkpt>
      <trkpt lat="49.42942" lon="1.11398">
        <ele>68</ele>
        <time>2017-01-10T15:23:03Z</time>
      </trkpt>
      <trkpt lat="49.42942" lon="1.11402">
        <ele>68</ele>
        <time>2017-01-10T15:23:03Z</time>
      </trkpt>
      <trkpt lat="49.4294" lon="1.11406">
        <ele>68</ele>
        <time>2017-01-10T15:23:03Z</time>
      </trkpt>
      <trkpt lat="49.42938" lon="1.11412">
        <ele>68</ele>
        <time>2017-01-10T15:23:03Z</time>
      </trkpt>
      <trkpt lat="49.42937" lon="1.11418">
        <ele>68</ele>
        <time>2017-01-10T15:23:19Z</time>
      </trkpt>
      <trkpt lat="49.42936" lon="1.11422">
        <ele>68</ele>
        <time>2017-01-10T15:23:19Z</time>
      </trkpt>
      <trkpt lat="49.42935" lon="1.11426">
        <ele>68</ele>
        <time>2017-01-10T15:23:19Z</time>
      </trkpt>
      <trkpt lat="49.42935" lon="1.11432">
        <ele>68</ele>
        <time>2017-01-10T15:23:19Z</time>
      </trkpt>
      <trkpt lat="49.42935" lon="1.11438">
        <ele>68</ele>
        <time>2017-01-10T15:23:35Z</time>
      </trkpt>
      <trkpt lat="49.42936" lon="1.11444">
        <ele>68</ele>
        <time>2017-01-10T15:23:35Z</time>
      </trkpt>
      <trkpt lat="49.42934" lon="1.11449">
        <ele>68</ele>
        <time>2017-01-10T15:23:35Z</time>
      </trkpt>
      <trkpt lat="49.42933" lon="1.11453">
        <ele>68</ele>
        <time>2017-01-10T15:23:35Z</time>
      </trkpt>
      <trkpt lat="49.42931" lon="1.11457">
        <ele>68</ele>
        <time>2017-01-10T15:23:51Z</time>
      </trkpt>
      <trkpt lat="49.42929" lon="1.11462">
        <ele>81</ele>
        <time>2017-01-10T15:23:51Z</time>
      </trkpt>
      <trkpt lat="49.42927" lon="1.11468">
        <ele>81</ele>
        <time>2017-01-10T15:23:51Z</time>
      </trkpt>
      <trkpt lat="49.42926" lon="1.11473">
        <ele>81</ele>
        <time>2017-01-10T15:23:51Z</time>
      </trkpt>
      <trkpt lat="49.42924" lon="1.11479">
        <ele>81</ele>
        <time>2017-01-10T15:24:07Z</time>
      </trkpt>
      <trkpt lat="49.42923" lon="1.11485">
        <ele>81</ele>
        <time>2017-01-10T15:24:07Z</time>
      </trkpt>
      <trkpt lat="49.42922" lon="1.11489">
        <ele>81</ele>
        <time>2017-01-10T15:24:07Z</time>
      </trkpt>
      <trkpt lat="49.42921" lon="1.11494">
        <ele>81</ele>
        <time>2017-01-10T15:24:07Z</time>
      </trkpt>
      <trkpt lat="49.4292" lon="1.115">
        <ele>81</ele>
        <time>2017-01-10T15:24:23Z</time>
      </trkpt>
      <trkpt lat="49.4292" lon="1.11504">
        <ele>81</ele>
        <time>2017-01-10T15:24:23Z</time>
      </trkpt>
      <trkpt lat="49.42919" lon="1.11509">
        <ele>81</ele>
        <time>2017-01-10T15:24:23Z</time>
      </trkpt>
      <trkpt lat="49.42918" lon="1.11513">
        <ele>81</ele>
        <time>2017-01-10T15:24:23Z</time>
      </trkpt>
      <trkpt lat="49.42916" lon="1.11517">
        <ele>81</ele>
        <time>2017-01-10T15:24:39Z</time>
      </trkpt>
      <trkpt lat="49.42913" lon="1.11523">
        <ele>81</ele>
        <time>2017-01-10T15:24:39Z</time>
      </trkpt>
      <trkpt lat="49.42911" lon="1.1153">
        <ele>81</ele>
        <time>2017-01-10T15:24:39Z</time>
      </trkpt>
      <trkpt lat="49.4291" lon="1.11535">
        <ele>81</ele>
        <time>2017-01-10T15:24:39Z</time>
      </trkpt>
      <trkpt lat="49.42907" lon="1.11538">
        <ele>81</ele>
        <time>2017-01-10T15:24:55Z</time>
      </trkpt>
      <trkpt lat="49.42906" lon="1.11543">
        <ele>93</ele>
        <time>2017-01-10T15:24:55Z</time>
      </trkpt>
      <trkpt lat="49.42905" lon="1.11548">
        <ele>93</ele>
        <time>2017-01-10T15:24:55Z</time>
      </trkpt>
      <trkpt lat="49.42905" lon="1.11554">
        <ele>93</ele>
        <time>2017-01-10T15:24:55Z</time>
      </trkpt>
      <trkpt lat="49.42904" lon="1.11559">
        <ele>93</ele>
        <time>2017-01-10T15:25:11Z</time>
      </trkpt>
      <trkpt lat="49.42904" lon="1.11565">
        <ele>93</ele>
        <time>2017-01-10T15:25:11Z</time>
      </trkpt>
      <trkpt lat="49.42903" lon="1.11571">
        <ele>93</ele>
        <time>2017-01-10T15:25:11Z</time>
      </trkpt>
      <trkpt lat="49.42901" lon="1.11576">
        <ele>93</ele>
        <time>2017-01-10T15:25:11Z</time>
      </trkpt>
      <trkpt lat="49.429" lon="1.11583">
        <ele>93</ele>
        <time>2017-01-10T15:25:27Z</time>
      </trkpt>
      <trkpt lat="49.429" lon="1.11589">
        <ele>93</ele>
        <time>2017-01-10T15:25:27Z</time>
      </trkpt>
      <trkpt lat="49.42897" lon="1.11594">
        <ele>93</ele>
        <time>2017-01-10T15:25:27Z</time>
      </trkpt>
      <trkpt lat="49.42896" lon="1.11598">
        <ele>93</ele>
        <time>2017-01-10T15:25:27Z</time>
      </trkpt>
      <trkpt lat="49.42895" lon="1.11604">
        <ele>93</ele>
        <time>2017-01-10T15:25:43Z</time>
      </trkpt>
      <trkpt lat="49.42895" lon="1.1161">
        <ele>93</ele>
        <time>2017-01-10T15:25:43Z</time>
      </trkpt>
      <trkpt lat="49.42894" lon="1.11616">
        <ele>93</ele>
        <time>2017-01-10T15:25:43Z</time>
      </trkpt>
      <trkpt lat="49.42893" lon="1.1162">
        <ele>93</ele>
        <time>2017-01-10T15:25:43Z</time>
      </trkpt>
      <trkpt lat="49.42892" lon="1.11625">
        <ele>93</ele>
        <time>2017-01-10T15:25:59Z</time>
      </trkpt>
      <trkpt lat="49.42891" lon="1.11629">
        <ele>105</ele>
        <time>2017-01-10T15:25:59Z</time>
      </trkpt>
      <trkpt lat="49.4289" lon="1.11634">
        <ele>105</ele>
        <time>2017-01-10T15:25:59Z</time>
      </trkpt>
      <trkpt lat="49.42889" lon="1.11638">
        <ele>105</ele>
        <time>2017-01-10T15:25:59Z</time>
      </trkpt>
      <trkpt lat="49.42889" lon="1.11643">
        <ele>105</ele>
        <time>2017-01-10T15:26:15Z</time>
      </trkpt>
      <trkpt lat="49.42888" lon="1.11647">
        <ele>105</ele>
        <time>2017-01-10T15:26:15Z</time>
      </trkpt>
      <trkpt lat="49.42885" lon="1.11652">
        <ele>105</ele>
        <time>2017-01-10T15:26:15Z</time>
      </trkpt>
      <trkpt lat="49.42885" lon="1.11658">
        <ele>105</ele>
        <time>2017-01-10T15:26:15Z</time>
      </trkpt>
      <trkpt lat="49.42885" lon="1.11662">
        <ele>105</ele>
        <time>2017-01-10T15:26:35Z</time>
      </trkpt>
      <trkpt lat="49.42885" lon="1.11666">
        <ele>105</ele>
        <time>2017-01-10T15:26:35Z</time>
      </trkpt>
      <trkpt lat="49.42887" lon="1.11669">
        <ele>105</ele>
        <time>2017-01-10T15:26:35Z</time>
      </trkpt>
      <trkpt lat="49.42886" lon="1.11674">
        <ele>105</ele>
        <time>2017-01-10T15:26:35Z</time>
      </trkpt>
      <trkpt lat="49.42887" lon="1.1168">
        <ele>105</ele>
        <time>2017-01-10T15:26:35Z</time>
      </trkpt>
      <trkpt lat="49.42884" lon="1.11687">
        <ele>105</ele>
        <time>2017-01-10T15:27:11Z</time>
      </trkpt>
      <trkpt lat="49.42884" lon="1.11691">
        <ele>105</ele>
        <time>2017-01-10T15:27:11Z</time>
      </trkpt>
      <trkpt lat="49.42884" lon="1.11695">
        <ele>105</ele>
        <time>2017-01-10T15:27:11Z</time>
      </trkpt>
      <trkpt lat="49.42877" lon="1.11695">
        <ele>105</ele>
        <time>2017-01-10T15:27:11Z</time>
      </trkpt>
      <trkpt lat="49.42875" lon="1.11706">
        <ele>105</ele>
        <time>2017-01-10T15:27:11Z</time>
      </trkpt>
      <trkpt lat="49.42875" lon="1.11714">
        <ele>115</ele>
        <time>2017-01-10T15:27:31Z</time>
      </trkpt>
      <trkpt lat="49.42877" lon="1.1172">
        <ele>115</ele>
        <time>2017-01-10T15:27:31Z</time>
      </trkpt>
      <trkpt lat="49.42878" lon="1.11723">
        <ele>115</ele>
        <time>2017-01-10T15:27:31Z</time>
      </trkpt>
      <trkpt lat="49.42877" lon="1.11726">
        <ele>115</ele>
        <time>2017-01-10T15:27:31Z</time>
      </trkpt>
      <trkpt lat="49.42878" lon="1.1173">
        <ele>115</ele>
        <time>2017-01-10T15:27:31Z</time>
      </trkpt>
      <trkpt lat="49.42877" lon="1.11734">
        <ele>115</ele>
        <time>2017-01-10T15:27:47Z</time>
      </trkpt>
      <trkpt lat="49.42879" lon="1.11739">
        <ele>115</ele>
        <time>2017-01-10T15:27:47Z</time>
      </trkpt>
      <trkpt lat="49.42877" lon="1.11746">
        <ele>115</ele>
        <time>2017-01-10T15:27:47Z</time>
      </trkpt>
      <trkpt lat="49.42876" lon="1.11751">
        <ele>115</ele>
        <time>2017-01-10T15:27:47Z</time>
      </trkpt>
      <trkpt lat="49.42875" lon="1.11756">
        <ele>81</ele>
        <time>2017-01-10T15:28:07Z</time>
      </trkpt>
      <trkpt lat="49.42874" lon="1.11763">
        <ele>81</ele>
        <time>2017-01-10T15:28:07Z</time>
      </trkpt>
      <trkpt lat="49.42873" lon="1.11766">
        <ele>81</ele>
        <time>2017-01-10T15:28:07Z</time>
      </trkpt>
      <trkpt lat="49.42875" lon="1.11767">
        <ele>81</ele>
        <time>2017-01-10T15:28:07Z</time>
      </trkpt>
      <trkpt lat="49.42874" lon="1.1177">
        <ele>81</ele>
        <time>2017-01-10T15:28:07Z</time>
      </trkpt>
      <trkpt lat="49.42874" lon="1.11776">
        <ele>81</ele>
        <time>2017-01-10T15:28:23Z</time>
      </trkpt>
      <trkpt lat="49.42872" lon="1.11782">
        <ele>81</ele>
        <time>2017-01-10T15:28:23Z</time>
      </trkpt>
      <trkpt lat="49.42873" lon="1.11787">
        <ele>81</ele>
        <time>2017-01-10T15:28:23Z</time>
      </trkpt>
      <trkpt lat="49.42876" lon="1.11792">
        <ele>119</ele>
        <time>2017-01-10T15:28:23Z</time>
      </trkpt>
      <trkpt lat="49.42881" lon="1.11801">
        <ele>119</ele>
        <time>2017-01-10T15:28:47Z</time>
      </trkpt>
      <trkpt lat="49.42883" lon="1.11804">
        <ele>119</ele>
        <time>2017-01-10T15:28:47Z</time>
      </trkpt>
      <trkpt lat="49.42882" lon="1.11807">
        <ele>119</ele>
        <time>2017-01-10T15:28:47Z</time>
      </trkpt>
      <trkpt lat="49.42882" lon="1.11809">
        <ele>119</ele>
        <time>2017-01-10T15:28:47Z</time>
      </trkpt>
      <trkpt lat="49.42883" lon="1.11813">
        <ele>119</ele>
        <time>2017-01-10T15:28:47Z</time>
      </trkpt>
      <trkpt lat="49.42882" lon="1.11819">
        <ele>119</ele>
        <time>2017-01-10T15:29:23Z</time>
      </trkpt>
      <trkpt lat="49.42885" lon="1.11821">
        <ele>119</ele>
        <time>2017-01-10T15:29:23Z</time>
      </trkpt>
      <trkpt lat="49.42889" lon="1.11818">
        <ele>119</ele>
        <time>2017-01-10T15:29:23Z</time>
      </trkpt>
      <trkpt lat="49.42891" lon="1.11813">
        <ele>119</ele>
        <time>2017-01-10T15:29:23Z</time>
      </trkpt>
      <trkpt lat="49.42894" lon="1.11808">
        <ele>119</ele>
        <time>2017-01-10T15:29:23Z</time>
      </trkpt>
      <trkpt lat="49.42897" lon="1.11805">
        <ele>119</ele>
        <time>2017-01-10T15:29:43Z</time>
      </trkpt>
      <trkpt lat="49.42899" lon="1.11803">
        <ele>119</ele>
        <time>2017-01-10T15:29:43Z</time>
      </trkpt>
      <trkpt lat="49.42898" lon="1.11797">
        <ele>119</ele>
        <time>2017-01-10T15:29:43Z</time>
      </trkpt>
      <trkpt lat="49.429" lon="1.11793">
        <ele>119</ele>
        <time>2017-01-10T15:29:43Z</time>
      </trkpt>
      <trkpt lat="49.429" lon="1.11789">
        <ele>115</ele>
        <time>2017-01-10T15:29:43Z</time>
      </trkpt>
      <trkpt lat="49.429" lon="1.11785">
        <ele>115</ele>
        <time>2017-01-10T15:29:59Z</time>
      </trkpt>
      <trkpt lat="49.429" lon="1.11779">
        <ele>115</ele>
        <time>2017-01-10T15:29:59Z</time>
      </trkpt>
      <trkpt lat="49.429" lon="1.11773">
        <ele>115</ele>
        <time>2017-01-10T15:29:59Z</time>
      </trkpt>
      <trkpt lat="49.42902" lon="1.11768">
        <ele>115</ele>
        <time>2017-01-10T15:29:59Z</time>
      </trkpt>
      <trkpt lat="49.42903" lon="1.11763">
        <ele>115</ele>
        <time>2017-01-10T15:30:19Z</time>
      </trkpt>
      <trkpt lat="49.42905" lon="1.11758">
        <ele>115</ele>
        <time>2017-01-10T15:30:19Z</time>
      </trkpt>
      <trkpt lat="49.42906" lon="1.11754">
        <ele>115</ele>
        <time>2017-01-10T15:30:19Z</time>
      </trkpt>
      <trkpt lat="49.42907" lon="1.11751">
        <ele>115</ele>
        <time>2017-01-10T15:30:19Z</time>
      </trkpt>
      <trkpt lat="49.42909" lon="1.11746">
        <ele>115</ele>
        <time>2017-01-10T15:30:19Z</time>
      </trkpt>
      <trkpt lat="49.42911" lon="1.11741">
        <ele>115</ele>
        <time>2017-01-10T15:30:35Z</time>
      </trkpt>
      <trkpt lat="49.42911" lon="1.11735">
        <ele>115</ele>
        <time>2017-01-10T15:30:35Z</time>
      </trkpt>
      <trkpt lat="49.42913" lon="1.1173">
        <ele>115</ele>
        <time>2017-01-10T15:30:35Z</time>
      </trkpt>
      <trkpt lat="49.42916" lon="1.11727">
        <ele>115</ele>
        <time>2017-01-10T15:30:35Z</time>
      </trkpt>
      <trkpt lat="49.4292" lon="1.11728">
        <ele>115</ele>
        <time>2017-01-10T15:30:51Z</time>
      </trkpt>
      <trkpt lat="49.42923" lon="1.11732">
        <ele>115</ele>
        <time>2017-01-10T15:30:51Z</time>
      </trkpt>
      <trkpt lat="49.42923" lon="1.11739">
        <ele>115</ele>
        <time>2017-01-10T15:30:51Z</time>
      </trkpt>
      <trkpt lat="49.42922" lon="1.11746">
        <ele>115</ele>
        <time>2017-01-10T15:30:51Z</time>
      </trkpt>
      <trkpt lat="49.42918" lon="1.11752">
        <ele>115</ele>
        <time>2017-01-10T15:31:07Z</time>
      </trkpt>
      <trkpt lat="49.42917" lon="1.11759">
        <ele>115</ele>
        <time>2017-01-10T15:31:07Z</time>
      </trkpt>
      <trkpt lat="49.42919" lon="1.11763">
        <ele>115</ele>
        <time>2017-01-10T15:31:07Z</time>
      </trkpt>
      <trkpt lat="49.42919" lon="1.11769">
        <ele>115</ele>
        <time>2017-01-10T15:31:07Z</time>
      </trkpt>
      <trkpt lat="49.42916" lon="1.11774">
        <ele>115</ele>
        <time>2017-01-10T15:31:23Z</time>
      </trkpt>
      <trkpt lat="49.42916" lon="1.1178">
        <ele>115</ele>
        <time>2017-01-10T15:31:23Z</time>
      </trkpt>
      <trkpt lat="49.42916" lon="1.11785">
        <ele>115</ele>
        <time>2017-01-10T15:31:23Z</time>
      </trkpt>
      <trkpt lat="49.42916" lon="1.1179">
        <ele>115</ele>
        <time>2017-01-10T15:31:23Z</time>
      </trkpt>
      <trkpt lat="49.42917" lon="1.11794">
        <ele>119</ele>
        <time>2017-01-10T15:31:43Z</time>
      </trkpt>
      <trkpt lat="49.42918" lon="1.11798">
        <ele>119</ele>
        <time>2017-01-10T15:31:43Z</time>
      </trkpt>
      <trkpt lat="49.42919" lon="1.11802">
        <ele>119</ele>
        <time>2017-01-10T15:31:43Z</time>
      </trkpt>
      <trkpt lat="49.42918" lon="1.11806">
        <ele>119</ele>
        <time>2017-01-10T15:31:43Z</time>
      </trkpt>
      <trkpt lat="49.42916" lon="1.11811">
        <ele>119</ele>
        <time>2017-01-10T15:31:43Z</time>
      </trkpt>
      <trkpt lat="49.42916" lon="1.11817">
        <ele>119</ele>
        <time>2017-01-10T15:32:03Z</time>
      </trkpt>
      <trkpt lat="49.42916" lon="1.1182">
        <ele>119</ele>
        <time>2017-01-10T15:32:03Z</time>
      </trkpt>
      <trkpt lat="49.42916" lon="1.11824">
        <ele>119</ele>
        <time>2017-01-10T15:32:03Z</time>
      </trkpt>
      <trkpt lat="49.42917" lon="1.11828">
        <ele>119</ele>
        <time>2017-01-10T15:32:03Z</time>
      </trkpt>
      <trkpt lat="49.42918" lon="1.11833">
        <ele>119</ele>
        <time>2017-01-10T15:32:03Z</time>
      </trkpt>
      <trkpt lat="49.42921" lon="1.11836">
        <ele>119</ele>
        <time>2017-01-10T15:32:23Z</time>
      </trkpt>
      <trkpt lat="49.42923" lon="1.11838">
        <ele>119</ele>
        <time>2017-01-10T15:32:23Z</time>
      </trkpt>
      <trkpt lat="49.42923" lon="1.11843">
        <ele>119</ele>
        <time>2017-01-10T15:32:23Z</time>
      </trkpt>
      <trkpt lat="49.42923" lon="1.11848">
        <ele>119</ele>
        <time>2017-01-10T15:32:23Z</time>
      </trkpt>
      <trkpt lat="49.42924" lon="1.11854">
        <ele>119</ele>
        <time>2017-01-10T15:32:23Z</time>
      </trkpt>
      <trkpt lat="49.42926" lon="1.11858">
        <ele>119</ele>
        <time>2017-01-10T15:32:39Z</time>
      </trkpt>
      <trkpt lat="49.42924" lon="1.11863">
        <ele>119</ele>
        <time>2017-01-10T15:32:39Z</time>
      </trkpt>
      <trkpt lat="49.42922" lon="1.1187">
        <ele>119</ele>
        <time>2017-01-10T15:32:39Z</time>
      </trkpt>
      <trkpt lat="49.4292" lon="1.11875">
        <ele>124</ele>
        <time>2017-01-10T15:32:39Z</time>
      </trkpt>
      <trkpt lat="49.4292" lon="1.1188">
        <ele>124</ele>
        <time>2017-01-10T15:32:55Z</time>
      </trkpt>
      <trkpt lat="49.4292" lon="1.11888">
        <ele>124</ele>
        <time>2017-01-10T15:32:55Z</time>
      </trkpt>
      <trkpt lat="49.42919" lon="1.11895">
        <ele>124</ele>
        <time>2017-01-10T15:32:55Z</time>
      </trkpt>
      <trkpt lat="49.42918" lon="1.11901">
        <ele>124</ele>
        <time>2017-01-10T15:32:55Z</time>
      </trkpt>
      <trkpt lat="49.42917" lon="1.11906">
        <ele>124</ele>
        <time>2017-01-10T15:33:11Z</time>
      </trkpt>
      <trkpt lat="49.42916" lon="1.11912">
        <ele>124</ele>
        <time>2017-01-10T15:33:11Z</time>
      </trkpt>
      <trkpt lat="49.42915" lon="1.11918">
        <ele>124</ele>
        <time>2017-01-10T15:33:11Z</time>
      </trkpt>
      <trkpt lat="49.42913" lon="1.11925">
        <ele>124</ele>
        <time>2017-01-10T15:33:11Z</time>
      </trkpt>
      <trkpt lat="49.42911" lon="1.11932">
        <ele>124</ele>
        <time>2017-01-10T15:33:27Z</time>
      </trkpt>
      <trkpt lat="49.4291" lon="1.11938">
        <ele>124</ele>
        <time>2017-01-10T15:33:27Z</time>
      </trkpt>
      <trkpt lat="49.42907" lon="1.11943">
        <ele>124</ele>
        <time>2017-01-10T15:33:27Z</time>
      </trkpt>
      <trkpt lat="49.42905" lon="1.11947">
        <ele>124</ele>
        <time>2017-01-10T15:33:27Z</time>
      </trkpt>
      <trkpt lat="49.42903" lon="1.11951">
        <ele>124</ele>
        <time>2017-01-10T15:33:43Z</time>
      </trkpt>
      <trkpt lat="49.42902" lon="1.11955">
        <ele>124</ele>
        <time>2017-01-10T15:33:43Z</time>
      </trkpt>
      <trkpt lat="49.42899" lon="1.11959">
        <ele>138</ele>
        <time>2017-01-10T15:33:43Z</time>
      </trkpt>
      <trkpt lat="49.42894" lon="1.11959">
        <ele>138</ele>
        <time>2017-01-10T15:33:43Z</time>
      </trkpt>
      <trkpt lat="49.4289" lon="1.11961">
        <ele>138</ele>
        <time>2017-01-10T15:33:59Z</time>
      </trkpt>
      <trkpt lat="49.42885" lon="1.11961">
        <ele>138</ele>
        <time>2017-01-10T15:33:59Z</time>
      </trkpt>
      <trkpt lat="49.4288" lon="1.11963">
        <ele>138</ele>
        <time>2017-01-10T15:33:59Z</time>
      </trkpt>
      <trkpt lat="49.42876" lon="1.11964">
        <ele>138</ele>
        <time>2017-01-10T15:33:59Z</time>
      </trkpt>
      <trkpt lat="49.42873" lon="1.11966">
        <ele>132</ele>
        <time>2017-01-10T15:34:15Z</time>
      </trkpt>
      <trkpt lat="49.42871" lon="1.11971">
        <ele>132</ele>
        <time>2017-01-10T15:34:15Z</time>
      </trkpt>
      <trkpt lat="49.42868" lon="1.11975">
        <ele>132</ele>
        <time>2017-01-10T15:34:15Z</time>
      </trkpt>
      <trkpt lat="49.42866" lon="1.11978">
        <ele>132</ele>
        <time>2017-01-10T15:34:15Z</time>
      </trkpt>
      <trkpt lat="49.42863" lon="1.11977">
        <ele>132</ele>
        <time>2017-01-10T15:34:31Z</time>
      </trkpt>
      <trkpt lat="49.42859" lon="1.11975">
        <ele>132</ele>
        <time>2017-01-10T15:34:31Z</time>
      </trkpt>
      <trkpt lat="49.42855" lon="1.11973">
        <ele>132</ele>
        <time>2017-01-10T15:34:31Z</time>
      </trkpt>
      <trkpt lat="49.42852" lon="1.11974">
        <ele>132</ele>
        <time>2017-01-10T15:34:31Z</time>
      </trkpt>
      <trkpt lat="49.42849" lon="1.11977">
        <ele>132</ele>
        <time>2017-01-10T15:34:51Z</time>
      </trkpt>
      <trkpt lat="49.42847" lon="1.11979">
        <ele>132</ele>
        <time>2017-01-10T15:34:51Z</time>
      </trkpt>
      <trkpt lat="49.42845" lon="1.11981">
        <ele>132</ele>
        <time>2017-01-10T15:34:51Z</time>
      </trkpt>
      <trkpt lat="49.42843" lon="1.11983">
        <ele>132</ele>
        <time>2017-01-10T15:34:51Z</time>
      </trkpt>
      <trkpt lat="49.42841" lon="1.11986">
        <ele>132</ele>
        <time>2017-01-10T15:34:51Z</time>
      </trkpt>
      <trkpt lat="49.42839" lon="1.1199">
        <ele>132</ele>
        <time>2017-01-10T15:35:07Z</time>
      </trkpt>
      <trkpt lat="49.42838" lon="1.11994">
        <ele>132</ele>
        <time>2017-01-10T15:35:07Z</time>
      </trkpt>
      <trkpt lat="49.42836" lon="1.11998">
        <ele>132</ele>
        <time>2017-01-10T15:35:07Z</time>
      </trkpt>
      <trkpt lat="49.42835" lon="1.12004">
        <ele>132</ele>
        <time>2017-01-10T15:35:07Z</time>
      </trkpt>
      <trkpt lat="49.42834" lon="1.12007">
        <ele>132</ele>
        <time>2017-01-10T15:35:23Z</time>
      </trkpt>
      <trkpt lat="49.4283" lon="1.12008">
        <ele>132</ele>
        <time>2017-01-10T15:35:23Z</time>
      </trkpt>
      <trkpt lat="49.42826" lon="1.1201">
        <ele>132</ele>
        <time>2017-01-10T15:35:23Z</time>
      </trkpt>
      <trkpt lat="49.42822" lon="1.12013">
        <ele>132</ele>
        <time>2017-01-10T15:35:23Z</time>
      </trkpt>
      <trkpt lat="49.4282" lon="1.12018">
        <ele>132</ele>
        <time>2017-01-10T15:35:39Z</time>
      </trkpt>
      <trkpt lat="49.42817" lon="1.12022">
        <ele>132</ele>
        <time>2017-01-10T15:35:39Z</time>
      </trkpt>
      <trkpt lat="49.42815" lon="1.12027">
        <ele>132</ele>
        <time>2017-01-10T15:35:39Z</time>
      </trkpt>
      <trkpt lat="49.42812" lon="1.12032">
        <ele>132</ele>
        <time>2017-01-10T15:35:39Z</time>
      </trkpt>
      <trkpt lat="49.42811" lon="1.12038">
        <ele>132</ele>
        <time>2017-01-10T15:35:59Z</time>
      </trkpt>
      <trkpt lat="49.4281" lon="1.12044">
        <ele>142</ele>
        <time>2017-01-10T15:35:59Z</time>
      </trkpt>
      <trkpt lat="49.42809" lon="1.12047">
        <ele>142</ele>
        <time>2017-01-10T15:35:59Z</time>
      </trkpt>
      <trkpt lat="49.42807" lon="1.1205">
        <ele>142</ele>
        <time>2017-01-10T15:35:59Z</time>
      </trkpt>
      <trkpt lat="49.42804" lon="1.12053">
        <ele>142</ele>
        <time>2017-01-10T15:35:59Z</time>
      </trkpt>
      <trkpt lat="49.42794" lon="1.12062">
        <ele>142</ele>
        <time>2017-01-10T15:38:07Z</time>
      </trkpt>
      <trkpt lat="49.42794" lon="1.12062">
        <ele>142</ele>
        <time>2017-01-10T15:38:07Z</time>
      </trkpt>
      <trkpt lat="49.42793" lon="1.12063">
        <ele>142</ele>
        <time>2017-01-10T15:38:07Z</time>
      </trkpt>
      <trkpt lat="49.42793" lon="1.12068">
        <ele>142</ele>
        <time>2017-01-10T15:38:07Z</time>
      </trkpt>
      <trkpt lat="49.42791" lon="1.12073">
        <ele>141</ele>
        <time>2017-01-10T15:38:07Z</time>
      </trkpt>
      <trkpt lat="49.4279" lon="1.12079">
        <ele>141</ele>
        <time>2017-01-10T15:38:23Z</time>
      </trkpt>
      <trkpt lat="49.42788" lon="1.12082">
        <ele>141</ele>
        <time>2017-01-10T15:38:23Z</time>
      </trkpt>
      <trkpt lat="49.42786" lon="1.12086">
        <ele>141</ele>
        <time>2017-01-10T15:38:23Z</time>
      </trkpt>
      <trkpt lat="49.42784" lon="1.1209">
        <ele>141</ele>
        <time>2017-01-10T15:38:23Z</time>
      </trkpt>
      <trkpt lat="49.42781" lon="1.12095">
        <ele>141</ele>
        <time>2017-01-10T15:38:39Z</time>
      </trkpt>
      <trkpt lat="49.42779" lon="1.12099">
        <ele>141</ele>
        <time>2017-01-10T15:38:39Z</time>
      </trkpt>
      <trkpt lat="49.4278" lon="1.12104">
        <ele>141</ele>
        <time>2017-01-10T15:38:39Z</time>
      </trkpt>
      <trkpt lat="49.4278" lon="1.12111">
        <ele>141</ele>
        <time>2017-01-10T15:38:39Z</time>
      </trkpt>
      <trkpt lat="49.42779" lon="1.12116">
        <ele>141</ele>
        <time>2017-01-10T15:38:55Z</time>
      </trkpt>
      <trkpt lat="49.42778" lon="1.12122">
        <ele>141</ele>
        <time>2017-01-10T15:38:55Z</time>
      </trkpt>
      <trkpt lat="49.42772" lon="1.12128">
        <ele>146</ele>
        <time>2017-01-10T15:38:55Z</time>
      </trkpt>
      <trkpt lat="49.42768" lon="1.12133">
        <ele>146</ele>
        <time>2017-01-10T15:38:55Z</time>
      </trkpt>
      <trkpt lat="49.42766" lon="1.12136">
        <ele>146</ele>
        <time>2017-01-10T15:39:15Z</time>
      </trkpt>
      <trkpt lat="49.42765" lon="1.12139">
        <ele>146</ele>
        <time>2017-01-10T15:39:15Z</time>
      </trkpt>
      <trkpt lat="49.42767" lon="1.12143">
        <ele>146</ele>
        <time>2017-01-10T15:39:15Z</time>
      </trkpt>
      <trkpt lat="49.42769" lon="1.12147">
        <ele>146</ele>
        <time>2017-01-10T15:39:15Z</time>
      </trkpt>
      <trkpt lat="49.42771" lon="1.12151">
        <ele>146</ele>
        <time>2017-01-10T15:39:15Z</time>
      </trkpt>
      <trkpt lat="49.42772" lon="1.12155">
        <ele>146</ele>
        <time>2017-01-10T15:39:31Z</time>
      </trkpt>
      <trkpt lat="49.42775" lon="1.12159">
        <ele>146</ele>
        <time>2017-01-10T15:39:31Z</time>
      </trkpt>
      <trkpt lat="49.42778" lon="1.12162">
        <ele>146</ele>
        <time>2017-01-10T15:39:31Z</time>
      </trkpt>
      <trkpt lat="49.42781" lon="1.12167">
        <ele>146</ele>
        <time>2017-01-10T15:39:31Z</time>
      </trkpt>
      <trkpt lat="49.42783" lon="1.12171">
        <ele>146</ele>
        <time>2017-01-10T15:39:47Z</time>
      </trkpt>
      <trkpt lat="49.42787" lon="1.12175">
        <ele>146</ele>
        <time>2017-01-10T15:39:47Z</time>
      </trkpt>
      <trkpt lat="49.4279" lon="1.12179">
        <ele>146</ele>
        <time>2017-01-10T15:39:47Z</time>
      </trkpt>
      <trkpt lat="49.42792" lon="1.12183">
        <ele>147</ele>
        <time>2017-01-10T15:39:47Z</time>
      </trkpt>
      <trkpt lat="49.42795" lon="1.12186">
        <ele>147</ele>
        <time>2017-01-10T15:40:03Z</time>
      </trkpt>
      <trkpt lat="49.42796" lon="1.12193">
        <ele>147</ele>
        <time>2017-01-10T15:40:03Z</time>
      </trkpt>
      <trkpt lat="49.42797" lon="1.122">
        <ele>147</ele>
        <time>2017-01-10T15:40:03Z</time>
      </trkpt>
      <trkpt lat="49.428" lon="1.12205">
        <ele>147</ele>
        <time>2017-01-10T15:40:03Z</time>
      </trkpt>
      <trkpt lat="49.42802" lon="1.12209">
        <ele>146</ele>
        <time>2017-01-10T15:40:23Z</time>
      </trkpt>
      <trkpt lat="49.42804" lon="1.12212">
        <ele>146</ele>
        <time>2017-01-10T15:40:23Z</time>
      </trkpt>
      <trkpt lat="49.42807" lon="1.1221">
        <ele>146</ele>
        <time>2017-01-10T15:40:23Z</time>
      </trkpt>
      <trkpt lat="49.42811" lon="1.1221">
        <ele>146</ele>
        <time>2017-01-10T15:40:23Z</time>
      </trkpt>
      <trkpt lat="49.42816" lon="1.12216">
        <ele>146</ele>
        <time>2017-01-10T15:40:23Z</time>
      </trkpt>
      <trkpt lat="49.4282" lon="1.12219">
        <ele>146</ele>
        <time>2017-01-10T15:40:39Z</time>
      </trkpt>
      <trkpt lat="49.42824" lon="1.12222">
        <ele>146</ele>
        <time>2017-01-10T15:40:39Z</time>
      </trkpt>
      <trkpt lat="49.42827" lon="1.12225">
        <ele>146</ele>
        <time>2017-01-10T15:40:39Z</time>
      </trkpt>
      <trkpt lat="49.42831" lon="1.12228">
        <ele>146</ele>
        <time>2017-01-10T15:40:39Z</time>
      </trkpt>
      <trkpt lat="49.42836" lon="1.12232">
        <ele>146</ele>
        <time>2017-01-10T15:40:55Z</time>
      </trkpt>
      <trkpt lat="49.42838" lon="1.12235">
        <ele>146</ele>
        <time>2017-01-10T15:40:55Z</time>
      </trkpt>
      <trkpt lat="49.42841" lon="1.12238">
        <ele>146</ele>
        <time>2017-01-10T15:40:55Z</time>
      </trkpt>
      <trkpt lat="49.42843" lon="1.12241">
        <ele>146</ele>
        <time>2017-01-10T15:40:55Z</time>
      </trkpt>
      <trkpt lat="49.42846" lon="1.12246">
        <ele>146</ele>
        <time>2017-01-10T15:41:11Z</time>
      </trkpt>
      <trkpt lat="49.4285" lon="1.12251">
        <ele>146</ele>
        <time>2017-01-10T15:41:11Z</time>
      </trkpt>
      <trkpt lat="49.42854" lon="1.12256">
        <ele>146</ele>
        <time>2017-01-10T15:41:11Z</time>
      </trkpt>
      <trkpt lat="49.42858" lon="1.12259">
        <ele>146</ele>
        <time>2017-01-10T15:41:11Z</time>
      </trkpt>
      <trkpt lat="49.42863" lon="1.12262">
        <ele>146</ele>
        <time>2017-01-10T15:41:27Z</time>
      </trkpt>
      <trkpt lat="49.42867" lon="1.12264">
        <ele>146</ele>
        <time>2017-01-10T15:41:27Z</time>
      </trkpt>
      <trkpt lat="49.4287" lon="1.12266">
        <ele>146</ele>
        <time>2017-01-10T15:41:27Z</time>
      </trkpt>
      <trkpt lat="49.42874" lon="1.12269">
        <ele>146</ele>
        <time>2017-01-10T15:41:27Z</time>
      </trkpt>
      <trkpt lat="49.42878" lon="1.12272">
        <ele>146</ele>
        <time>2017-01-10T15:41:43Z</time>
      </trkpt>
      <trkpt lat="49.42881" lon="1.12275">
        <ele>146</ele>
        <time>2017-01-10T15:41:43Z</time>
      </trkpt>
      <trkpt lat="49.42885" lon="1.12278">
        <ele>146</ele>
        <time>2017-01-10T15:41:43Z</time>
      </trkpt>
      <trkpt lat="49.42888" lon="1.12282">
        <ele>146</ele>
        <time>2017-01-10T15:41:43Z</time>
      </trkpt>
      <trkpt lat="49.42892" lon="1.12285">
        <ele>146</ele>
        <time>2017-01-10T15:41:59Z</time>
      </trkpt>
      <trkpt lat="49.42896" lon="1.1229">
        <ele>146</ele>
        <time>2017-01-10T15:41:59Z</time>
      </trkpt>
      <trkpt lat="49.429" lon="1.12291">
        <ele>146</ele>
        <time>2017-01-10T15:41:59Z</time>
      </trkpt>
      <trkpt lat="49.42905" lon="1.12294">
        <ele>146</ele>
        <time>2017-01-10T15:41:59Z</time>
      </trkpt>
      <trkpt lat="49.42909" lon="1.12296">
        <ele>146</ele>
        <time>2017-01-10T15:42:15Z</time>
      </trkpt>
      <trkpt lat="49.42913" lon="1.12298">
        <ele>146</ele>
        <time>2017-01-10T15:42:15Z</time>
      </trkpt>
      <trkpt lat="49.42917" lon="1.12302">
        <ele>146</ele>
        <time>2017-01-10T15:42:15Z</time>
      </trkpt>
      <trkpt lat="49.42921" lon="1.12308">
        <ele>146</ele>
        <time>2017-01-10T15:42:15Z</time>
      </trkpt>
      <trkpt lat="49.42924" lon="1.12313">
        <ele>146</ele>
        <time>2017-01-10T15:42:31Z</time>
      </trkpt>
      <trkpt lat="49.42928" lon="1.12317">
        <ele>146</ele>
        <time>2017-01-10T15:42:31Z</time>
      </trkpt>
      <trkpt lat="49.42932" lon="1.1232">
        <ele>146</ele>
        <time>2017-01-10T15:42:31Z</time>
      </trkpt>
      <trkpt lat="49.42935" lon="1.12325">
        <ele>146</ele>
        <time>2017-01-10T15:42:31Z</time>
      </trkpt>
      <trkpt lat="49.42938" lon="1.12329">
        <ele>146</ele>
        <time>2017-01-10T15:42:47Z</time>
      </trkpt>
      <trkpt lat="49.4294" lon="1.12334">
        <ele>146</ele>
        <time>2017-01-10T15:42:47Z</time>
      </trkpt>
      <trkpt lat="49.42943" lon="1.12339">
        <ele>146</ele>
        <time>2017-01-10T15:42:47Z</time>
      </trkpt>
      <trkpt lat="49.42946" lon="1.12345">
        <ele>146</ele>
        <time>2017-01-10T15:42:47Z</time>
      </trkpt>
      <trkpt lat="49.42949" lon="1.12349">
        <ele>146</ele>
        <time>2017-01-10T15:43:03Z</time>
      </trkpt>
      <trkpt lat="49.42953" lon="1.12353">
        <ele>146</ele>
        <time>2017-01-10T15:43:03Z</time>
      </trkpt>
      <trkpt lat="49.42957" lon="1.12357">
        <ele>146</ele>
        <time>2017-01-10T15:43:03Z</time>
      </trkpt>
      <trkpt lat="49.42959" lon="1.12362">
        <ele>143</ele>
        <time>2017-01-10T15:43:03Z</time>
      </trkpt>
      <trkpt lat="49.42962" lon="1.12367">
        <ele>143</ele>
        <time>2017-01-10T15:43:19Z</time>
      </trkpt>
      <trkpt lat="49.42964" lon="1.12373">
        <ele>143</ele>
        <time>2017-01-10T15:43:19Z</time>
      </trkpt>
      <trkpt lat="49.42965" lon="1.12379">
        <ele>143</ele>
        <time>2017-01-10T15:43:19Z</time>
      </trkpt>
      <trkpt lat="49.42967" lon="1.12385">
        <ele>143</ele>
        <time>2017-01-10T15:43:19Z</time>
      </trkpt>
      <trkpt lat="49.42969" lon="1.12391">
        <ele>143</ele>
        <time>2017-01-10T15:43:35Z</time>
      </trkpt>
      <trkpt lat="49.42971" lon="1.12397">
        <ele>143</ele>
        <time>2017-01-10T15:43:35Z</time>
      </trkpt>
      <trkpt lat="49.42972" lon="1.12405">
        <ele>143</ele>
        <time>2017-01-10T15:43:35Z</time>
      </trkpt>
      <trkpt lat="49.42973" lon="1.12413">
        <ele>143</ele>
        <time>2017-01-10T15:43:35Z</time>
      </trkpt>
      <trkpt lat="49.42974" lon="1.12423">
        <ele>143</ele>
        <time>2017-01-10T15:43:51Z</time>
      </trkpt>
      <trkpt lat="49.42973" lon="1.12433">
        <ele>143</ele>
        <time>2017-01-10T15:43:51Z</time>
      </trkpt>
      <trkpt lat="49.42972" lon="1.12441">
        <ele>143</ele>
        <time>2017-01-10T15:43:51Z</time>
      </trkpt>
      <trkpt lat="49.42972" lon="1.12447">
        <ele>143</ele>
        <time>2017-01-10T15:43:51Z</time>
      </trkpt>
      <trkpt lat="49.42972" lon="1.12452">
        <ele>143</ele>
        <time>2017-01-10T15:44:07Z</time>
      </trkpt>
      <trkpt lat="49.4297" lon="1.1246">
        <ele>142</ele>
        <time>2017-01-10T15:44:07Z</time>
      </trkpt>
      <trkpt lat="49.42969" lon="1.12468">
        <ele>142</ele>
        <time>2017-01-10T15:44:07Z</time>
      </trkpt>
      <trkpt lat="49.42968" lon="1.12474">
        <ele>142</ele>
        <time>2017-01-10T15:44:07Z</time>
      </trkpt>
      <trkpt lat="49.42967" lon="1.12481">
        <ele>142</ele>
        <time>2017-01-10T15:44:23Z</time>
      </trkpt>
      <trkpt lat="49.42967" lon="1.12488">
        <ele>142</ele>
        <time>2017-01-10T15:44:23Z</time>
      </trkpt>
      <trkpt lat="49.42966" lon="1.12495">
        <ele>142</ele>
        <time>2017-01-10T15:44:23Z</time>
      </trkpt>
      <trkpt lat="49.42966" lon="1.12503">
        <ele>142</ele>
        <time>2017-01-10T15:44:23Z</time>
      </trkpt>
      <trkpt lat="49.42966" lon="1.1251">
        <ele>142</ele>
        <time>2017-01-10T15:44:39Z</time>
      </trkpt>
      <trkpt lat="49.42964" lon="1.12517">
        <ele>142</ele>
        <time>2017-01-10T15:44:39Z</time>
      </trkpt>
      <trkpt lat="49.42963" lon="1.12523">
        <ele>142</ele>
        <time>2017-01-10T15:44:39Z</time>
      </trkpt>
      <trkpt lat="49.42962" lon="1.1253">
        <ele>142</ele>
        <time>2017-01-10T15:44:39Z</time>
      </trkpt>
      <trkpt lat="49.4296" lon="1.12536">
        <ele>142</ele>
        <time>2017-01-10T15:44:55Z</time>
      </trkpt>
      <trkpt lat="49.42959" lon="1.12542">
        <ele>142</ele>
        <time>2017-01-10T15:44:55Z</time>
      </trkpt>
      <trkpt lat="49.42958" lon="1.12549">
        <ele>144</ele>
        <time>2017-01-10T15:44:55Z</time>
      </trkpt>
      <trkpt lat="49.42957" lon="1.12556">
        <ele>144</ele>
        <time>2017-01-10T15:44:55Z</time>
      </trkpt>
      <trkpt lat="49.42956" lon="1.12561">
        <ele>144</ele>
        <time>2017-01-10T15:45:11Z</time>
      </trkpt>
      <trkpt lat="49.42954" lon="1.12567">
        <ele>144</ele>
        <time>2017-01-10T15:45:11Z</time>
      </trkpt>
      <trkpt lat="49.42952" lon="1.12574">
        <ele>144</ele>
        <time>2017-01-10T15:45:11Z</time>
      </trkpt>
      <trkpt lat="49.42948" lon="1.12579">
        <ele>144</ele>
        <time>2017-01-10T15:45:11Z</time>
      </trkpt>
      <trkpt lat="49.42946" lon="1.12585">
        <ele>144</ele>
        <time>2017-01-10T15:45:27Z</time>
      </trkpt>
      <trkpt lat="49.42944" lon="1.12592">
        <ele>144</ele>
        <time>2017-01-10T15:45:27Z</time>
      </trkpt>
      <trkpt lat="49.42941" lon="1.12598">
        <ele>144</ele>
        <time>2017-01-10T15:45:27Z</time>
      </trkpt>
      <trkpt lat="49.42939" lon="1.12605">
        <ele>144</ele>
        <time>2017-01-10T15:45:27Z</time>
      </trkpt>
      <trkpt lat="49.42937" lon="1.12611">
        <ele>144</ele>
        <time>2017-01-10T15:45:43Z</time>
      </trkpt>
      <trkpt lat="49.42936" lon="1.12617">
        <ele>144</ele>
        <time>2017-01-10T15:45:43Z</time>
      </trkpt>
      <trkpt lat="49.42934" lon="1.12623">
        <ele>144</ele>
        <time>2017-01-10T15:45:43Z</time>
      </trkpt>
      <trkpt lat="49.42931" lon="1.12629">
        <ele>143</ele>
        <time>2017-01-10T15:45:43Z</time>
      </trkpt>
      <trkpt lat="49.42928" lon="1.12635">
        <ele>143</ele>
        <time>2017-01-10T15:45:59Z</time>
      </trkpt>
      <trkpt lat="49.42926" lon="1.12642">
        <ele>143</ele>
        <time>2017-01-10T15:45:59Z</time>
      </trkpt>
      <trkpt lat="49.42924" lon="1.12648">
        <ele>143</ele>
        <time>2017-01-10T15:45:59Z</time>
      </trkpt>
      <trkpt lat="49.42924" lon="1.12655">
        <ele>143</ele>
        <time>2017-01-10T15:45:59Z</time>
      </trkpt>
      <trkpt lat="49.42922" lon="1.12661">
        <ele>143</ele>
        <time>2017-01-10T15:46:15Z</time>
      </trkpt>
      <trkpt lat="49.4292" lon="1.12667">
        <ele>143</ele>
        <time>2017-01-10T15:46:15Z</time>
      </trkpt>
      <trkpt lat="49.42918" lon="1.12673">
        <ele>143</ele>
        <time>2017-01-10T15:46:15Z</time>
      </trkpt>
      <trkpt lat="49.42917" lon="1.12679">
        <ele>143</ele>
        <time>2017-01-10T15:46:15Z</time>
      </trkpt>
      <trkpt lat="49.42915" lon="1.12684">
        <ele>143</ele>
        <time>2017-01-10T15:46:31Z</time>
      </trkpt>
      <trkpt lat="49.42913" lon="1.12691">
        <ele>143</ele>
        <time>2017-01-10T15:46:31Z</time>
      </trkpt>
      <trkpt lat="49.42911" lon="1.12697">
        <ele>143</ele>
        <time>2017-01-10T15:46:31Z</time>
      </trkpt>
      <trkpt lat="49.42909" lon="1.12702">
        <ele>143</ele>
        <time>2017-01-10T15:46:31Z</time>
      </trkpt>
      <trkpt lat="49.42908" lon="1.12708">
        <ele>143</ele>
        <time>2017-01-10T15:46:47Z</time>
      </trkpt>
      <trkpt lat="49.42906" lon="1.12715">
        <ele>142</ele>
        <time>2017-01-10T15:46:47Z</time>
      </trkpt>
      <trkpt lat="49.42905" lon="1.1272">
        <ele>142</ele>
        <time>2017-01-10T15:46:47Z</time>
      </trkpt>
      <trkpt lat="49.42904" lon="1.12727">
        <ele>142</ele>
        <time>2017-01-10T15:46:47Z</time>
      </trkpt>
      <trkpt lat="49.42903" lon="1.12733">
        <ele>142</ele>
        <time>2017-01-10T15:47:03Z</time>
      </trkpt>
      <trkpt lat="49.42902" lon="1.12738">
        <ele>142</ele>
        <time>2017-01-10T15:47:03Z</time>
      </trkpt>
      <trkpt lat="49.42901" lon="1.12746">
        <ele>142</ele>
        <time>2017-01-10T15:47:03Z</time>
      </trkpt>
      <trkpt lat="49.42899" lon="1.12753">
        <ele>142</ele>
        <time>2017-01-10T15:47:03Z</time>
      </trkpt>
      <trkpt lat="49.42897" lon="1.12759">
        <ele>142</ele>
        <time>2017-01-10T15:47:19Z</time>
      </trkpt>
      <trkpt lat="49.42895" lon="1.12764">
        <ele>142</ele>
        <time>2017-01-10T15:47:19Z</time>
      </trkpt>
      <trkpt lat="49.42893" lon="1.12769">
        <ele>142</ele>
        <time>2017-01-10T15:47:19Z</time>
      </trkpt>
      <trkpt lat="49.42891" lon="1.12776">
        <ele>142</ele>
        <time>2017-01-10T15:47:19Z</time>
      </trkpt>
      <trkpt lat="49.42889" lon="1.12782">
        <ele>142</ele>
        <time>2017-01-10T15:47:35Z</time>
      </trkpt>
      <trkpt lat="49.42886" lon="1.12788">
        <ele>142</ele>
        <time>2017-01-10T15:47:35Z</time>
      </trkpt>
      <trkpt lat="49.42884" lon="1.12793">
        <ele>140</ele>
        <time>2017-01-10T15:47:35Z</time>
      </trkpt>
      <trkpt lat="49.42883" lon="1.12799">
        <ele>140</ele>
        <time>2017-01-10T15:47:35Z</time>
      </trkpt>
      <trkpt lat="49.42882" lon="1.12804">
        <ele>140</ele>
        <time>2017-01-10T15:47:51Z</time>
      </trkpt>
      <trkpt lat="49.42881" lon="1.12811">
        <ele>140</ele>
        <time>2017-01-10T15:47:51Z</time>
      </trkpt>
      <trkpt lat="49.4288" lon="1.12817">
        <ele>140</ele>
        <time>2017-01-10T15:47:51Z</time>
      </trkpt>
      <trkpt lat="49.42877" lon="1.12823">
        <ele>140</ele>
        <time>2017-01-10T15:47:51Z</time>
      </trkpt>
      <trkpt lat="49.42875" lon="1.12829">
        <ele>142</ele>
        <time>2017-01-10T15:48:07Z</time>
      </trkpt>
      <trkpt lat="49.42873" lon="1.12836">
        <ele>142</ele>
        <time>2017-01-10T15:48:07Z</time>
      </trkpt>
      <trkpt lat="49.42872" lon="1.12841">
        <ele>142</ele>
        <time>2017-01-10T15:48:07Z</time>
      </trkpt>
      <trkpt lat="49.4287" lon="1.12847">
        <ele>142</ele>
        <time>2017-01-10T15:48:07Z</time>
      </trkpt>
      <trkpt lat="49.42867" lon="1.12853">
        <ele>142</ele>
        <time>2017-01-10T15:48:23Z</time>
      </trkpt>
      <trkpt lat="49.42865" lon="1.1286">
        <ele>142</ele>
        <time>2017-01-10T15:48:23Z</time>
      </trkpt>
      <trkpt lat="49.42862" lon="1.12866">
        <ele>142</ele>
        <time>2017-01-10T15:48:23Z</time>
      </trkpt>
      <trkpt lat="49.4286" lon="1.12871">
        <ele>142</ele>
        <time>2017-01-10T15:48:23Z</time>
      </trkpt>
      <trkpt lat="49.42858" lon="1.12876">
        <ele>142</ele>
        <time>2017-01-10T15:48:39Z</time>
      </trkpt>
      <trkpt lat="49.42855" lon="1.12881">
        <ele>142</ele>
        <time>2017-01-10T15:48:39Z</time>
      </trkpt>
      <trkpt lat="49.42853" lon="1.12887">
        <ele>142</ele>
        <time>2017-01-10T15:48:39Z</time>
      </trkpt>
      <trkpt lat="49.4285" lon="1.12892">
        <ele>142</ele>
        <time>2017-01-10T15:48:39Z</time>
      </trkpt>
      <trkpt lat="49.42848" lon="1.12897">
        <ele>142</ele>
        <time>2017-01-10T15:48:55Z</time>
      </trkpt>
      <trkpt lat="49.42845" lon="1.12902">
        <ele>142</ele>
        <time>2017-01-10T15:48:55Z</time>
      </trkpt>
      <trkpt lat="49.42843" lon="1.12908">
        <ele>142</ele>
        <time>2017-01-10T15:48:55Z</time>
      </trkpt>
      <trkpt lat="49.42841" lon="1.1291">
        <ele>142</ele>
        <time>2017-01-10T15:48:55Z</time>
      </trkpt>
      <trkpt lat="49.42839" lon="1.12915">
        <ele>142</ele>
        <time>2017-01-10T15:49:11Z</time>
      </trkpt>
      <trkpt lat="49.42835" lon="1.12921">
        <ele>142</ele>
        <time>2017-01-10T15:49:11Z</time>
      </trkpt>
      <trkpt lat="49.42832" lon="1.12926">
        <ele>142</ele>
        <time>2017-01-10T15:49:11Z</time>
      </trkpt>
      <trkpt lat="49.42829" lon="1.12929">
        <ele>142</ele>
        <time>2017-01-10T15:49:11Z</time>
      </trkpt>
      <trkpt lat="49.42826" lon="1.12934">
        <ele>142</ele>
        <time>2017-01-10T15:49:27Z</time>
      </trkpt>
      <trkpt lat="49.42822" lon="1.12939">
        <ele>142</ele>
        <time>2017-01-10T15:49:27Z</time>
      </trkpt>
      <trkpt lat="49.4282" lon="1.12944">
        <ele>142</ele>
        <time>2017-01-10T15:49:27Z</time>
      </trkpt>
      <trkpt lat="49.42818" lon="1.12949">
        <ele>142</ele>
        <time>2017-01-10T15:49:27Z</time>
      </trkpt>
      <trkpt lat="49.42816" lon="1.12955">
        <ele>142</ele>
        <time>2017-01-10T15:49:43Z</time>
      </trkpt>
      <trkpt lat="49.42815" lon="1.1296">
        <ele>142</ele>
        <time>2017-01-10T15:49:43Z</time>
      </trkpt>
      <trkpt lat="49.42813" lon="1.12966">
        <ele>142</ele>
        <time>2017-01-10T15:49:43Z</time>
      </trkpt>
      <trkpt lat="49.42813" lon="1.12972">
        <ele>142</ele>
        <time>2017-01-10T15:49:43Z</time>
      </trkpt>
      <trkpt lat="49.42813" lon="1.12976">
        <ele>142</ele>
        <time>2017-01-10T15:50:03Z</time>
      </trkpt>
      <trkpt lat="49.42813" lon="1.12979">
        <ele>142</ele>
        <time>2017-01-10T15:50:03Z</time>
      </trkpt>
      <trkpt lat="49.42815" lon="1.12981">
        <ele>142</ele>
        <time>2017-01-10T15:50:03Z</time>
      </trkpt>
      <trkpt lat="49.42817" lon="1.12986">
        <ele>142</ele>
        <time>2017-01-10T15:50:03Z</time>
      </trkpt>
      <trkpt lat="49.4282" lon="1.1299">
        <ele>142</ele>
        <time>2017-01-10T15:50:03Z</time>
      </trkpt>
      <trkpt lat="49.42822" lon="1.12995">
        <ele>142</ele>
        <time>2017-01-10T15:50:19Z</time>
      </trkpt>
      <trkpt lat="49.42824" lon="1.13002">
        <ele>142</ele>
        <time>2017-01-10T15:50:19Z</time>
      </trkpt>
      <trkpt lat="49.42826" lon="1.13009">
        <ele>142</ele>
        <time>2017-01-10T15:50:19Z</time>
      </trkpt>
      <trkpt lat="49.42826" lon="1.13014">
        <ele>142</ele>
        <time>2017-01-10T15:50:19Z</time>
      </trkpt>
      <trkpt lat="49.42827" lon="1.13019">
        <ele>142</ele>
        <time>2017-01-10T15:50:35Z</time>
      </trkpt>
      <trkpt lat="49.42829" lon="1.13024">
        <ele>142</ele>
        <time>2017-01-10T15:50:35Z</time>
      </trkpt>
      <trkpt lat="49.42832" lon="1.13029">
        <ele>142</ele>
        <time>2017-01-10T15:50:35Z</time>
      </trkpt>
      <trkpt lat="49.42834" lon="1.13034">
        <ele>142</ele>
        <time>2017-01-10T15:50:35Z</time>
      </trkpt>
      <trkpt lat="49.42833" lon="1.13041">
        <ele>142</ele>
        <time>2017-01-10T15:50:51Z</time>
      </trkpt>
      <trkpt lat="49.42834" lon="1.13047">
        <ele>143</ele>
        <time>2017-01-10T15:50:51Z</time>
      </trkpt>
      <trkpt lat="49.42834" lon="1.13053">
        <ele>143</ele>
        <time>2017-01-10T15:50:51Z</time>
      </trkpt>
      <trkpt lat="49.42836" lon="1.13059">
        <ele>143</ele>
        <time>2017-01-10T15:50:51Z</time>
      </trkpt>
      <trkpt lat="49.42836" lon="1.13063">
        <ele>143</ele>
        <time>2017-01-10T15:51:07Z</time>
      </trkpt>
      <trkpt lat="49.42837" lon="1.1307">
        <ele>143</ele>
        <time>2017-01-10T15:51:07Z</time>
      </trkpt>
      <trkpt lat="49.42839" lon="1.13075">
        <ele>143</ele>
        <time>2017-01-10T15:51:07Z</time>
      </trkpt>
      <trkpt lat="49.42839" lon="1.13079">
        <ele>143</ele>
        <time>2017-01-10T15:51:07Z</time>
      </trkpt>
      <trkpt lat="49.42836" lon="1.13076">
        <ele>143</ele>
        <time>2017-01-10T15:51:31Z</time>
      </trkpt>
      <trkpt lat="49.42836" lon="1.13076">
        <ele>143</ele>
        <time>2017-01-10T15:51:31Z</time>
      </trkpt>
      <trkpt lat="49.42836" lon="1.13076">
        <ele>143</ele>
        <time>2017-01-10T15:51:31Z</time>
      </trkpt>
      <trkpt lat="49.42836" lon="1.13083">
        <ele>143</ele>
        <time>2017-01-10T15:51:31Z</time>
      </trkpt>
      <trkpt lat="49.42838" lon="1.1309">
        <ele>143</ele>
        <time>2017-01-10T15:51:31Z</time>
      </trkpt>
      <trkpt lat="49.42836" lon="1.13097">
        <ele>143</ele>
        <time>2017-01-10T15:51:47Z</time>
      </trkpt>
      <trkpt lat="49.42835" lon="1.13104">
        <ele>143</ele>
        <time>2017-01-10T15:51:47Z</time>
      </trkpt>
      <trkpt lat="49.42834" lon="1.13111">
        <ele>143</ele>
        <time>2017-01-10T15:51:47Z</time>
      </trkpt>
      <trkpt lat="49.42835" lon="1.13116">
        <ele>143</ele>
        <time>2017-01-10T15:51:47Z</time>
      </trkpt>
      <trkpt lat="49.42836" lon="1.13123">
        <ele>143</ele>
        <time>2017-01-10T15:52:03Z</time>
      </trkpt>
      <trkpt lat="49.42837" lon="1.13128">
        <ele>143</ele>
        <time>2017-01-10T15:52:03Z</time>
      </trkpt>
      <trkpt lat="49.42839" lon="1.13134">
        <ele>143</ele>
        <time>2017-01-10T15:52:03Z</time>
      </trkpt>
      <trkpt lat="49.4284" lon="1.1314">
        <ele>143</ele>
        <time>2017-01-10T15:52:03Z</time>
      </trkpt>
      <trkpt lat="49.4284" lon="1.13146">
        <ele>143</ele>
        <time>2017-01-10T15:52:19Z</time>
      </trkpt>
      <trkpt lat="49.4284" lon="1.13153">
        <ele>143</ele>
        <time>2017-01-10T15:52:19Z</time>
      </trkpt>
      <trkpt lat="49.42841" lon="1.1316">
        <ele>143</ele>
        <time>2017-01-10T15:52:19Z</time>
      </trkpt>
      <trkpt lat="49.42842" lon="1.13167">
        <ele>143</ele>
        <time>2017-01-10T15:52:19Z</time>
      </trkpt>
      <trkpt lat="49.42843" lon="1.13173">
        <ele>143</ele>
        <time>2017-01-10T15:52:35Z</time>
      </trkpt>
      <trkpt lat="49.42844" lon="1.1318">
        <ele>143</ele>
        <time>2017-01-10T15:52:35Z</time>
      </trkpt>
      <trkpt lat="49.42845" lon="1.13186">
        <ele>143</ele>
        <time>2017-01-10T15:52:35Z</time>
      </trkpt>
      <trkpt lat="49.42845" lon="1.13193">
        <ele>143</ele>
        <time>2017-01-10T15:52:35Z</time>
      </trkpt>
      <trkpt lat="49.42847" lon="1.13199">
        <ele>143</ele>
        <time>2017-01-10T15:52:51Z</time>
      </trkpt>
      <trkpt lat="49.42848" lon="1.13205">
        <ele>143</ele>
        <time>2017-01-10T15:52:51Z</time>
      </trkpt>
      <trkpt lat="49.4285" lon="1.13211">
        <ele>143</ele>
        <time>2017-01-10T15:52:51Z</time>
      </trkpt>
      <trkpt lat="49.4285" lon="1.13219">
        <ele>143</ele>
        <time>2017-01-10T15:52:51Z</time>
      </trkpt>
      <trkpt lat="49.42852" lon="1.13226">
        <ele>143</ele>
        <time>2017-01-10T15:53:07Z</time>
      </trkpt>
      <trkpt lat="49.42853" lon="1.13233">
        <ele>143</ele>
        <time>2017-01-10T15:53:07Z</time>
      </trkpt>
      <trkpt lat="49.42854" lon="1.13239">
        <ele>143</ele>
        <time>2017-01-10T15:53:07Z</time>
      </trkpt>
      <trkpt lat="49.42856" lon="1.13244">
        <ele>143</ele>
        <time>2017-01-10T15:53:07Z</time>
      </trkpt>
      <trkpt lat="49.42857" lon="1.1325">
        <ele>143</ele>
        <time>2017-01-10T15:53:23Z</time>
      </trkpt>
      <trkpt lat="49.42859" lon="1.13256">
        <ele>143</ele>
        <time>2017-01-10T15:53:23Z</time>
      </trkpt>
      <trkpt lat="49.4286" lon="1.13262">
        <ele>143</ele>
        <time>2017-01-10T15:53:23Z</time>
      </trkpt>
      <trkpt lat="49.42861" lon="1.13269">
        <ele>143</ele>
        <time>2017-01-10T15:53:23Z</time>
      </trkpt>
      <trkpt lat="49.42862" lon="1.13276">
        <ele>143</ele>
        <time>2017-01-10T15:53:39Z</time>
      </trkpt>
      <trkpt lat="49.42863" lon="1.13282">
        <ele>143</ele>
        <time>2017-01-10T15:53:39Z</time>
      </trkpt>
      <trkpt lat="49.42864" lon="1.13288">
        <ele>143</ele>
        <time>2017-01-10T15:53:39Z</time>
      </trkpt>
      <trkpt lat="49.42866" lon="1.13294">
        <ele>144</ele>
        <time>2017-01-10T15:53:39Z</time>
      </trkpt>
      <trkpt lat="49.42867" lon="1.133">
        <ele>144</ele>
        <time>2017-01-10T15:53:55Z</time>
      </trkpt>
      <trkpt lat="49.42868" lon="1.13306">
        <ele>144</ele>
        <time>2017-01-10T15:53:55Z</time>
      </trkpt>
      <trkpt lat="49.42869" lon="1.13312">
        <ele>144</ele>
        <time>2017-01-10T15:53:55Z</time>
      </trkpt>
      <trkpt lat="49.4287" lon="1.13319">
        <ele>144</ele>
        <time>2017-01-10T15:53:55Z</time>
      </trkpt>
      <trkpt lat="49.42872" lon="1.13325">
        <ele>144</ele>
        <time>2017-01-10T15:54:11Z</time>
      </trkpt>
      <trkpt lat="49.42873" lon="1.13332">
        <ele>144</ele>
        <time>2017-01-10T15:54:11Z</time>
      </trkpt>
      <trkpt lat="49.42875" lon="1.13337">
        <ele>140</ele>
        <time>2017-01-10T15:54:11Z</time>
      </trkpt>
      <trkpt lat="49.42877" lon="1.13344">
        <ele>140</ele>
        <time>2017-01-10T15:54:11Z</time>
      </trkpt>
      <trkpt lat="49.42879" lon="1.13351">
        <ele>140</ele>
        <time>2017-01-10T15:54:27Z</time>
      </trkpt>
      <trkpt lat="49.42881" lon="1.13359">
        <ele>140</ele>
        <time>2017-01-10T15:54:27Z</time>
      </trkpt>
      <trkpt lat="49.42883" lon="1.13365">
        <ele>140</ele>
        <time>2017-01-10T15:54:27Z</time>
      </trkpt>
      <trkpt lat="49.42884" lon="1.13371">
        <ele>140</ele>
        <time>2017-01-10T15:54:27Z</time>
      </trkpt>
      <trkpt lat="49.42885" lon="1.13377">
        <ele>141</ele>
        <time>2017-01-10T15:54:43Z</time>
      </trkpt>
      <trkpt lat="49.42885" lon="1.13385">
        <ele>141</ele>
        <time>2017-01-10T15:54:43Z</time>
      </trkpt>
      <trkpt lat="49.42886" lon="1.13391">
        <ele>141</ele>
        <time>2017-01-10T15:54:43Z</time>
      </trkpt>
      <trkpt lat="49.42887" lon="1.13399">
        <ele>141</ele>
        <time>2017-01-10T15:54:43Z</time>
      </trkpt>
      <trkpt lat="49.42887" lon="1.13405">
        <ele>141</ele>
        <time>2017-01-10T15:54:59Z</time>
      </trkpt>
      <trkpt lat="49.42888" lon="1.13411">
        <ele>141</ele>
        <time>2017-01-10T15:54:59Z</time>
      </trkpt>
      <trkpt lat="49.42889" lon="1.13418">
        <ele>141</ele>
        <time>2017-01-10T15:54:59Z</time>
      </trkpt>
      <trkpt lat="49.4289" lon="1.13424">
        <ele>141</ele>
        <time>2017-01-10T15:54:59Z</time>
      </trkpt>
      <trkpt lat="49.42891" lon="1.1343">
        <ele>141</ele>
        <time>2017-01-10T15:55:15Z</time>
      </trkpt>
      <trkpt lat="49.42891" lon="1.13436">
        <ele>141</ele>
        <time>2017-01-10T15:55:15Z</time>
      </trkpt>
      <trkpt lat="49.42892" lon="1.13441">
        <ele>141</ele>
        <time>2017-01-10T15:55:15Z</time>
      </trkpt>
      <trkpt lat="49.42893" lon="1.13446">
        <ele>141</ele>
        <time>2017-01-10T15:55:15Z</time>
      </trkpt>
      <trkpt lat="49.42894" lon="1.13453">
        <ele>141</ele>
        <time>2017-01-10T15:55:31Z</time>
      </trkpt>
      <trkpt lat="49.42895" lon="1.13459">
        <ele>140</ele>
        <time>2017-01-10T15:55:31Z</time>
      </trkpt>
      <trkpt lat="49.42897" lon="1.13466">
        <ele>140</ele>
        <time>2017-01-10T15:55:31Z</time>
      </trkpt>
      <trkpt lat="49.42897" lon="1.13474">
        <ele>140</ele>
        <time>2017-01-10T15:55:31Z</time>
      </trkpt>
      <trkpt lat="49.42897" lon="1.13482">
        <ele>140</ele>
        <time>2017-01-10T15:55:47Z</time>
      </trkpt>
      <trkpt lat="49.42897" lon="1.1349">
        <ele>140</ele>
        <time>2017-01-10T15:55:47Z</time>
      </trkpt>
      <trkpt lat="49.42896" lon="1.13496">
        <ele>140</ele>
        <time>2017-01-10T15:55:47Z</time>
      </trkpt>
      <trkpt lat="49.42896" lon="1.13504">
        <ele>140</ele>
        <time>2017-01-10T15:55:47Z</time>
      </trkpt>
      <trkpt lat="49.42895" lon="1.1351">
        <ele>140</ele>
        <time>2017-01-10T15:56:03Z</time>
      </trkpt>
      <trkpt lat="49.42894" lon="1.13516">
        <ele>140</ele>
        <time>2017-01-10T15:56:03Z</time>
      </trkpt>
      <trkpt lat="49.42892" lon="1.13522">
        <ele>140</ele>
        <time>2017-01-10T15:56:03Z</time>
      </trkpt>
      <trkpt lat="49.42891" lon="1.13528">
        <ele>140</ele>
        <time>2017-01-10T15:56:03Z</time>
      </trkpt>
      <trkpt lat="49.42888" lon="1.13533">
        <ele>140</ele>
        <time>2017-01-10T15:56:19Z</time>
      </trkpt>
      <trkpt lat="49.42885" lon="1.13538">
        <ele>140</ele>
        <time>2017-01-10T15:56:19Z</time>
      </trkpt>
      <trkpt lat="49.4288" lon="1.13542">
        <ele>140</ele>
        <time>2017-01-10T15:56:19Z</time>
      </trkpt>
      <trkpt lat="49.42875" lon="1.13545">
        <ele>142</ele>
        <time>2017-01-10T15:56:19Z</time>
      </trkpt>
      <trkpt lat="49.42872" lon="1.13549">
        <ele>142</ele>
        <time>2017-01-10T15:56:35Z</time>
      </trkpt>
      <trkpt lat="49.42868" lon="1.13554">
        <ele>142</ele>
        <time>2017-01-10T15:56:35Z</time>
      </trkpt>
      <trkpt lat="49.42863" lon="1.13558">
        <ele>142</ele>
        <time>2017-01-10T15:56:35Z</time>
      </trkpt>
      <trkpt lat="49.4286" lon="1.13562">
        <ele>142</ele>
        <time>2017-01-10T15:56:35Z</time>
      </trkpt>
      <trkpt lat="49.42856" lon="1.13566">
        <ele>142</ele>
        <time>2017-01-10T15:56:51Z</time>
      </trkpt>
      <trkpt lat="49.42853" lon="1.13572">
        <ele>142</ele>
        <time>2017-01-10T15:56:51Z</time>
      </trkpt>
      <trkpt lat="49.42851" lon="1.13576">
        <ele>142</ele>
        <time>2017-01-10T15:56:51Z</time>
      </trkpt>
      <trkpt lat="49.42847" lon="1.13579">
        <ele>142</ele>
        <time>2017-01-10T15:56:51Z</time>
      </trkpt>
      <trkpt lat="49.42843" lon="1.13584">
        <ele>142</ele>
        <time>2017-01-10T15:57:07Z</time>
      </trkpt>
      <trkpt lat="49.42839" lon="1.13588">
        <ele>142</ele>
        <time>2017-01-10T15:57:07Z</time>
      </trkpt>
      <trkpt lat="49.42837" lon="1.13592">
        <ele>142</ele>
        <time>2017-01-10T15:57:07Z</time>
      </trkpt>
      <trkpt lat="49.42836" lon="1.13596">
        <ele>142</ele>
        <time>2017-01-10T15:57:07Z</time>
      </trkpt>
      <trkpt lat="49.42835" lon="1.13601">
        <ele>142</ele>
        <time>2017-01-10T15:57:23Z</time>
      </trkpt>
      <trkpt lat="49.42831" lon="1.13606">
        <ele>142</ele>
        <time>2017-01-10T15:57:23Z</time>
      </trkpt>
      <trkpt lat="49.42826" lon="1.1361">
        <ele>142</ele>
        <time>2017-01-10T15:57:23Z</time>
      </trkpt>
      <trkpt lat="49.42821" lon="1.13615">
        <ele>142</ele>
        <time>2017-01-10T15:57:23Z</time>
      </trkpt>
      <trkpt lat="49.42818" lon="1.13619">
        <ele>142</ele>
        <time>2017-01-10T15:57:39Z</time>
      </trkpt>
      <trkpt lat="49.42815" lon="1.13623">
        <ele>142</ele>
        <time>2017-01-10T15:57:39Z</time>
      </trkpt>
      <trkpt lat="49.42811" lon="1.13628">
        <ele>141</ele>
        <time>2017-01-10T15:57:39Z</time>
      </trkpt>
      <trkpt lat="49.42808" lon="1.13631">
        <ele>141</ele>
        <time>2017-01-10T15:57:39Z</time>
      </trkpt>
      <trkpt lat="49.42804" lon="1.13635">
        <ele>141</ele>
        <time>2017-01-10T15:57:55Z</time>
      </trkpt>
      <trkpt lat="49.42802" lon="1.1364">
        <ele>141</ele>
        <time>2017-01-10T15:57:55Z</time>
      </trkpt>
      <trkpt lat="49.42798" lon="1.13645">
        <ele>141</ele>
        <time>2017-01-10T15:57:55Z</time>
      </trkpt>
      <trkpt lat="49.42795" lon="1.13648">
        <ele>141</ele>
        <time>2017-01-10T15:57:55Z</time>
      </trkpt>
      <trkpt lat="49.42792" lon="1.1365">
        <ele>143</ele>
        <time>2017-01-10T15:58:11Z</time>
      </trkpt>
      <trkpt lat="49.42789" lon="1.13653">
        <ele>143</ele>
        <time>2017-01-10T15:58:11Z</time>
      </trkpt>
      <trkpt lat="49.42786" lon="1.13659">
        <ele>143</ele>
        <time>2017-01-10T15:58:11Z</time>
      </trkpt>
      <trkpt lat="49.42783" lon="1.13663">
        <ele>143</ele>
        <time>2017-01-10T15:58:11Z</time>
      </trkpt>
      <trkpt lat="49.4278" lon="1.13668">
        <ele>143</ele>
        <time>2017-01-10T15:58:27Z</time>
      </trkpt>
      <trkpt lat="49.42778" lon="1.13672">
        <ele>143</ele>
        <time>2017-01-10T15:58:27Z</time>
      </trkpt>
      <trkpt lat="49.42775" lon="1.13677">
        <ele>143</ele>
        <time>2017-01-10T15:58:27Z</time>
      </trkpt>
      <trkpt lat="49.42772" lon="1.13681">
        <ele>143</ele>
        <time>2017-01-10T15:58:27Z</time>
      </trkpt>
      <trkpt lat="49.42767" lon="1.13685">
        <ele>143</ele>
        <time>2017-01-10T15:58:43Z</time>
      </trkpt>
      <trkpt lat="49.42764" lon="1.13689">
        <ele>143</ele>
        <time>2017-01-10T15:58:43Z</time>
      </trkpt>
      <trkpt lat="49.4276" lon="1.13694">
        <ele>143</ele>
        <time>2017-01-10T15:58:43Z</time>
      </trkpt>
      <trkpt lat="49.42757" lon="1.13697">
        <ele>143</ele>
        <time>2017-01-10T15:58:43Z</time>
      </trkpt>
      <trkpt lat="49.42754" lon="1.13701">
        <ele>143</ele>
        <time>2017-01-10T15:58:59Z</time>
      </trkpt>
      <trkpt lat="49.42752" lon="1.13707">
        <ele>143</ele>
        <time>2017-01-10T15:58:59Z</time>
      </trkpt>
      <trkpt lat="49.42747" lon="1.13709">
        <ele>140</ele>
        <time>2017-01-10T15:58:59Z</time>
      </trkpt>
      <trkpt lat="49.42742" lon="1.13713">
        <ele>140</ele>
        <time>2017-01-10T15:58:59Z</time>
      </trkpt>
      <trkpt lat="49.42739" lon="1.13717">
        <ele>140</ele>
        <time>2017-01-10T15:59:15Z</time>
      </trkpt>
      <trkpt lat="49.42737" lon="1.13721">
        <ele>140</ele>
        <time>2017-01-10T15:59:15Z</time>
      </trkpt>
      <trkpt lat="49.42734" lon="1.13723">
        <ele>140</ele>
        <time>2017-01-10T15:59:15Z</time>
      </trkpt>
      <trkpt lat="49.4273" lon="1.13726">
        <ele>140</ele>
        <time>2017-01-10T15:59:15Z</time>
      </trkpt>
      <trkpt lat="49.42727" lon="1.1373">
        <ele>140</ele>
        <time>2017-01-10T15:59:31Z</time>
      </trkpt>
      <trkpt lat="49.42724" lon="1.13733">
        <ele>140</ele>
        <time>2017-01-10T15:59:31Z</time>
      </trkpt>
      <trkpt lat="49.42722" lon="1.13737">
        <ele>140</ele>
        <time>2017-01-10T15:59:31Z</time>
      </trkpt>
      <trkpt lat="49.42717" lon="1.13741">
        <ele>140</ele>
        <time>2017-01-10T15:59:31Z</time>
      </trkpt>
      <trkpt lat="49.42715" lon="1.13746">
        <ele>140</ele>
        <time>2017-01-10T15:59:47Z</time>
      </trkpt>
      <trkpt lat="49.42713" lon="1.1375">
        <ele>140</ele>
        <time>2017-01-10T15:59:47Z</time>
      </trkpt>
      <trkpt lat="49.42709" lon="1.13754">
        <ele>140</ele>
        <time>2017-01-10T15:59:47Z</time>
      </trkpt>
      <trkpt lat="49.42707" lon="1.1376">
        <ele>144</ele>
        <time>2017-01-10T15:59:47Z</time>
      </trkpt>
      <trkpt lat="49.42706" lon="1.13763">
        <ele>144</ele>
        <time>2017-01-10T16:00:03Z</time>
      </trkpt>
      <trkpt lat="49.42702" lon="1.13765">
        <ele>144</ele>
        <time>2017-01-10T16:00:03Z</time>
      </trkpt>
      <trkpt lat="49.42699" lon="1.13767">
        <ele>144</ele>
        <time>2017-01-10T16:00:03Z</time>
      </trkpt>
      <trkpt lat="49.42697" lon="1.13772">
        <ele>144</ele>
        <time>2017-01-10T16:00:03Z</time>
      </trkpt>
      <trkpt lat="49.42693" lon="1.13775">
        <ele>144</ele>
        <time>2017-01-10T16:00:19Z</time>
      </trkpt>
      <trkpt lat="49.42688" lon="1.13777">
        <ele>144</ele>
        <time>2017-01-10T16:00:19Z</time>
      </trkpt>
      <trkpt lat="49.42684" lon="1.13781">
        <ele>144</ele>
        <time>2017-01-10T16:00:19Z</time>
      </trkpt>
      <trkpt lat="49.42681" lon="1.13782">
        <ele>144</ele>
        <time>2017-01-10T16:00:19Z</time>
      </trkpt>
      <trkpt lat="49.42672" lon="1.13792">
        <ele>140</ele>
        <time>2017-01-10T16:04:43Z</time>
      </trkpt>
      <trkpt lat="49.42671" lon="1.1379">
        <ele>144</ele>
        <time>2017-01-10T16:04:43Z</time>
      </trkpt>
      <trkpt lat="49.42667" lon="1.13789">
        <ele>144</ele>
        <time>2017-01-10T16:04:43Z</time>
      </trkpt>
      <trkpt lat="49.42665" lon="1.13791">
        <ele>144</ele>
        <time>2017-01-10T16:04:43Z</time>
      </trkpt>
      <trkpt lat="49.42658" lon="1.13787">
        <ele>144</ele>
        <time>2017-01-10T16:04:43Z</time>
      </trkpt>
      <trkpt lat="49.42652" lon="1.13778">
        <ele>144</ele>
        <time>2017-01-10T16:04:59Z</time>
      </trkpt>
      <trkpt lat="49.42647" lon="1.13774">
        <ele>144</ele>
        <time>2017-01-10T16:04:59Z</time>
      </trkpt>
      <trkpt lat="49.42643" lon="1.13781">
        <ele>144</ele>
        <time>2017-01-10T16:04:59Z</time>
      </trkpt>
      <trkpt lat="49.42639" lon="1.13785">
        <ele>144</ele>
        <time>2017-01-10T16:04:59Z</time>
      </trkpt>
      <trkpt lat="49.42636" lon="1.13789">
        <ele>144</ele>
        <time>2017-01-10T16:05:15Z</time>
      </trkpt>
      <trkpt lat="49.42632" lon="1.13791">
        <ele>144</ele>
        <time>2017-01-10T16:05:15Z</time>
      </trkpt>
      <trkpt lat="49.42629" lon="1.13792">
        <ele>140</ele>
        <time>2017-01-10T16:05:15Z</time>
      </trkpt>
      <trkpt lat="49.42625" lon="1.13796">
        <ele>140</ele>
        <time>2017-01-10T16:05:15Z</time>
      </trkpt>
      <trkpt lat="49.42622" lon="1.13799">
        <ele>140</ele>
        <time>2017-01-10T16:05:31Z</time>
      </trkpt>
      <trkpt lat="49.42618" lon="1.13802">
        <ele>140</ele>
        <time>2017-01-10T16:05:31Z</time>
      </trkpt>
      <trkpt lat="49.42615" lon="1.13806">
        <ele>140</ele>
        <time>2017-01-10T16:05:31Z</time>
      </trkpt>
      <trkpt lat="49.42613" lon="1.1381">
        <ele>140</ele>
        <time>2017-01-10T16:05:31Z</time>
      </trkpt>
      <trkpt lat="49.42609" lon="1.13814">
        <ele>140</ele>
        <time>2017-01-10T16:05:47Z</time>
      </trkpt>
      <trkpt lat="49.42604" lon="1.13817">
        <ele>140</ele>
        <time>2017-01-10T16:05:47Z</time>
      </trkpt>
      <trkpt lat="49.426" lon="1.13819">
        <ele>140</ele>
        <time>2017-01-10T16:05:47Z</time>
      </trkpt>
      <trkpt lat="49.42596" lon="1.1382">
        <ele>140</ele>
        <time>2017-01-10T16:05:47Z</time>
      </trkpt>
      <trkpt lat="49.42593" lon="1.13823">
        <ele>140</ele>
        <time>2017-01-10T16:06:03Z</time>
      </trkpt>
      <trkpt lat="49.42589" lon="1.13825">
        <ele>140</ele>
        <time>2017-01-10T16:06:03Z</time>
      </trkpt>
      <trkpt lat="49.42585" lon="1.13828">
        <ele>140</ele>
        <time>2017-01-10T16:06:03Z</time>
      </trkpt>
      <trkpt lat="49.42581" lon="1.13829">
        <ele>140</ele>
        <time>2017-01-10T16:06:03Z</time>
      </trkpt>
      <trkpt lat="49.42577" lon="1.1383">
        <ele>140</ele>
        <time>2017-01-10T16:06:19Z</time>
      </trkpt>
      <trkpt lat="49.42572" lon="1.13833">
        <ele>140</ele>
        <time>2017-01-10T16:06:19Z</time>
      </trkpt>
      <trkpt lat="49.4257" lon="1.13835">
        <ele>140</ele>
        <time>2017-01-10T16:06:19Z</time>
      </trkpt>
      <trkpt lat="49.42566" lon="1.13838">
        <ele>140</ele>
        <time>2017-01-10T16:06:19Z</time>
      </trkpt>
      <trkpt lat="49.42562" lon="1.13841">
        <ele>140</ele>
        <time>2017-01-10T16:06:35Z</time>
      </trkpt>
      <trkpt lat="49.42558" lon="1.13844">
        <ele>140</ele>
        <time>2017-01-10T16:06:35Z</time>
      </trkpt>
      <trkpt lat="49.42554" lon="1.13848">
        <ele>140</ele>
        <time>2017-01-10T16:06:35Z</time>
      </trkpt>
      <trkpt lat="49.42551" lon="1.13852">
        <ele>140</ele>
        <time>2017-01-10T16:06:35Z</time>
      </trkpt>
      <trkpt lat="49.42547" lon="1.13856">
        <ele>140</ele>
        <time>2017-01-10T16:06:51Z</time>
      </trkpt>
      <trkpt lat="49.42543" lon="1.13859">
        <ele>140</ele>
        <time>2017-01-10T16:06:51Z</time>
      </trkpt>
      <trkpt lat="49.42539" lon="1.13861">
        <ele>150</ele>
        <time>2017-01-10T16:06:51Z</time>
      </trkpt>
      <trkpt lat="49.42536" lon="1.13864">
        <ele>150</ele>
        <time>2017-01-10T16:06:51Z</time>
      </trkpt>
      <trkpt lat="49.42533" lon="1.13866">
        <ele>150</ele>
        <time>2017-01-10T16:07:07Z</time>
      </trkpt>
      <trkpt lat="49.4253" lon="1.13869">
        <ele>150</ele>
        <time>2017-01-10T16:07:07Z</time>
      </trkpt>
      <trkpt lat="49.42527" lon="1.13873">
        <ele>150</ele>
        <time>2017-01-10T16:07:07Z</time>
      </trkpt>
      <trkpt lat="49.42523" lon="1.13877">
        <ele>160</ele>
        <time>2017-01-10T16:07:07Z</time>
      </trkpt>
      <trkpt lat="49.42519" lon="1.13881">
        <ele>160</ele>
        <time>2017-01-10T16:07:23Z</time>
      </trkpt>
      <trkpt lat="49.42514" lon="1.13884">
        <ele>160</ele>
        <time>2017-01-10T16:07:23Z</time>
      </trkpt>
      <trkpt lat="49.42511" lon="1.13886">
        <ele>160</ele>
        <time>2017-01-10T16:07:23Z</time>
      </trkpt>
      <trkpt lat="49.42507" lon="1.13888">
        <ele>160</ele>
        <time>2017-01-10T16:07:23Z</time>
      </trkpt>
      <trkpt lat="49.42505" lon="1.1389">
        <ele>160</ele>
        <time>2017-01-10T16:07:39Z</time>
      </trkpt>
      <trkpt lat="49.42502" lon="1.13894">
        <ele>160</ele>
        <time>2017-01-10T16:07:39Z</time>
      </trkpt>
      <trkpt lat="49.42498" lon="1.13898">
        <ele>160</ele>
        <time>2017-01-10T16:07:39Z</time>
      </trkpt>
      <trkpt lat="49.42495" lon="1.13901">
        <ele>160</ele>
        <time>2017-01-10T16:07:39Z</time>
      </trkpt>
      <trkpt lat="49.42491" lon="1.13903">
        <ele>160</ele>
        <time>2017-01-10T16:07:55Z</time>
      </trkpt>
      <trkpt lat="49.42488" lon="1.13905">
        <ele>160</ele>
        <time>2017-01-10T16:07:55Z</time>
      </trkpt>
      <trkpt lat="49.42485" lon="1.13908">
        <ele>160</ele>
        <time>2017-01-10T16:07:55Z</time>
      </trkpt>
      <trkpt lat="49.42482" lon="1.13912">
        <ele>160</ele>
        <time>2017-01-10T16:07:55Z</time>
      </trkpt>
      <trkpt lat="49.42478" lon="1.13917">
        <ele>160</ele>
        <time>2017-01-10T16:08:11Z</time>
      </trkpt>
      <trkpt lat="49.42475" lon="1.13921">
        <ele>160</ele>
        <time>2017-01-10T16:08:11Z</time>
      </trkpt>
      <trkpt lat="49.42471" lon="1.13924">
        <ele>160</ele>
        <time>2017-01-10T16:08:11Z</time>
      </trkpt>
      <trkpt lat="49.42467" lon="1.13927">
        <ele>160</ele>
        <time>2017-01-10T16:08:11Z</time>
      </trkpt>
      <trkpt lat="49.42464" lon="1.1393">
        <ele>160</ele>
        <time>2017-01-10T16:08:27Z</time>
      </trkpt>
      <trkpt lat="49.42461" lon="1.13934">
        <ele>160</ele>
        <time>2017-01-10T16:08:27Z</time>
      </trkpt>
      <trkpt lat="49.42458" lon="1.13937">
        <ele>187</ele>
        <time>2017-01-10T16:08:27Z</time>
      </trkpt>
      <trkpt lat="49.42455" lon="1.1394">
        <ele>187</ele>
        <time>2017-01-10T16:08:27Z</time>
      </trkpt>
      <trkpt lat="49.42452" lon="1.13943">
        <ele>187</ele>
        <time>2017-01-10T16:08:43Z</time>
      </trkpt>
      <trkpt lat="49.42448" lon="1.13945">
        <ele>187</ele>
        <time>2017-01-10T16:08:43Z</time>
      </trkpt>
      <trkpt lat="49.42443" lon="1.13947">
        <ele>187</ele>
        <time>2017-01-10T16:08:43Z</time>
      </trkpt>
      <trkpt lat="49.42439" lon="1.13949">
        <ele>187</ele>
        <time>2017-01-10T16:08:43Z</time>
      </trkpt>
      <trkpt lat="49.42436" lon="1.13952">
        <ele>187</ele>
        <time>2017-01-10T16:08:59Z</time>
      </trkpt>
      <trkpt lat="49.42433" lon="1.13956">
        <ele>187</ele>
        <time>2017-01-10T16:08:59Z</time>
      </trkpt>
      <trkpt lat="49.4243" lon="1.13958">
        <ele>187</ele>
        <time>2017-01-10T16:08:59Z</time>
      </trkpt>
      <trkpt lat="49.42427" lon="1.13959">
        <ele>194</ele>
        <time>2017-01-10T16:08:59Z</time>
      </trkpt>
      <trkpt lat="49.42422" lon="1.1396">
        <ele>194</ele>
        <time>2017-01-10T16:09:15Z</time>
      </trkpt>
      <trkpt lat="49.42418" lon="1.13962">
        <ele>194</ele>
        <time>2017-01-10T16:09:15Z</time>
      </trkpt>
      <trkpt lat="49.42415" lon="1.13963">
        <ele>194</ele>
        <time>2017-01-10T16:09:15Z</time>
      </trkpt>
      <trkpt lat="49.42412" lon="1.13964">
        <ele>194</ele>
        <time>2017-01-10T16:09:15Z</time>
      </trkpt>
      <trkpt lat="49.42409" lon="1.13966">
        <ele>194</ele>
        <time>2017-01-10T16:09:31Z</time>
      </trkpt>
      <trkpt lat="49.42405" lon="1.13971">
        <ele>194</ele>
        <time>2017-01-10T16:09:31Z</time>
      </trkpt>
      <trkpt lat="49.42401" lon="1.13976">
        <ele>194</ele>
        <time>2017-01-10T16:09:31Z</time>
      </trkpt>
      <trkpt lat="49.42397" lon="1.13978">
        <ele>194</ele>
        <time>2017-01-10T16:09:31Z</time>
      </trkpt>
      <trkpt lat="49.42394" lon="1.13982">
        <ele>194</ele>
        <time>2017-01-10T16:09:47Z</time>
      </trkpt>
      <trkpt lat="49.4239" lon="1.13986">
        <ele>194</ele>
        <time>2017-01-10T16:09:47Z</time>
      </trkpt>
      <trkpt lat="49.42386" lon="1.13989">
        <ele>194</ele>
        <time>2017-01-10T16:09:47Z</time>
      </trkpt>
      <trkpt lat="49.42383" lon="1.13992">
        <ele>194</ele>
        <time>2017-01-10T16:09:47Z</time>
      </trkpt>
      <trkpt lat="49.4238" lon="1.13997">
        <ele>194</ele>
        <time>2017-01-10T16:10:03Z</time>
      </trkpt>
      <trkpt lat="49.42377" lon="1.13998">
        <ele>194</ele>
        <time>2017-01-10T16:10:03Z</time>
      </trkpt>
      <trkpt lat="49.42373" lon="1.14001">
        <ele>151</ele>
        <time>2017-01-10T16:10:03Z</time>
      </trkpt>
      <trkpt lat="49.4237" lon="1.14004">
        <ele>151</ele>
        <time>2017-01-10T16:10:03Z</time>
      </trkpt>
      <trkpt lat="49.42366" lon="1.14005">
        <ele>151</ele>
        <time>2017-01-10T16:10:19Z</time>
      </trkpt>
      <trkpt lat="49.42363" lon="1.14008">
        <ele>151</ele>
        <time>2017-01-10T16:10:19Z</time>
      </trkpt>
      <trkpt lat="49.4236" lon="1.14012">
        <ele>151</ele>
        <time>2017-01-10T16:10:19Z</time>
      </trkpt>
      <trkpt lat="49.42357" lon="1.14016">
        <ele>151</ele>
        <time>2017-01-10T16:10:19Z</time>
      </trkpt>
      <trkpt lat="49.42353" lon="1.1402">
        <ele>151</ele>
        <time>2017-01-10T16:10:35Z</time>
      </trkpt>
      <trkpt lat="49.42349" lon="1.14022">
        <ele>151</ele>
        <time>2017-01-10T16:10:35Z</time>
      </trkpt>
      <trkpt lat="49.42346" lon="1.14025">
        <ele>151</ele>
        <time>2017-01-10T16:10:35Z</time>
      </trkpt>
      <trkpt lat="49.42343" lon="1.14028">
        <ele>151</ele>
        <time>2017-01-10T16:10:35Z</time>
      </trkpt>
      <trkpt lat="49.42341" lon="1.1403">
        <ele>151</ele>
        <time>2017-01-10T16:10:51Z</time>
      </trkpt>
      <trkpt lat="49.42338" lon="1.14032">
        <ele>151</ele>
        <time>2017-01-10T16:10:51Z</time>
      </trkpt>
      <trkpt lat="49.42334" lon="1.14034">
        <ele>151</ele>
        <time>2017-01-10T16:10:51Z</time>
      </trkpt>
      <trkpt lat="49.42331" lon="1.14036">
        <ele>151</ele>
        <time>2017-01-10T16:10:51Z</time>
      </trkpt>
      <trkpt lat="49.42329" lon="1.14039">
        <ele>151</ele>
        <time>2017-01-10T16:11:07Z</time>
      </trkpt>
      <trkpt lat="49.42326" lon="1.14042">
        <ele>157</ele>
        <time>2017-01-10T16:11:07Z</time>
      </trkpt>
      <trkpt lat="49.42323" lon="1.14045">
        <ele>157</ele>
        <time>2017-01-10T16:11:07Z</time>
      </trkpt>
      <trkpt lat="49.42319" lon="1.14048">
        <ele>157</ele>
        <time>2017-01-10T16:11:07Z</time>
      </trkpt>
      <trkpt lat="49.42317" lon="1.14052">
        <ele>157</ele>
        <time>2017-01-10T16:11:23Z</time>
      </trkpt>
      <trkpt lat="49.42314" lon="1.14055">
        <ele>157</ele>
        <time>2017-01-10T16:11:23Z</time>
      </trkpt>
      <trkpt lat="49.42311" lon="1.14053">
        <ele>157</ele>
        <time>2017-01-10T16:11:23Z</time>
      </trkpt>
      <trkpt lat="49.42307" lon="1.14054">
        <ele>157</ele>
        <time>2017-01-10T16:11:23Z</time>
      </trkpt>
      <trkpt lat="49.42303" lon="1.14046">
        <ele>157</ele>
        <time>2017-01-10T16:12:43Z</time>
      </trkpt>
      <trkpt lat="49.423" lon="1.14048">
        <ele>157</ele>
        <time>2017-01-10T16:12:43Z</time>
      </trkpt>
      <trkpt lat="49.42296" lon="1.14053">
        <ele>157</ele>
        <time>2017-01-10T16:12:43Z</time>
      </trkpt>
      <trkpt lat="49.42295" lon="1.1406">
        <ele>157</ele>
        <time>2017-01-10T16:12:43Z</time>
      </trkpt>
      <trkpt lat="49.42293" lon="1.14064">
        <ele>157</ele>
        <time>2017-01-10T16:12:43Z</time>
      </trkpt>
      <trkpt lat="49.42291" lon="1.14067">
        <ele>150</ele>
        <time>2017-01-10T16:12:59Z</time>
      </trkpt>
      <trkpt lat="49.42288" lon="1.1407">
        <ele>150</ele>
        <time>2017-01-10T16:12:59Z</time>
      </trkpt>
      <trkpt lat="49.42286" lon="1.14073">
        <ele>150</ele>
        <time>2017-01-10T16:12:59Z</time>
      </trkpt>
      <trkpt lat="49.42282" lon="1.14075">
        <ele>150</ele>
        <time>2017-01-10T16:12:59Z</time>
      </trkpt>
      <trkpt lat="49.42279" lon="1.14077">
        <ele>150</ele>
        <time>2017-01-10T16:13:15Z</time>
      </trkpt>
      <trkpt lat="49.42276" lon="1.1408">
        <ele>150</ele>
        <time>2017-01-10T16:13:15Z</time>
      </trkpt>
      <trkpt lat="49.42273" lon="1.14084">
        <ele>150</ele>
        <time>2017-01-10T16:13:15Z</time>
      </trkpt>
      <trkpt lat="49.42269" lon="1.14086">
        <ele>150</ele>
        <time>2017-01-10T16:13:15Z</time>
      </trkpt>
      <trkpt lat="49.42265" lon="1.14088">
        <ele>150</ele>
        <time>2017-01-10T16:13:31Z</time>
      </trkpt>
      <trkpt lat="49.42261" lon="1.14091">
        <ele>150</ele>
        <time>2017-01-10T16:13:31Z</time>
      </trkpt>
      <trkpt lat="49.42257" lon="1.14095">
        <ele>150</ele>
        <time>2017-01-10T16:13:31Z</time>
      </trkpt>
      <trkpt lat="49.42253" lon="1.14098">
        <ele>150</ele>
        <time>2017-01-10T16:13:31Z</time>
      </trkpt>
      <trkpt lat="49.4225" lon="1.14101">
        <ele>150</ele>
        <time>2017-01-10T16:13:47Z</time>
      </trkpt>
      <trkpt lat="49.42246" lon="1.14106">
        <ele>150</ele>
        <time>2017-01-10T16:13:47Z</time>
      </trkpt>
      <trkpt lat="49.42241" lon="1.14108">
        <ele>150</ele>
        <time>2017-01-10T16:13:47Z</time>
      </trkpt>
      <trkpt lat="49.42237" lon="1.14109">
        <ele>150</ele>
        <time>2017-01-10T16:13:47Z</time>
      </trkpt>
      <trkpt lat="49.42236" lon="1.14108">
        <ele>150</ele>
        <time>2017-01-10T16:14:23Z</time>
      </trkpt>
      <trkpt lat="49.42235" lon="1.14106">
        <ele>150</ele>
        <time>2017-01-10T16:14:23Z</time>
      </trkpt>
      <trkpt lat="49.42232" lon="1.14107">
        <ele>150</ele>
        <time>2017-01-10T16:14:23Z</time>
      </trkpt>
      <trkpt lat="49.42228" lon="1.1411">
        <ele>150</ele>
        <time>2017-01-10T16:14:23Z</time>
      </trkpt>
      <trkpt lat="49.42224" lon="1.14112">
        <ele>150</ele>
        <time>2017-01-10T16:14:23Z</time>
      </trkpt>
      <trkpt lat="49.42218" lon="1.14116">
        <ele>150</ele>
        <time>2017-01-10T16:14:47Z</time>
      </trkpt>
      <trkpt lat="49.42217" lon="1.14117">
        <ele>150</ele>
        <time>2017-01-10T16:14:47Z</time>
      </trkpt>
      <trkpt lat="49.42215" lon="1.1412">
        <ele>150</ele>
        <time>2017-01-10T16:14:47Z</time>
      </trkpt>
      <trkpt lat="49.42212" lon="1.14121">
        <ele>150</ele>
        <time>2017-01-10T16:14:47Z</time>
      </trkpt>
      <trkpt lat="49.4221" lon="1.14124">
        <ele>150</ele>
        <time>2017-01-10T16:14:47Z</time>
      </trkpt>
      <trkpt lat="49.42206" lon="1.14127">
        <ele>151</ele>
        <time>2017-01-10T16:15:03Z</time>
      </trkpt>
      <trkpt lat="49.42204" lon="1.14132">
        <ele>151</ele>
        <time>2017-01-10T16:15:03Z</time>
      </trkpt>
      <trkpt lat="49.422" lon="1.14135">
        <ele>151</ele>
        <time>2017-01-10T16:15:03Z</time>
      </trkpt>
      <trkpt lat="49.42197" lon="1.14137">
        <ele>151</ele>
        <time>2017-01-10T16:15:03Z</time>
      </trkpt>
      <trkpt lat="49.42194" lon="1.14142">
        <ele>151</ele>
        <time>2017-01-10T16:15:19Z</time>
      </trkpt>
      <trkpt lat="49.42192" lon="1.14147">
        <ele>151</ele>
        <time>2017-01-10T16:15:19Z</time>
      </trkpt>
      <trkpt lat="49.4219" lon="1.14151">
        <ele>151</ele>
        <time>2017-01-10T16:15:19Z</time>
      </trkpt>
      <trkpt lat="49.42186" lon="1.14155">
        <ele>151</ele>
        <time>2017-01-10T16:15:19Z</time>
      </trkpt>
      <trkpt lat="49.42184" lon="1.14159">
        <ele>151</ele>
        <time>2017-01-10T16:15:35Z</time>
      </trkpt>
      <trkpt lat="49.42181" lon="1.14164">
        <ele>151</ele>
        <time>2017-01-10T16:15:35Z</time>
      </trkpt>
      <trkpt lat="49.42179" lon="1.14168">
        <ele>151</ele>
        <time>2017-01-10T16:15:35Z</time>
      </trkpt>
      <trkpt lat="49.42176" lon="1.14173">
        <ele>151</ele>
        <time>2017-01-10T16:15:35Z</time>
      </trkpt>
      <trkpt lat="49.42171" lon="1.14177">
        <ele>151</ele>
        <time>2017-01-10T16:15:51Z</time>
      </trkpt>
      <trkpt lat="49.42165" lon="1.14177">
        <ele>151</ele>
        <time>2017-01-10T16:15:51Z</time>
      </trkpt>
      <trkpt lat="49.42159" lon="1.14176">
        <ele>151</ele>
        <time>2017-01-10T16:15:51Z</time>
      </trkpt>
      <trkpt lat="49.42153" lon="1.14177">
        <ele>151</ele>
        <time>2017-01-10T16:15:51Z</time>
      </trkpt>
      <trkpt lat="49.4215" lon="1.14181">
        <ele>151</ele>
        <time>2017-01-10T16:16:07Z</time>
      </trkpt>
      <trkpt lat="49.42148" lon="1.14185">
        <ele>151</ele>
        <time>2017-01-10T16:16:07Z</time>
      </trkpt>
      <trkpt lat="49.42144" lon="1.14188">
        <ele>151</ele>
        <time>2017-01-10T16:16:07Z</time>
      </trkpt>
      <trkpt lat="49.4214" lon="1.14191">
        <ele>151</ele>
        <time>2017-01-10T16:16:07Z</time>
      </trkpt>
      <trkpt lat="49.42137" lon="1.14197">
        <ele>151</ele>
        <time>2017-01-10T16:16:23Z</time>
      </trkpt>
      <trkpt lat="49.42132" lon="1.14199">
        <ele>151</ele>
        <time>2017-01-10T16:16:23Z</time>
      </trkpt>
      <trkpt lat="49.42128" lon="1.14202">
        <ele>151</ele>
        <time>2017-01-10T16:16:23Z</time>
      </trkpt>
      <trkpt lat="49.42124" lon="1.14205">
        <ele>151</ele>
        <time>2017-01-10T16:16:23Z</time>
      </trkpt>
      <trkpt lat="49.42122" lon="1.14209">
        <ele>151</ele>
        <time>2017-01-10T16:16:39Z</time>
      </trkpt>
      <trkpt lat="49.4212" lon="1.14214">
        <ele>151</ele>
        <time>2017-01-10T16:16:39Z</time>
      </trkpt>
      <trkpt lat="49.42117" lon="1.14219">
        <ele>151</ele>
        <time>2017-01-10T16:16:39Z</time>
      </trkpt>
      <trkpt lat="49.42112" lon="1.1422">
        <ele>151</ele>
        <time>2017-01-10T16:16:39Z</time>
      </trkpt>
      <trkpt lat="49.42108" lon="1.14222">
        <ele>151</ele>
        <time>2017-01-10T16:16:55Z</time>
      </trkpt>
      <trkpt lat="49.42104" lon="1.14226">
        <ele>151</ele>
        <time>2017-01-10T16:16:55Z</time>
      </trkpt>
      <trkpt lat="49.42102" lon="1.1423">
        <ele>151</ele>
        <time>2017-01-10T16:16:55Z</time>
      </trkpt>
      <trkpt lat="49.421" lon="1.14235">
        <ele>151</ele>
        <time>2017-01-10T16:16:55Z</time>
      </trkpt>
      <trkpt lat="49.42098" lon="1.14241">
        <ele>151</ele>
        <time>2017-01-10T16:17:11Z</time>
      </trkpt>
      <trkpt lat="49.42096" lon="1.14246">
        <ele>151</ele>
        <time>2017-01-10T16:17:11Z</time>
      </trkpt>
      <trkpt lat="49.42092" lon="1.14247">
        <ele>151</ele>
        <time>2017-01-10T16:17:11Z</time>
      </trkpt>
      <trkpt lat="49.42085" lon="1.14246">
        <ele>151</ele>
        <time>2017-01-10T16:17:11Z</time>
      </trkpt>
      <trkpt lat="49.4208" lon="1.14248">
        <ele>151</ele>
        <time>2017-01-10T16:17:27Z</time>
      </trkpt>
      <trkpt lat="49.42076" lon="1.14251">
        <ele>151</ele>
        <time>2017-01-10T16:17:27Z</time>
      </trkpt>
      <trkpt lat="49.42071" lon="1.14257">
        <ele>151</ele>
        <time>2017-01-10T16:17:27Z</time>
      </trkpt>
      <trkpt lat="49.42067" lon="1.1426">
        <ele>151</ele>
        <time>2017-01-10T16:17:27Z</time>
      </trkpt>
      <trkpt lat="49.42063" lon="1.14263">
        <ele>151</ele>
        <time>2017-01-10T16:17:43Z</time>
      </trkpt>
      <trkpt lat="49.4206" lon="1.14266">
        <ele>151</ele>
        <time>2017-01-10T16:17:43Z</time>
      </trkpt>
      <trkpt lat="49.42057" lon="1.1427">
        <ele>151</ele>
        <time>2017-01-10T16:17:43Z</time>
      </trkpt>
      <trkpt lat="49.42054" lon="1.14275">
        <ele>151</ele>
        <time>2017-01-10T16:17:43Z</time>
      </trkpt>
      <trkpt lat="49.42051" lon="1.1428">
        <ele>151</ele>
        <time>2017-01-10T16:17:59Z</time>
      </trkpt>
      <trkpt lat="49.42048" lon="1.14283">
        <ele>151</ele>
        <time>2017-01-10T16:17:59Z</time>
      </trkpt>
      <trkpt lat="49.42046" lon="1.14288">
        <ele>151</ele>
        <time>2017-01-10T16:17:59Z</time>
      </trkpt>
      <trkpt lat="49.42041" lon="1.14291">
        <ele>151</ele>
        <time>2017-01-10T16:17:59Z</time>
      </trkpt>
      <trkpt lat="49.42035" lon="1.14287">
        <ele>151</ele>
        <time>2017-01-10T16:18:15Z</time>
      </trkpt>
      <trkpt lat="49.42029" lon="1.14286">
        <ele>151</ele>
        <time>2017-01-10T16:18:15Z</time>
      </trkpt>
      <trkpt lat="49.42024" lon="1.14289">
        <ele>151</ele>
        <time>2017-01-10T16:18:15Z</time>
      </trkpt>
      <trkpt lat="49.42021" lon="1.14292">
        <ele>150</ele>
        <time>2017-01-10T16:18:15Z</time>
      </trkpt>
      <trkpt lat="49.42018" lon="1.14297">
        <ele>150</ele>
        <time>2017-01-10T16:18:31Z</time>
      </trkpt>
      <trkpt lat="49.42014" lon="1.14301">
        <ele>150</ele>
        <time>2017-01-10T16:18:31Z</time>
      </trkpt>
      <trkpt lat="49.4201" lon="1.14304">
        <ele>150</ele>
        <time>2017-01-10T16:18:31Z</time>
      </trkpt>
      <trkpt lat="49.42008" lon="1.14307">
        <ele>150</ele>
        <time>2017-01-10T16:18:31Z</time>
      </trkpt>
      <trkpt lat="49.42004" lon="1.1431">
        <ele>150</ele>
        <time>2017-01-10T16:18:47Z</time>
      </trkpt>
      <trkpt lat="49.41999" lon="1.14313">
        <ele>150</ele>
        <time>2017-01-10T16:18:47Z</time>
      </trkpt>
      <trkpt lat="49.41995" lon="1.14317">
        <ele>150</ele>
        <time>2017-01-10T16:18:47Z</time>
      </trkpt>
      <trkpt lat="49.41991" lon="1.1432">
        <ele>150</ele>
        <time>2017-01-10T16:18:47Z</time>
      </trkpt>
      <trkpt lat="49.41987" lon="1.14324">
        <ele>150</ele>
        <time>2017-01-10T16:19:03Z</time>
      </trkpt>
      <trkpt lat="49.41984" lon="1.14327">
        <ele>150</ele>
        <time>2017-01-10T16:19:03Z</time>
      </trkpt>
      <trkpt lat="49.41981" lon="1.1433">
        <ele>150</ele>
        <time>2017-01-10T16:19:03Z</time>
      </trkpt>
      <trkpt lat="49.41978" lon="1.14331">
        <ele>150</ele>
        <time>2017-01-10T16:19:03Z</time>
      </trkpt>
      <trkpt lat="49.41975" lon="1.14334">
        <ele>150</ele>
        <time>2017-01-10T16:19:19Z</time>
      </trkpt>
      <trkpt lat="49.4197" lon="1.14339">
        <ele>150</ele>
        <time>2017-01-10T16:19:19Z</time>
      </trkpt>
      <trkpt lat="49.41967" lon="1.14342">
        <ele>150</ele>
        <time>2017-01-10T16:19:19Z</time>
      </trkpt>
      <trkpt lat="49.41964" lon="1.14345">
        <ele>150</ele>
        <time>2017-01-10T16:19:19Z</time>
      </trkpt>
      <trkpt lat="49.4196" lon="1.14349">
        <ele>150</ele>
        <time>2017-01-10T16:19:35Z</time>
      </trkpt>
      <trkpt lat="49.41957" lon="1.14353">
        <ele>150</ele>
        <time>2017-01-10T16:19:35Z</time>
      </trkpt>
      <trkpt lat="49.41954" lon="1.14356">
        <ele>150</ele>
        <time>2017-01-10T16:19:35Z</time>
      </trkpt>
      <trkpt lat="49.41951" lon="1.14358">
        <ele>150</ele>
        <time>2017-01-10T16:19:35Z</time>
      </trkpt>
      <trkpt lat="49.41949" lon="1.1436">
        <ele>150</ele>
        <time>2017-01-10T16:19:51Z</time>
      </trkpt>
      <trkpt lat="49.41943" lon="1.14361">
        <ele>150</ele>
        <time>2017-01-10T16:19:51Z</time>
      </trkpt>
      <trkpt lat="49.41939" lon="1.14364">
        <ele>150</ele>
        <time>2017-01-10T16:19:51Z</time>
      </trkpt>
      <trkpt lat="49.41934" lon="1.14367">
        <ele>150</ele>
        <time>2017-01-10T16:19:51Z</time>
      </trkpt>
      <trkpt lat="49.4193" lon="1.14372">
        <ele>150</ele>
        <time>2017-01-10T16:20:07Z</time>
      </trkpt>
      <trkpt lat="49.41928" lon="1.14374">
        <ele>150</ele>
        <time>2017-01-10T16:20:07Z</time>
      </trkpt>
      <trkpt lat="49.41926" lon="1.14379">
        <ele>149</ele>
        <time>2017-01-10T16:20:07Z</time>
      </trkpt>
      <trkpt lat="49.41923" lon="1.14383">
        <ele>149</ele>
        <time>2017-01-10T16:20:07Z</time>
      </trkpt>
      <trkpt lat="49.41919" lon="1.14385">
        <ele>149</ele>
        <time>2017-01-10T16:20:23Z</time>
      </trkpt>
      <trkpt lat="49.41914" lon="1.14386">
        <ele>149</ele>
        <time>2017-01-10T16:20:23Z</time>
      </trkpt>
      <trkpt lat="49.41909" lon="1.14383">
        <ele>149</ele>
        <time>2017-01-10T16:20:23Z</time>
      </trkpt>
      <trkpt lat="49.41905" lon="1.14377">
        <ele>149</ele>
        <time>2017-01-10T16:20:23Z</time>
      </trkpt>
      <trkpt lat="49.41901" lon="1.14372">
        <ele>150</ele>
        <time>2017-01-10T16:20:39Z</time>
      </trkpt>
      <trkpt lat="49.41899" lon="1.14367">
        <ele>150</ele>
        <time>2017-01-10T16:20:39Z</time>
      </trkpt>
      <trkpt lat="49.41897" lon="1.14361">
        <ele>150</ele>
        <time>2017-01-10T16:20:39Z</time>
      </trkpt>
      <trkpt lat="49.41895" lon="1.14356">
        <ele>150</ele>
        <time>2017-01-10T16:20:39Z</time>
      </trkpt>
      <trkpt lat="49.41893" lon="1.14351">
        <ele>150</ele>
        <time>2017-01-10T16:20:55Z</time>
      </trkpt>
      <trkpt lat="49.41888" lon="1.14345">
        <ele>150</ele>
        <time>2017-01-10T16:20:55Z</time>
      </trkpt>
      <trkpt lat="49.41884" lon="1.14339">
        <ele>150</ele>
        <time>2017-01-10T16:20:55Z</time>
      </trkpt>
      <trkpt lat="49.41881" lon="1.14335">
        <ele>150</ele>
        <time>2017-01-10T16:20:55Z</time>
      </trkpt>
      <trkpt lat="49.41878" lon="1.1433">
        <ele>150</ele>
        <time>2017-01-10T16:21:11Z</time>
      </trkpt>
      <trkpt lat="49.41875" lon="1.14325">
        <ele>150</ele>
        <time>2017-01-10T16:21:11Z</time>
      </trkpt>
      <trkpt lat="49.41871" lon="1.14319">
        <ele>150</ele>
        <time>2017-01-10T16:21:11Z</time>
      </trkpt>
      <trkpt lat="49.41868" lon="1.14314">
        <ele>150</ele>
        <time>2017-01-10T16:21:11Z</time>
      </trkpt>
      <trkpt lat="49.41866" lon="1.14309">
        <ele>150</ele>
        <time>2017-01-10T16:21:27Z</time>
      </trkpt>
      <trkpt lat="49.41864" lon="1.14303">
        <ele>150</ele>
        <time>2017-01-10T16:21:27Z</time>
      </trkpt>
      <trkpt lat="49.41862" lon="1.14298">
        <ele>150</ele>
        <time>2017-01-10T16:21:27Z</time>
      </trkpt>
      <trkpt lat="49.41859" lon="1.14294">
        <ele>150</ele>
        <time>2017-01-10T16:21:27Z</time>
      </trkpt>
      <trkpt lat="49.41857" lon="1.14289">
        <ele>151</ele>
        <time>2017-01-10T16:21:43Z</time>
      </trkpt>
      <trkpt lat="49.41854" lon="1.14284">
        <ele>151</ele>
        <time>2017-01-10T16:21:43Z</time>
      </trkpt>
      <trkpt lat="49.41852" lon="1.14279">
        <ele>151</ele>
        <time>2017-01-10T16:21:43Z</time>
      </trkpt>
      <trkpt lat="49.41849" lon="1.14273">
        <ele>151</ele>
        <time>2017-01-10T16:21:43Z</time>
      </trkpt>
      <trkpt lat="49.41846" lon="1.14268">
        <ele>151</ele>
        <time>2017-01-10T16:21:59Z</time>
      </trkpt>
      <trkpt lat="49.41843" lon="1.14263">
        <ele>151</ele>
        <time>2017-01-10T16:21:59Z</time>
      </trkpt>
      <trkpt lat="49.4184" lon="1.14258">
        <ele>151</ele>
        <time>2017-01-10T16:21:59Z</time>
      </trkpt>
      <trkpt lat="49.41837" lon="1.14253">
        <ele>151</ele>
        <time>2017-01-10T16:21:59Z</time>
      </trkpt>
      <trkpt lat="49.41835" lon="1.14248">
        <ele>151</ele>
        <time>2017-01-10T16:22:15Z</time>
      </trkpt>
      <trkpt lat="49.41831" lon="1.14245">
        <ele>151</ele>
        <time>2017-01-10T16:22:15Z</time>
      </trkpt>
      <trkpt lat="49.41828" lon="1.14242">
        <ele>151</ele>
        <time>2017-01-10T16:22:15Z</time>
      </trkpt>
      <trkpt lat="49.41825" lon="1.14236">
        <ele>151</ele>
        <time>2017-01-10T16:22:15Z</time>
      </trkpt>
      <trkpt lat="49.41824" lon="1.1423">
        <ele>151</ele>
        <time>2017-01-10T16:22:31Z</time>
      </trkpt>
      <trkpt lat="49.41821" lon="1.14226">
        <ele>151</ele>
        <time>2017-01-10T16:22:31Z</time>
      </trkpt>
      <trkpt lat="49.4182" lon="1.1422">
        <ele>151</ele>
        <time>2017-01-10T16:22:31Z</time>
      </trkpt>
      <trkpt lat="49.41818" lon="1.14215">
        <ele>151</ele>
        <time>2017-01-10T16:22:31Z</time>
      </trkpt>
      <trkpt lat="49.41816" lon="1.1421">
        <ele>151</ele>
        <time>2017-01-10T16:22:47Z</time>
      </trkpt>
      <trkpt lat="49.41814" lon="1.14205">
        <ele>152</ele>
        <time>2017-01-10T16:22:47Z</time>
      </trkpt>
      <trkpt lat="49.41811" lon="1.14201">
        <ele>152</ele>
        <time>2017-01-10T16:22:47Z</time>
      </trkpt>
      <trkpt lat="49.41809" lon="1.14196">
        <ele>152</ele>
        <time>2017-01-10T16:22:47Z</time>
      </trkpt>
      <trkpt lat="49.41806" lon="1.14191">
        <ele>152</ele>
        <time>2017-01-10T16:23:03Z</time>
      </trkpt>
      <trkpt lat="49.41804" lon="1.14186">
        <ele>152</ele>
        <time>2017-01-10T16:23:03Z</time>
      </trkpt>
      <trkpt lat="49.41801" lon="1.14182">
        <ele>152</ele>
        <time>2017-01-10T16:23:03Z</time>
      </trkpt>
      <trkpt lat="49.41798" lon="1.14177">
        <ele>152</ele>
        <time>2017-01-10T16:23:03Z</time>
      </trkpt>
      <trkpt lat="49.41792" lon="1.14174">
        <ele>152</ele>
        <time>2017-01-10T16:23:19Z</time>
      </trkpt>
      <trkpt lat="49.41786" lon="1.14173">
        <ele>152</ele>
        <time>2017-01-10T16:23:19Z</time>
      </trkpt>
      <trkpt lat="49.41782" lon="1.14173">
        <ele>152</ele>
        <time>2017-01-10T16:23:19Z</time>
      </trkpt>
      <trkpt lat="49.41779" lon="1.1417">
        <ele>152</ele>
        <time>2017-01-10T16:23:19Z</time>
      </trkpt>
      <trkpt lat="49.41775" lon="1.14167">
        <ele>152</ele>
        <time>2017-01-10T16:23:35Z</time>
      </trkpt>
      <trkpt lat="49.4177" lon="1.14165">
        <ele>152</ele>
        <time>2017-01-10T16:23:35Z</time>
      </trkpt>
      <trkpt lat="49.41765" lon="1.14162">
        <ele>152</ele>
        <time>2017-01-10T16:23:35Z</time>
      </trkpt>
      <trkpt lat="49.4176" lon="1.14158">
        <ele>152</ele>
        <time>2017-01-10T16:23:35Z</time>
      </trkpt>
      <trkpt lat="49.41757" lon="1.14155">
        <ele>152</ele>
        <time>2017-01-10T16:23:51Z</time>
      </trkpt>
      <trkpt lat="49.41753" lon="1.1415">
        <ele>152</ele>
        <time>2017-01-10T16:23:51Z</time>
      </trkpt>
      <trkpt lat="49.41749" lon="1.14146">
        <ele>152</ele>
        <time>2017-01-10T16:23:51Z</time>
      </trkpt>
      <trkpt lat="49.41744" lon="1.14143">
        <ele>152</ele>
        <time>2017-01-10T16:23:51Z</time>
      </trkpt>
      <trkpt lat="49.41741" lon="1.14141">
        <ele>152</ele>
        <time>2017-01-10T16:24:07Z</time>
      </trkpt>
      <trkpt lat="49.41738" lon="1.14138">
        <ele>152</ele>
        <time>2017-01-10T16:24:07Z</time>
      </trkpt>
      <trkpt lat="49.41734" lon="1.14135">
        <ele>152</ele>
        <time>2017-01-10T16:24:07Z</time>
      </trkpt>
      <trkpt lat="49.41731" lon="1.14133">
        <ele>152</ele>
        <time>2017-01-10T16:24:07Z</time>
      </trkpt>
      <trkpt lat="49.41727" lon="1.1413">
        <ele>152</ele>
        <time>2017-01-10T16:24:23Z</time>
      </trkpt>
      <trkpt lat="49.41724" lon="1.14126">
        <ele>152</ele>
        <time>2017-01-10T16:24:23Z</time>
      </trkpt>
      <trkpt lat="49.41721" lon="1.14122">
        <ele>153</ele>
        <time>2017-01-10T16:24:23Z</time>
      </trkpt>
      <trkpt lat="49.41718" lon="1.14119">
        <ele>153</ele>
        <time>2017-01-10T16:24:23Z</time>
      </trkpt>
      <trkpt lat="49.41715" lon="1.14116">
        <ele>153</ele>
        <time>2017-01-10T16:24:39Z</time>
      </trkpt>
      <trkpt lat="49.41712" lon="1.14111">
        <ele>153</ele>
        <time>2017-01-10T16:24:39Z</time>
      </trkpt>
      <trkpt lat="49.4171" lon="1.14106">
        <ele>153</ele>
        <time>2017-01-10T16:24:39Z</time>
      </trkpt>
      <trkpt lat="49.41708" lon="1.141">
        <ele>155</ele>
        <time>2017-01-10T16:24:39Z</time>
      </trkpt>
      <trkpt lat="49.41706" lon="1.14095">
        <ele>155</ele>
        <time>2017-01-10T16:24:55Z</time>
      </trkpt>
      <trkpt lat="49.41705" lon="1.14089">
        <ele>155</ele>
        <time>2017-01-10T16:24:55Z</time>
      </trkpt>
      <trkpt lat="49.41704" lon="1.14083">
        <ele>155</ele>
        <time>2017-01-10T16:24:55Z</time>
      </trkpt>
      <trkpt lat="49.41703" lon="1.14077">
        <ele>155</ele>
        <time>2017-01-10T16:24:55Z</time>
      </trkpt>
      <trkpt lat="49.41702" lon="1.14071">
        <ele>155</ele>
        <time>2017-01-10T16:25:11Z</time>
      </trkpt>
      <trkpt lat="49.417" lon="1.14064">
        <ele>155</ele>
        <time>2017-01-10T16:25:11Z</time>
      </trkpt>
      <trkpt lat="49.41697" lon="1.14057">
        <ele>155</ele>
        <time>2017-01-10T16:25:11Z</time>
      </trkpt>
      <trkpt lat="49.41693" lon="1.14052">
        <ele>155</ele>
        <time>2017-01-10T16:25:11Z</time>
      </trkpt>
      <trkpt lat="49.41691" lon="1.14046">
        <ele>155</ele>
        <time>2017-01-10T16:25:27Z</time>
      </trkpt>
      <trkpt lat="49.4169" lon="1.1404">
        <ele>156</ele>
        <time>2017-01-10T16:25:27Z</time>
      </trkpt>
      <trkpt lat="49.41689" lon="1.14035">
        <ele>156</ele>
        <time>2017-01-10T16:25:27Z</time>
      </trkpt>
      <trkpt lat="49.41687" lon="1.14029">
        <ele>156</ele>
        <time>2017-01-10T16:25:27Z</time>
      </trkpt>
      <trkpt lat="49.41685" lon="1.14024">
        <ele>156</ele>
        <time>2017-01-10T16:25:43Z</time>
      </trkpt>
      <trkpt lat="49.41682" lon="1.1402">
        <ele>156</ele>
        <time>2017-01-10T16:25:43Z</time>
      </trkpt>
      <trkpt lat="49.41679" lon="1.14016">
        <ele>156</ele>
        <time>2017-01-10T16:25:43Z</time>
      </trkpt>
      <trkpt lat="49.41677" lon="1.14011">
        <ele>156</ele>
        <time>2017-01-10T16:25:43Z</time>
      </trkpt>
      <trkpt lat="49.41674" lon="1.14006">
        <ele>156</ele>
        <time>2017-01-10T16:25:59Z</time>
      </trkpt>
      <trkpt lat="49.41671" lon="1.14002">
        <ele>156</ele>
        <time>2017-01-10T16:25:59Z</time>
      </trkpt>
      <trkpt lat="49.41667" lon="1.14">
        <ele>156</ele>
        <time>2017-01-10T16:25:59Z</time>
      </trkpt>
      <trkpt lat="49.41661" lon="1.14005">
        <ele>156</ele>
        <time>2017-01-10T16:25:59Z</time>
      </trkpt>
      <trkpt lat="49.41655" lon="1.14008">
        <ele>156</ele>
        <time>2017-01-10T16:26:15Z</time>
      </trkpt>
      <trkpt lat="49.4165" lon="1.14009">
        <ele>156</ele>
        <time>2017-01-10T16:26:15Z</time>
      </trkpt>
      <trkpt lat="49.41644" lon="1.1401">
        <ele>156</ele>
        <time>2017-01-10T16:26:15Z</time>
      </trkpt>
      <trkpt lat="49.4164" lon="1.14012">
        <ele>156</ele>
        <time>2017-01-10T16:26:15Z</time>
      </trkpt>
      <trkpt lat="49.41636" lon="1.14016">
        <ele>156</ele>
        <time>2017-01-10T16:26:31Z</time>
      </trkpt>
      <trkpt lat="49.41633" lon="1.14018">
        <ele>156</ele>
        <time>2017-01-10T16:26:31Z</time>
      </trkpt>
      <trkpt lat="49.41628" lon="1.1402">
        <ele>156</ele>
        <time>2017-01-10T16:26:31Z</time>
      </trkpt>
      <trkpt lat="49.41625" lon="1.14025">
        <ele>156</ele>
        <time>2017-01-10T16:26:31Z</time>
      </trkpt>
      <trkpt lat="49.41622" lon="1.14029">
        <ele>158</ele>
        <time>2017-01-10T16:26:47Z</time>
      </trkpt>
      <trkpt lat="49.41619" lon="1.14033">
        <ele>158</ele>
        <time>2017-01-10T16:26:47Z</time>
      </trkpt>
      <trkpt lat="49.41617" lon="1.14038">
        <ele>158</ele>
        <time>2017-01-10T16:26:47Z</time>
      </trkpt>
      <trkpt lat="49.41615" lon="1.14043">
        <ele>155</ele>
        <time>2017-01-10T16:26:47Z</time>
      </trkpt>
      <trkpt lat="49.41612" lon="1.14047">
        <ele>155</ele>
        <time>2017-01-10T16:27:03Z</time>
      </trkpt>
      <trkpt lat="49.41609" lon="1.1405">
        <ele>155</ele>
        <time>2017-01-10T16:27:03Z</time>
      </trkpt>
      <trkpt lat="49.41606" lon="1.14054">
        <ele>155</ele>
        <time>2017-01-10T16:27:03Z</time>
      </trkpt>
      <trkpt lat="49.41601" lon="1.14059">
        <ele>155</ele>
        <time>2017-01-10T16:27:03Z</time>
      </trkpt>
      <trkpt lat="49.41598" lon="1.14065">
        <ele>155</ele>
        <time>2017-01-10T16:27:19Z</time>
      </trkpt>
      <trkpt lat="49.41596" lon="1.14071">
        <ele>155</ele>
        <time>2017-01-10T16:27:19Z</time>
      </trkpt>
      <trkpt lat="49.41595" lon="1.14074">
        <ele>155</ele>
        <time>2017-01-10T16:27:19Z</time>
      </trkpt>
      <trkpt lat="49.41593" lon="1.14082">
        <ele>155</ele>
        <time>2017-01-10T16:27:19Z</time>
      </trkpt>
      <trkpt lat="49.41591" lon="1.14089">
        <ele>155</ele>
        <time>2017-01-10T16:27:35Z</time>
      </trkpt>
      <trkpt lat="49.41589" lon="1.14095">
        <ele>155</ele>
        <time>2017-01-10T16:27:35Z</time>
      </trkpt>
      <trkpt lat="49.41588" lon="1.14102">
        <ele>155</ele>
        <time>2017-01-10T16:27:35Z</time>
      </trkpt>
      <trkpt lat="49.41588" lon="1.14107">
        <ele>155</ele>
        <time>2017-01-10T16:27:35Z</time>
      </trkpt>
      <trkpt lat="49.41587" lon="1.14113">
        <ele>155</ele>
        <time>2017-01-10T16:27:51Z</time>
      </trkpt>
      <trkpt lat="49.41587" lon="1.14119">
        <ele>155</ele>
        <time>2017-01-10T16:27:51Z</time>
      </trkpt>
      <trkpt lat="49.41587" lon="1.14125">
        <ele>151</ele>
        <time>2017-01-10T16:27:51Z</time>
      </trkpt>
      <trkpt lat="49.41586" lon="1.14133">
        <ele>151</ele>
        <time>2017-01-10T16:27:51Z</time>
      </trkpt>
      <trkpt lat="49.41585" lon="1.14139">
        <ele>151</ele>
        <time>2017-01-10T16:28:07Z</time>
      </trkpt>
      <trkpt lat="49.41584" lon="1.14146">
        <ele>151</ele>
        <time>2017-01-10T16:28:07Z</time>
      </trkpt>
      <trkpt lat="49.41579" lon="1.14153">
        <ele>151</ele>
        <time>2017-01-10T16:28:07Z</time>
      </trkpt>
      <trkpt lat="49.41575" lon="1.1416">
        <ele>151</ele>
        <time>2017-01-10T16:28:07Z</time>
      </trkpt>
      <trkpt lat="49.4157" lon="1.14166">
        <ele>151</ele>
        <time>2017-01-10T16:28:23Z</time>
      </trkpt>
      <trkpt lat="49.41568" lon="1.14171">
        <ele>151</ele>
        <time>2017-01-10T16:28:23Z</time>
      </trkpt>
      <trkpt lat="49.41566" lon="1.14176">
        <ele>151</ele>
        <time>2017-01-10T16:28:23Z</time>
      </trkpt>
      <trkpt lat="49.41563" lon="1.14182">
        <ele>151</ele>
        <time>2017-01-10T16:28:23Z</time>
      </trkpt>
      <trkpt lat="49.4156" lon="1.14188">
        <ele>151</ele>
        <time>2017-01-10T16:28:39Z</time>
      </trkpt>
      <trkpt lat="49.41557" lon="1.14195">
        <ele>151</ele>
        <time>2017-01-10T16:28:39Z</time>
      </trkpt>
      <trkpt lat="49.41555" lon="1.14202">
        <ele>151</ele>
        <time>2017-01-10T16:28:39Z</time>
      </trkpt>
      <trkpt lat="49.41553" lon="1.14207">
        <ele>151</ele>
        <time>2017-01-10T16:28:39Z</time>
      </trkpt>
      <trkpt lat="49.41551" lon="1.14212">
        <ele>149</ele>
        <time>2017-01-10T16:28:55Z</time>
      </trkpt>
      <trkpt lat="49.41548" lon="1.14215">
        <ele>149</ele>
        <time>2017-01-10T16:28:55Z</time>
      </trkpt>
      <trkpt lat="49.41545" lon="1.1422">
        <ele>149</ele>
        <time>2017-01-10T16:28:55Z</time>
      </trkpt>
      <trkpt lat="49.41544" lon="1.14225">
        <ele>149</ele>
        <time>2017-01-10T16:28:55Z</time>
      </trkpt>
      <trkpt lat="49.41542" lon="1.1423">
        <ele>151</ele>
        <time>2017-01-10T16:29:11Z</time>
      </trkpt>
      <trkpt lat="49.4154" lon="1.14234">
        <ele>151</ele>
        <time>2017-01-10T16:29:11Z</time>
      </trkpt>
      <trkpt lat="49.41537" lon="1.14238">
        <ele>151</ele>
        <time>2017-01-10T16:29:11Z</time>
      </trkpt>
      <trkpt lat="49.41533" lon="1.14245">
        <ele>151</ele>
        <time>2017-01-10T16:29:11Z</time>
      </trkpt>
      <trkpt lat="49.4153" lon="1.1425">
        <ele>151</ele>
        <time>2017-01-10T16:29:27Z</time>
      </trkpt>
      <trkpt lat="49.41526" lon="1.14255">
        <ele>151</ele>
        <time>2017-01-10T16:29:27Z</time>
      </trkpt>
      <trkpt lat="49.41524" lon="1.1426">
        <ele>151</ele>
        <time>2017-01-10T16:29:27Z</time>
      </trkpt>
      <trkpt lat="49.41523" lon="1.14264">
        <ele>151</ele>
        <time>2017-01-10T16:29:27Z</time>
      </trkpt>
      <trkpt lat="49.41521" lon="1.14269">
        <ele>151</ele>
        <time>2017-01-10T16:29:43Z</time>
      </trkpt>
      <trkpt lat="49.41519" lon="1.14272">
        <ele>151</ele>
        <time>2017-01-10T16:29:43Z</time>
      </trkpt>
      <trkpt lat="49.41518" lon="1.14279">
        <ele>151</ele>
        <time>2017-01-10T16:29:43Z</time>
      </trkpt>
      <trkpt lat="49.41515" lon="1.14284">
        <ele>151</ele>
        <time>2017-01-10T16:29:43Z</time>
      </trkpt>
      <trkpt lat="49.41513" lon="1.14289">
        <ele>151</ele>
        <time>2017-01-10T16:29:59Z</time>
      </trkpt>
      <trkpt lat="49.41511" lon="1.14295">
        <ele>152</ele>
        <time>2017-01-10T16:29:59Z</time>
      </trkpt>
      <trkpt lat="49.41509" lon="1.14302">
        <ele>152</ele>
        <time>2017-01-10T16:29:59Z</time>
      </trkpt>
      <trkpt lat="49.41509" lon="1.14308">
        <ele>152</ele>
        <time>2017-01-10T16:29:59Z</time>
      </trkpt>
      <trkpt lat="49.41508" lon="1.14313">
        <ele>152</ele>
        <time>2017-01-10T16:30:15Z</time>
      </trkpt>
      <trkpt lat="49.41508" lon="1.14319">
        <ele>152</ele>
        <time>2017-01-10T16:30:15Z</time>
      </trkpt>
      <trkpt lat="49.41507" lon="1.14325">
        <ele>152</ele>
        <time>2017-01-10T16:30:15Z</time>
      </trkpt>
      <trkpt lat="49.41506" lon="1.14331">
        <ele>152</ele>
        <time>2017-01-10T16:30:15Z</time>
      </trkpt>
      <trkpt lat="49.41504" lon="1.14336">
        <ele>152</ele>
        <time>2017-01-10T16:30:31Z</time>
      </trkpt>
      <trkpt lat="49.41502" lon="1.14341">
        <ele>152</ele>
        <time>2017-01-10T16:30:31Z</time>
      </trkpt>
      <trkpt lat="49.415" lon="1.14347">
        <ele>152</ele>
        <time>2017-01-10T16:30:31Z</time>
      </trkpt>
      <trkpt lat="49.41498" lon="1.14352">
        <ele>152</ele>
        <time>2017-01-10T16:30:31Z</time>
      </trkpt>
      <trkpt lat="49.41498" lon="1.14358">
        <ele>152</ele>
        <time>2017-01-10T16:30:47Z</time>
      </trkpt>
      <trkpt lat="49.41496" lon="1.14364">
        <ele>152</ele>
        <time>2017-01-10T16:30:47Z</time>
      </trkpt>
      <trkpt lat="49.41495" lon="1.1437">
        <ele>152</ele>
        <time>2017-01-10T16:30:47Z</time>
      </trkpt>
      <trkpt lat="49.41494" lon="1.14377">
        <ele>149</ele>
        <time>2017-01-10T16:30:47Z</time>
      </trkpt>
      <trkpt lat="49.41492" lon="1.14383">
        <ele>149</ele>
        <time>2017-01-10T16:31:03Z</time>
      </trkpt>
      <trkpt lat="49.4149" lon="1.14388">
        <ele>149</ele>
        <time>2017-01-10T16:31:03Z</time>
      </trkpt>
      <trkpt lat="49.41488" lon="1.14394">
        <ele>149</ele>
        <time>2017-01-10T16:31:03Z</time>
      </trkpt>
      <trkpt lat="49.41486" lon="1.14401">
        <ele>149</ele>
        <time>2017-01-10T16:31:03Z</time>
      </trkpt>
      <trkpt lat="49.41484" lon="1.14406">
        <ele>149</ele>
        <time>2017-01-10T16:31:19Z</time>
      </trkpt>
      <trkpt lat="49.41481" lon="1.14411">
        <ele>149</ele>
        <time>2017-01-10T16:31:19Z</time>
      </trkpt>
      <trkpt lat="49.41479" lon="1.14417">
        <ele>149</ele>
        <time>2017-01-10T16:31:19Z</time>
      </trkpt>
      <trkpt lat="49.41478" lon="1.14425">
        <ele>149</ele>
        <time>2017-01-10T16:31:19Z</time>
      </trkpt>
      <trkpt lat="49.41477" lon="1.14429">
        <ele>149</ele>
        <time>2017-01-10T16:31:35Z</time>
      </trkpt>
      <trkpt lat="49.41475" lon="1.14433">
        <ele>149</ele>
        <time>2017-01-10T16:31:35Z</time>
      </trkpt>
      <trkpt lat="49.41473" lon="1.14436">
        <ele>149</ele>
        <time>2017-01-10T16:31:35Z</time>
      </trkpt>
      <trkpt lat="49.4147" lon="1.14442">
        <ele>149</ele>
        <time>2017-01-10T16:31:35Z</time>
      </trkpt>
      <trkpt lat="49.41468" lon="1.14448">
        <ele>149</ele>
        <time>2017-01-10T16:31:51Z</time>
      </trkpt>
      <trkpt lat="49.41464" lon="1.14453">
        <ele>149</ele>
        <time>2017-01-10T16:31:51Z</time>
      </trkpt>
      <trkpt lat="49.41461" lon="1.14458">
        <ele>149</ele>
        <time>2017-01-10T16:31:51Z</time>
      </trkpt>
      <trkpt lat="49.41457" lon="1.14463">
        <ele>151</ele>
        <time>2017-01-10T16:31:51Z</time>
      </trkpt>
      <trkpt lat="49.41454" lon="1.14468">
        <ele>151</ele>
        <time>2017-01-10T16:32:07Z</time>
      </trkpt>
      <trkpt lat="49.41451" lon="1.1447">
        <ele>151</ele>
        <time>2017-01-10T16:32:07Z</time>
      </trkpt>
      <trkpt lat="49.41448" lon="1.14473">
        <ele>151</ele>
        <time>2017-01-10T16:32:07Z</time>
      </trkpt>
      <trkpt lat="49.41445" lon="1.14477">
        <ele>151</ele>
        <time>2017-01-10T16:32:07Z</time>
      </trkpt>
      <trkpt lat="49.41443" lon="1.14483">
        <ele>151</ele>
        <time>2017-01-10T16:32:23Z</time>
      </trkpt>
      <trkpt lat="49.41441" lon="1.14488">
        <ele>151</ele>
        <time>2017-01-10T16:32:23Z</time>
      </trkpt>
      <trkpt lat="49.41439" lon="1.14492">
        <ele>151</ele>
        <time>2017-01-10T16:32:23Z</time>
      </trkpt>
      <trkpt lat="49.41436" lon="1.14497">
        <ele>151</ele>
        <time>2017-01-10T16:32:23Z</time>
      </trkpt>
      <trkpt lat="49.41434" lon="1.145">
        <ele>151</ele>
        <time>2017-01-10T16:32:39Z</time>
      </trkpt>
      <trkpt lat="49.41429" lon="1.14503">
        <ele>151</ele>
        <time>2017-01-10T16:32:39Z</time>
      </trkpt>
      <trkpt lat="49.41425" lon="1.14505">
        <ele>151</ele>
        <time>2017-01-10T16:32:39Z</time>
      </trkpt>
      <trkpt lat="49.41423" lon="1.14507">
        <ele>151</ele>
        <time>2017-01-10T16:32:39Z</time>
      </trkpt>
      <trkpt lat="49.41418" lon="1.14511">
        <ele>151</ele>
        <time>2017-01-10T16:32:55Z</time>
      </trkpt>
      <trkpt lat="49.41414" lon="1.14515">
        <ele>151</ele>
        <time>2017-01-10T16:32:55Z</time>
      </trkpt>
      <trkpt lat="49.41412" lon="1.1452">
        <ele>151</ele>
        <time>2017-01-10T16:32:55Z</time>
      </trkpt>
      <trkpt lat="49.41409" lon="1.14524">
        <ele>151</ele>
        <time>2017-01-10T16:32:55Z</time>
      </trkpt>
      <trkpt lat="49.41404" lon="1.14526">
        <ele>151</ele>
        <time>2017-01-10T16:33:11Z</time>
      </trkpt>
      <trkpt lat="49.41396" lon="1.14527">
        <ele>151</ele>
        <time>2017-01-10T16:33:11Z</time>
      </trkpt>
      <trkpt lat="49.41391" lon="1.14527">
        <ele>151</ele>
        <time>2017-01-10T16:33:11Z</time>
      </trkpt>
      <trkpt lat="49.41386" lon="1.14531">
        <ele>151</ele>
        <time>2017-01-10T16:33:11Z</time>
      </trkpt>
      <trkpt lat="49.41381" lon="1.14535">
        <ele>151</ele>
        <time>2017-01-10T16:33:27Z</time>
      </trkpt>
      <trkpt lat="49.41377" lon="1.1454">
        <ele>151</ele>
        <time>2017-01-10T16:33:27Z</time>
      </trkpt>
      <trkpt lat="49.41375" lon="1.14545">
        <ele>153</ele>
        <time>2017-01-10T16:33:27Z</time>
      </trkpt>
      <trkpt lat="49.41373" lon="1.1455">
        <ele>153</ele>
        <time>2017-01-10T16:33:27Z</time>
      </trkpt>
      <trkpt lat="49.41372" lon="1.14555">
        <ele>153</ele>
        <time>2017-01-10T16:33:43Z</time>
      </trkpt>
      <trkpt lat="49.4137" lon="1.14559">
        <ele>153</ele>
        <time>2017-01-10T16:33:43Z</time>
      </trkpt>
      <trkpt lat="49.41367" lon="1.14563">
        <ele>153</ele>
        <time>2017-01-10T16:33:43Z</time>
      </trkpt>
      <trkpt lat="49.41364" lon="1.14567">
        <ele>153</ele>
        <time>2017-01-10T16:33:43Z</time>
      </trkpt>
      <trkpt lat="49.41361" lon="1.1457">
        <ele>153</ele>
        <time>2017-01-10T16:33:59Z</time>
      </trkpt>
      <trkpt lat="49.41358" lon="1.14575">
        <ele>153</ele>
        <time>2017-01-10T16:33:59Z</time>
      </trkpt>
      <trkpt lat="49.41354" lon="1.14579">
        <ele>153</ele>
        <time>2017-01-10T16:33:59Z</time>
      </trkpt>
      <trkpt lat="49.41352" lon="1.14584">
        <ele>153</ele>
        <time>2017-01-10T16:33:59Z</time>
      </trkpt>
      <trkpt lat="49.4135" lon="1.14589">
        <ele>153</ele>
        <time>2017-01-10T16:34:15Z</time>
      </trkpt>
      <trkpt lat="49.41349" lon="1.14595">
        <ele>153</ele>
        <time>2017-01-10T16:34:15Z</time>
      </trkpt>
      <trkpt lat="49.41345" lon="1.14599">
        <ele>153</ele>
        <time>2017-01-10T16:34:15Z</time>
      </trkpt>
      <trkpt lat="49.41343" lon="1.14605">
        <ele>153</ele>
        <time>2017-01-10T16:34:15Z</time>
      </trkpt>
      <trkpt lat="49.41338" lon="1.14607">
        <ele>153</ele>
        <time>2017-01-10T16:34:31Z</time>
      </trkpt>
      <trkpt lat="49.41334" lon="1.14606">
        <ele>153</ele>
        <time>2017-01-10T16:34:31Z</time>
      </trkpt>
      <trkpt lat="49.4133" lon="1.1461">
        <ele>153</ele>
        <time>2017-01-10T16:34:31Z</time>
      </trkpt>
      <trkpt lat="49.41327" lon="1.14613">
        <ele>153</ele>
        <time>2017-01-10T16:34:31Z</time>
      </trkpt>
      <trkpt lat="49.41323" lon="1.14611">
        <ele>153</ele>
        <time>2017-01-10T16:34:47Z</time>
      </trkpt>
      <trkpt lat="49.41319" lon="1.14608">
        <ele>153</ele>
        <time>2017-01-10T16:34:47Z</time>
      </trkpt>
      <trkpt lat="49.41315" lon="1.14606">
        <ele>153</ele>
        <time>2017-01-10T16:34:47Z</time>
      </trkpt>
      <trkpt lat="49.41311" lon="1.14608">
        <ele>153</ele>
        <time>2017-01-10T16:34:47Z</time>
      </trkpt>
      <trkpt lat="49.41308" lon="1.14611">
        <ele>153</ele>
        <time>2017-01-10T16:35:03Z</time>
      </trkpt>
      <trkpt lat="49.41304" lon="1.14615">
        <ele>153</ele>
        <time>2017-01-10T16:35:03Z</time>
      </trkpt>
      <trkpt lat="49.41301" lon="1.14617">
        <ele>153</ele>
        <time>2017-01-10T16:35:03Z</time>
      </trkpt>
      <trkpt lat="49.41297" lon="1.14616">
        <ele>153</ele>
        <time>2017-01-10T16:35:03Z</time>
      </trkpt>
      <trkpt lat="49.41292" lon="1.1461">
        <ele>153</ele>
        <time>2017-01-10T16:35:19Z</time>
      </trkpt>
      <trkpt lat="49.41287" lon="1.14607">
        <ele>155</ele>
        <time>2017-01-10T16:35:19Z</time>
      </trkpt>
      <trkpt lat="49.41283" lon="1.14604">
        <ele>155</ele>
        <time>2017-01-10T16:35:19Z</time>
      </trkpt>
      <trkpt lat="49.41279" lon="1.14602">
        <ele>155</ele>
        <time>2017-01-10T16:35:19Z</time>
      </trkpt>
      <trkpt lat="49.41272" lon="1.14596">
        <ele>155</ele>
        <time>2017-01-10T16:35:43Z</time>
      </trkpt>
      <trkpt lat="49.41269" lon="1.14594">
        <ele>155</ele>
        <time>2017-01-10T16:35:43Z</time>
      </trkpt>
      <trkpt lat="49.41267" lon="1.14598">
        <ele>155</ele>
        <time>2017-01-10T16:35:43Z</time>
      </trkpt>
      <trkpt lat="49.41267" lon="1.14602">
        <ele>155</ele>
        <time>2017-01-10T16:35:43Z</time>
      </trkpt>
      <trkpt lat="49.41267" lon="1.14608">
        <ele>155</ele>
        <time>2017-01-10T16:35:43Z</time>
      </trkpt>
      <trkpt lat="49.41266" lon="1.14614">
        <ele>155</ele>
        <time>2017-01-10T16:35:59Z</time>
      </trkpt>
      <trkpt lat="49.41264" lon="1.14619">
        <ele>155</ele>
        <time>2017-01-10T16:35:59Z</time>
      </trkpt>
      <trkpt lat="49.41265" lon="1.14624">
        <ele>155</ele>
        <time>2017-01-10T16:35:59Z</time>
      </trkpt>
      <trkpt lat="49.41266" lon="1.1463">
        <ele>155</ele>
        <time>2017-01-10T16:35:59Z</time>
      </trkpt>
      <trkpt lat="49.41267" lon="1.14636">
        <ele>155</ele>
        <time>2017-01-10T16:36:15Z</time>
      </trkpt>
      <trkpt lat="49.41267" lon="1.14642">
        <ele>155</ele>
        <time>2017-01-10T16:36:15Z</time>
      </trkpt>
      <trkpt lat="49.41266" lon="1.1465">
        <ele>155</ele>
        <time>2017-01-10T16:36:15Z</time>
      </trkpt>
      <trkpt lat="49.41266" lon="1.14656">
        <ele>155</ele>
        <time>2017-01-10T16:36:15Z</time>
      </trkpt>
      <trkpt lat="49.41263" lon="1.14666">
        <ele>155</ele>
        <time>2017-01-10T16:37:51Z</time>
      </trkpt>
      <trkpt lat="49.41262" lon="1.14666">
        <ele>155</ele>
        <time>2017-01-10T16:37:51Z</time>
      </trkpt>
      <trkpt lat="49.41257" lon="1.14675">
        <ele>155</ele>
        <time>2017-01-10T16:37:51Z</time>
      </trkpt>
      <trkpt lat="49.4126" lon="1.14684">
        <ele>155</ele>
        <time>2017-01-10T16:37:51Z</time>
      </trkpt>
      <trkpt lat="49.41261" lon="1.14692">
        <ele>155</ele>
        <time>2017-01-10T16:37:51Z</time>
      </trkpt>
      <trkpt lat="49.4126" lon="1.147">
        <ele>155</ele>
        <time>2017-01-10T16:38:07Z</time>
      </trkpt>
      <trkpt lat="49.4126" lon="1.14707">
        <ele>155</ele>
        <time>2017-01-10T16:38:07Z</time>
      </trkpt>
      <trkpt lat="49.41259" lon="1.14715">
        <ele>154</ele>
        <time>2017-01-10T16:38:07Z</time>
      </trkpt>
      <trkpt lat="49.41258" lon="1.14722">
        <ele>154</ele>
        <time>2017-01-10T16:38:07Z</time>
      </trkpt>
      <trkpt lat="49.41257" lon="1.14729">
        <ele>154</ele>
        <time>2017-01-10T16:38:23Z</time>
      </trkpt>
      <trkpt lat="49.41256" lon="1.14735">
        <ele>154</ele>
        <time>2017-01-10T16:38:23Z</time>
      </trkpt>
      <trkpt lat="49.41256" lon="1.14743">
        <ele>154</ele>
        <time>2017-01-10T16:38:23Z</time>
      </trkpt>
      <trkpt lat="49.41256" lon="1.14749">
        <ele>154</ele>
        <time>2017-01-10T16:38:23Z</time>
      </trkpt>
      <trkpt lat="49.41256" lon="1.14756">
        <ele>154</ele>
        <time>2017-01-10T16:38:39Z</time>
      </trkpt>
      <trkpt lat="49.41256" lon="1.14762">
        <ele>154</ele>
        <time>2017-01-10T16:38:39Z</time>
      </trkpt>
      <trkpt lat="49.41257" lon="1.14769">
        <ele>154</ele>
        <time>2017-01-10T16:38:39Z</time>
      </trkpt>
      <trkpt lat="49.41257" lon="1.14776">
        <ele>154</ele>
        <time>2017-01-10T16:38:39Z</time>
      </trkpt>
      <trkpt lat="49.41254" lon="1.14784">
        <ele>154</ele>
        <time>2017-01-10T16:38:55Z</time>
      </trkpt>
      <trkpt lat="49.41253" lon="1.14791">
        <ele>154</ele>
        <time>2017-01-10T16:38:55Z</time>
      </trkpt>
      <trkpt lat="49.41251" lon="1.14798">
        <ele>153</ele>
        <time>2017-01-10T16:38:55Z</time>
      </trkpt>
      <trkpt lat="49.41249" lon="1.14805">
        <ele>153</ele>
        <time>2017-01-10T16:38:55Z</time>
      </trkpt>
      <trkpt lat="49.41248" lon="1.14811">
        <ele>153</ele>
        <time>2017-01-10T16:39:11Z</time>
      </trkpt>
      <trkpt lat="49.41244" lon="1.14817">
        <ele>153</ele>
        <time>2017-01-10T16:39:11Z</time>
      </trkpt>
      <trkpt lat="49.41243" lon="1.14823">
        <ele>153</ele>
        <time>2017-01-10T16:39:11Z</time>
      </trkpt>
      <trkpt lat="49.41243" lon="1.14829">
        <ele>153</ele>
        <time>2017-01-10T16:39:11Z</time>
      </trkpt>
      <trkpt lat="49.41242" lon="1.14836">
        <ele>153</ele>
        <time>2017-01-10T16:39:27Z</time>
      </trkpt>
      <trkpt lat="49.41242" lon="1.14843">
        <ele>153</ele>
        <time>2017-01-10T16:39:27Z</time>
      </trkpt>
      <trkpt lat="49.41242" lon="1.1485">
        <ele>153</ele>
        <time>2017-01-10T16:39:27Z</time>
      </trkpt>
      <trkpt lat="49.41242" lon="1.14856">
        <ele>153</ele>
        <time>2017-01-10T16:39:27Z</time>
      </trkpt>
      <trkpt lat="49.41242" lon="1.14864">
        <ele>153</ele>
        <time>2017-01-10T16:39:43Z</time>
      </trkpt>
      <trkpt lat="49.41242" lon="1.1487">
        <ele>153</ele>
        <time>2017-01-10T16:39:43Z</time>
      </trkpt>
      <trkpt lat="49.41241" lon="1.14875">
        <ele>153</ele>
        <time>2017-01-10T16:39:43Z</time>
      </trkpt>
      <trkpt lat="49.41238" lon="1.14881">
        <ele>151</ele>
        <time>2017-01-10T16:39:43Z</time>
      </trkpt>
      <trkpt lat="49.41236" lon="1.14888">
        <ele>151</ele>
        <time>2017-01-10T16:39:59Z</time>
      </trkpt>
      <trkpt lat="49.41233" lon="1.14894">
        <ele>151</ele>
        <time>2017-01-10T16:39:59Z</time>
      </trkpt>
      <trkpt lat="49.41232" lon="1.14901">
        <ele>151</ele>
        <time>2017-01-10T16:39:59Z</time>
      </trkpt>
      <trkpt lat="49.4123" lon="1.14907">
        <ele>151</ele>
        <time>2017-01-10T16:39:59Z</time>
      </trkpt>
      <trkpt lat="49.41229" lon="1.14914">
        <ele>151</ele>
        <time>2017-01-10T16:40:15Z</time>
      </trkpt>
      <trkpt lat="49.41228" lon="1.1492">
        <ele>151</ele>
        <time>2017-01-10T16:40:15Z</time>
      </trkpt>
      <trkpt lat="49.41227" lon="1.14928">
        <ele>151</ele>
        <time>2017-01-10T16:40:15Z</time>
      </trkpt>
      <trkpt lat="49.41226" lon="1.14935">
        <ele>151</ele>
        <time>2017-01-10T16:40:15Z</time>
      </trkpt>
      <trkpt lat="49.41224" lon="1.14942">
        <ele>151</ele>
        <time>2017-01-10T16:40:31Z</time>
      </trkpt>
      <trkpt lat="49.41222" lon="1.14949">
        <ele>151</ele>
        <time>2017-01-10T16:40:31Z</time>
      </trkpt>
      <trkpt lat="49.4122" lon="1.14956">
        <ele>151</ele>
        <time>2017-01-10T16:40:31Z</time>
      </trkpt>
      <trkpt lat="49.41218" lon="1.14961">
        <ele>148</ele>
        <time>2017-01-10T16:40:31Z</time>
      </trkpt>
      <trkpt lat="49.41217" lon="1.14966">
        <ele>148</ele>
        <time>2017-01-10T16:40:47Z</time>
      </trkpt>
      <trkpt lat="49.41217" lon="1.14973">
        <ele>148</ele>
        <time>2017-01-10T16:40:47Z</time>
      </trkpt>
      <trkpt lat="49.41216" lon="1.1498">
        <ele>148</ele>
        <time>2017-01-10T16:40:47Z</time>
      </trkpt>
      <trkpt lat="49.41214" lon="1.14986">
        <ele>148</ele>
        <time>2017-01-10T16:40:47Z</time>
      </trkpt>
      <trkpt lat="49.41213" lon="1.1499">
        <ele>148</ele>
        <time>2017-01-10T16:41:03Z</time>
      </trkpt>
      <trkpt lat="49.41205" lon="1.14988">
        <ele>150</ele>
        <time>2017-01-10T16:41:03Z</time>
      </trkpt>
      <trkpt lat="49.41202" lon="1.14985">
        <ele>150</ele>
        <time>2017-01-10T16:41:03Z</time>
      </trkpt>
      <trkpt lat="49.41198" lon="1.14982">
        <ele>150</ele>
        <time>2017-01-10T16:41:03Z</time>
      </trkpt>
      <trkpt lat="49.41193" lon="1.14979">
        <ele>150</ele>
        <time>2017-01-10T16:41:19Z</time>
      </trkpt>
      <trkpt lat="49.41189" lon="1.14978">
        <ele>150</ele>
        <time>2017-01-10T16:41:19Z</time>
      </trkpt>
      <trkpt lat="49.41184" lon="1.14977">
        <ele>150</ele>
        <time>2017-01-10T16:41:19Z</time>
      </trkpt>
      <trkpt lat="49.4118" lon="1.14977">
        <ele>150</ele>
        <time>2017-01-10T16:41:19Z</time>
      </trkpt>
      <trkpt lat="49.41174" lon="1.14976">
        <ele>150</ele>
        <time>2017-01-10T16:41:35Z</time>
      </trkpt>
      <trkpt lat="49.4117" lon="1.14976">
        <ele>150</ele>
        <time>2017-01-10T16:41:35Z</time>
      </trkpt>
      <trkpt lat="49.41166" lon="1.14975">
        <ele>150</ele>
        <time>2017-01-10T16:41:35Z</time>
      </trkpt>
      <trkpt lat="49.41162" lon="1.14974">
        <ele>150</ele>
        <time>2017-01-10T16:41:35Z</time>
      </trkpt>
      <trkpt lat="49.41158" lon="1.14972">
        <ele>150</ele>
        <time>2017-01-10T16:41:51Z</time>
      </trkpt>
      <trkpt lat="49.41153" lon="1.14968">
        <ele>150</ele>
        <time>2017-01-10T16:41:51Z</time>
      </trkpt>
      <trkpt lat="49.41148" lon="1.14964">
        <ele>150</ele>
        <time>2017-01-10T16:41:51Z</time>
      </trkpt>
      <trkpt lat="49.41143" lon="1.1496">
        <ele>150</ele>
        <time>2017-01-10T16:41:51Z</time>
      </trkpt>
      <trkpt lat="49.41138" lon="1.14958">
        <ele>153</ele>
        <time>2017-01-10T16:42:07Z</time>
      </trkpt>
      <trkpt lat="49.41134" lon="1.14956">
        <ele>153</ele>
        <time>2017-01-10T16:42:07Z</time>
      </trkpt>
      <trkpt lat="49.4113" lon="1.14952">
        <ele>153</ele>
        <time>2017-01-10T16:42:07Z</time>
      </trkpt>
      <trkpt lat="49.41125" lon="1.14946">
        <ele>153</ele>
        <time>2017-01-10T16:42:07Z</time>
      </trkpt>
      <trkpt lat="49.41122" lon="1.14941">
        <ele>155</ele>
        <time>2017-01-10T16:42:23Z</time>
      </trkpt>
      <trkpt lat="49.41118" lon="1.14939">
        <ele>155</ele>
        <time>2017-01-10T16:42:23Z</time>
      </trkpt>
      <trkpt lat="49.41114" lon="1.14938">
        <ele>155</ele>
        <time>2017-01-10T16:42:23Z</time>
      </trkpt>
      <trkpt lat="49.4111" lon="1.14939">
        <ele>155</ele>
        <time>2017-01-10T16:42:23Z</time>
      </trkpt>
      <trkpt lat="49.41107" lon="1.1494">
        <ele>155</ele>
        <time>2017-01-10T16:42:39Z</time>
      </trkpt>
      <trkpt lat="49.41104" lon="1.14943">
        <ele>155</ele>
        <time>2017-01-10T16:42:39Z</time>
      </trkpt>
      <trkpt lat="49.41102" lon="1.14949">
        <ele>155</ele>
        <time>2017-01-10T16:42:39Z</time>
      </trkpt>
      <trkpt lat="49.411" lon="1.14955">
        <ele>155</ele>
        <time>2017-01-10T16:42:39Z</time>
      </trkpt>
      <trkpt lat="49.41099" lon="1.14959">
        <ele>152</ele>
        <time>2017-01-10T16:42:55Z</time>
      </trkpt>
      <trkpt lat="49.41098" lon="1.14966">
        <ele>152</ele>
        <time>2017-01-10T16:42:55Z</time>
      </trkpt>
      <trkpt lat="49.41096" lon="1.1497">
        <ele>152</ele>
        <time>2017-01-10T16:42:55Z</time>
      </trkpt>
      <trkpt lat="49.41095" lon="1.14977">
        <ele>152</ele>
        <time>2017-01-10T16:42:55Z</time>
      </trkpt>
      <trkpt lat="49.41093" lon="1.14983">
        <ele>152</ele>
        <time>2017-01-10T16:43:11Z</time>
      </trkpt>
      <trkpt lat="49.41093" lon="1.14991">
        <ele>152</ele>
        <time>2017-01-10T16:43:11Z</time>
      </trkpt>
      <trkpt lat="49.41092" lon="1.14998">
        <ele>152</ele>
        <time>2017-01-10T16:43:11Z</time>
      </trkpt>
      <trkpt lat="49.4109" lon="1.15003">
        <ele>152</ele>
        <time>2017-01-10T16:43:11Z</time>
      </trkpt>
      <trkpt lat="49.41088" lon="1.15009">
        <ele>152</ele>
        <time>2017-01-10T16:43:27Z</time>
      </trkpt>
      <trkpt lat="49.41086" lon="1.15015">
        <ele>152</ele>
        <time>2017-01-10T16:43:27Z</time>
      </trkpt>
      <trkpt lat="49.41083" lon="1.15021">
        <ele>152</ele>
        <time>2017-01-10T16:43:27Z</time>
      </trkpt>
      <trkpt lat="49.41085" lon="1.15026">
        <ele>152</ele>
        <time>2017-01-10T16:43:27Z</time>
      </trkpt>
      <trkpt lat="49.41088" lon="1.1503">
        <ele>152</ele>
        <time>2017-01-10T16:43:43Z</time>
      </trkpt>
      <trkpt lat="49.41085" lon="1.15035">
        <ele>152</ele>
        <time>2017-01-10T16:43:43Z</time>
      </trkpt>
      <trkpt lat="49.4108" lon="1.15039">
        <ele>152</ele>
        <time>2017-01-10T16:43:43Z</time>
      </trkpt>
      <trkpt lat="49.41076" lon="1.15044">
        <ele>149</ele>
        <time>2017-01-10T16:43:43Z</time>
      </trkpt>
      <trkpt lat="49.41072" lon="1.15049">
        <ele>149</ele>
        <time>2017-01-10T16:43:59Z</time>
      </trkpt>
      <trkpt lat="49.41069" lon="1.15056">
        <ele>149</ele>
        <time>2017-01-10T16:43:59Z</time>
      </trkpt>
      <trkpt lat="49.41065" lon="1.1506">
        <ele>149</ele>
        <time>2017-01-10T16:43:59Z</time>
      </trkpt>
      <trkpt lat="49.41062" lon="1.15062">
        <ele>149</ele>
        <time>2017-01-10T16:43:59Z</time>
      </trkpt>
      <trkpt lat="49.4106" lon="1.15067">
        <ele>149</ele>
        <time>2017-01-10T16:44:15Z</time>
      </trkpt>
      <trkpt lat="49.41058" lon="1.15073">
        <ele>149</ele>
        <time>2017-01-10T16:44:15Z</time>
      </trkpt>
      <trkpt lat="49.41056" lon="1.15077">
        <ele>149</ele>
        <time>2017-01-10T16:44:15Z</time>
      </trkpt>
      <trkpt lat="49.41054" lon="1.15081">
        <ele>149</ele>
        <time>2017-01-10T16:44:15Z</time>
      </trkpt>
      <trkpt lat="49.4105" lon="1.15078">
        <ele>149</ele>
        <time>2017-01-10T16:44:31Z</time>
      </trkpt>
      <trkpt lat="49.41047" lon="1.15074">
        <ele>149</ele>
        <time>2017-01-10T16:44:31Z</time>
      </trkpt>
      <trkpt lat="49.41045" lon="1.15067">
        <ele>149</ele>
        <time>2017-01-10T16:44:31Z</time>
      </trkpt>
      <trkpt lat="49.41043" lon="1.15061">
        <ele>149</ele>
        <time>2017-01-10T16:44:31Z</time>
      </trkpt>
      <trkpt lat="49.4104" lon="1.15056">
        <ele>152</ele>
        <time>2017-01-10T16:44:47Z</time>
      </trkpt>
      <trkpt lat="49.41035" lon="1.15048">
        <ele>152</ele>
        <time>2017-01-10T16:44:47Z</time>
      </trkpt>
      <trkpt lat="49.41031" lon="1.15041">
        <ele>156</ele>
        <time>2017-01-10T16:44:47Z</time>
      </trkpt>
      <trkpt lat="49.41028" lon="1.15035">
        <ele>156</ele>
        <time>2017-01-10T16:44:47Z</time>
      </trkpt>
      <trkpt lat="49.41026" lon="1.15029">
        <ele>156</ele>
        <time>2017-01-10T16:45:03Z</time>
      </trkpt>
      <trkpt lat="49.41023" lon="1.15021">
        <ele>156</ele>
        <time>2017-01-10T16:45:03Z</time>
      </trkpt>
      <trkpt lat="49.4102" lon="1.15015">
        <ele>156</ele>
        <time>2017-01-10T16:45:03Z</time>
      </trkpt>
      <trkpt lat="49.41018" lon="1.15009">
        <ele>156</ele>
        <time>2017-01-10T16:45:03Z</time>
      </trkpt>
      <trkpt lat="49.41015" lon="1.15004">
        <ele>156</ele>
        <time>2017-01-10T16:45:19Z</time>
      </trkpt>
      <trkpt lat="49.41013" lon="1.14999">
        <ele>156</ele>
        <time>2017-01-10T16:45:19Z</time>
      </trkpt>
      <trkpt lat="49.41011" lon="1.14996">
        <ele>156</ele>
        <time>2017-01-10T16:45:19Z</time>
      </trkpt>
      <trkpt lat="49.41007" lon="1.14997">
        <ele>156</ele>
        <time>2017-01-10T16:45:19Z</time>
      </trkpt>
      <trkpt lat="49.41" lon="1.14998">
        <ele>156</ele>
        <time>2017-01-10T16:45:35Z</time>
      </trkpt>
      <trkpt lat="49.40994" lon="1.15001">
        <ele>156</ele>
        <time>2017-01-10T16:45:35Z</time>
      </trkpt>
      <trkpt lat="49.40989" lon="1.15005">
        <ele>156</ele>
        <time>2017-01-10T16:45:35Z</time>
      </trkpt>
      <trkpt lat="49.40985" lon="1.15011">
        <ele>156</ele>
        <time>2017-01-10T16:45:35Z</time>
      </trkpt>
      <trkpt lat="49.40982" lon="1.15017">
        <ele>156</ele>
        <time>2017-01-10T16:45:51Z</time>
      </trkpt>
      <trkpt lat="49.4098" lon="1.1502">
        <ele>156</ele>
        <time>2017-01-10T16:45:51Z</time>
      </trkpt>
      <trkpt lat="49.40979" lon="1.15024">
        <ele>156</ele>
        <time>2017-01-10T16:45:51Z</time>
      </trkpt>
      <trkpt lat="49.40976" lon="1.15029">
        <ele>156</ele>
        <time>2017-01-10T16:45:51Z</time>
      </trkpt>
      <trkpt lat="49.40971" lon="1.15033">
        <ele>156</ele>
        <time>2017-01-10T16:46:07Z</time>
      </trkpt>
      <trkpt lat="49.40968" lon="1.15038">
        <ele>156</ele>
        <time>2017-01-10T16:46:07Z</time>
      </trkpt>
      <trkpt lat="49.40965" lon="1.15043">
        <ele>152</ele>
        <time>2017-01-10T16:46:07Z</time>
      </trkpt>
      <trkpt lat="49.40962" lon="1.15047">
        <ele>152</ele>
        <time>2017-01-10T16:46:07Z</time>
      </trkpt>
      <trkpt lat="49.40959" lon="1.15051">
        <ele>152</ele>
        <time>2017-01-10T16:46:23Z</time>
      </trkpt>
      <trkpt lat="49.40957" lon="1.15057">
        <ele>156</ele>
        <time>2017-01-10T16:46:23Z</time>
      </trkpt>
      <trkpt lat="49.40955" lon="1.15063">
        <ele>156</ele>
        <time>2017-01-10T16:46:23Z</time>
      </trkpt>
      <trkpt lat="49.40951" lon="1.1507">
        <ele>156</ele>
        <time>2017-01-10T16:46:23Z</time>
      </trkpt>
      <trkpt lat="49.40948" lon="1.15077">
        <ele>156</ele>
        <time>2017-01-10T16:46:39Z</time>
      </trkpt>
      <trkpt lat="49.40945" lon="1.15084">
        <ele>156</ele>
        <time>2017-01-10T16:46:39Z</time>
      </trkpt>
      <trkpt lat="49.40944" lon="1.15088">
        <ele>156</ele>
        <time>2017-01-10T16:46:39Z</time>
      </trkpt>
      <trkpt lat="49.40941" lon="1.15094">
        <ele>156</ele>
        <time>2017-01-10T16:46:39Z</time>
      </trkpt>
      <trkpt lat="49.40937" lon="1.15097">
        <ele>156</ele>
        <time>2017-01-10T16:46:55Z</time>
      </trkpt>
      <trkpt lat="49.40934" lon="1.151">
        <ele>156</ele>
        <time>2017-01-10T16:46:55Z</time>
      </trkpt>
      <trkpt lat="49.40931" lon="1.15104">
        <ele>156</ele>
        <time>2017-01-10T16:46:55Z</time>
      </trkpt>
      <trkpt lat="49.40928" lon="1.15108">
        <ele>156</ele>
        <time>2017-01-10T16:46:55Z</time>
      </trkpt>
      <trkpt lat="49.40924" lon="1.15113">
        <ele>156</ele>
        <time>2017-01-10T16:47:11Z</time>
      </trkpt>
      <trkpt lat="49.4092" lon="1.15116">
        <ele>156</ele>
        <time>2017-01-10T16:47:11Z</time>
      </trkpt>
      <trkpt lat="49.40917" lon="1.15122">
        <ele>156</ele>
        <time>2017-01-10T16:47:11Z</time>
      </trkpt>
      <trkpt lat="49.40915" lon="1.15127">
        <ele>155</ele>
        <time>2017-01-10T16:47:11Z</time>
      </trkpt>
      <trkpt lat="49.40912" lon="1.15132">
        <ele>155</ele>
        <time>2017-01-10T16:47:27Z</time>
      </trkpt>
      <trkpt lat="49.40909" lon="1.15139">
        <ele>155</ele>
        <time>2017-01-10T16:47:27Z</time>
      </trkpt>
      <trkpt lat="49.40908" lon="1.15145">
        <ele>155</ele>
        <time>2017-01-10T16:47:27Z</time>
      </trkpt>
      <trkpt lat="49.40907" lon="1.15151">
        <ele>155</ele>
        <time>2017-01-10T16:47:27Z</time>
      </trkpt>
      <trkpt lat="49.40906" lon="1.15157">
        <ele>155</ele>
        <time>2017-01-10T16:47:43Z</time>
      </trkpt>
      <trkpt lat="49.40904" lon="1.15163">
        <ele>155</ele>
        <time>2017-01-10T16:47:43Z</time>
      </trkpt>
      <trkpt lat="49.40902" lon="1.15167">
        <ele>155</ele>
        <time>2017-01-10T16:47:43Z</time>
      </trkpt>
      <trkpt lat="49.409" lon="1.15171">
        <ele>155</ele>
        <time>2017-01-10T16:47:43Z</time>
      </trkpt>
      <trkpt lat="49.40899" lon="1.15177">
        <ele>155</ele>
        <time>2017-01-10T16:47:59Z</time>
      </trkpt>
      <trkpt lat="49.409" lon="1.15184">
        <ele>155</ele>
        <time>2017-01-10T16:47:59Z</time>
      </trkpt>
      <trkpt lat="49.40897" lon="1.15192">
        <ele>155</ele>
        <time>2017-01-10T16:47:59Z</time>
      </trkpt>
      <trkpt lat="49.40896" lon="1.15197">
        <ele>155</ele>
        <time>2017-01-10T16:47:59Z</time>
      </trkpt>
      <trkpt lat="49.40893" lon="1.15206">
        <ele>155</ele>
        <time>2017-01-10T16:48:15Z</time>
      </trkpt>
      <trkpt lat="49.40892" lon="1.15213">
        <ele>154</ele>
        <time>2017-01-10T16:48:15Z</time>
      </trkpt>
      <trkpt lat="49.40889" lon="1.15219">
        <ele>154</ele>
        <time>2017-01-10T16:48:15Z</time>
      </trkpt>
      <trkpt lat="49.40886" lon="1.15225">
        <ele>154</ele>
        <time>2017-01-10T16:48:15Z</time>
      </trkpt>
      <trkpt lat="49.40885" lon="1.15231">
        <ele>154</ele>
        <time>2017-01-10T16:48:31Z</time>
      </trkpt>
      <trkpt lat="49.40882" lon="1.15235">
        <ele>154</ele>
        <time>2017-01-10T16:48:31Z</time>
      </trkpt>
      <trkpt lat="49.40883" lon="1.15241">
        <ele>154</ele>
        <time>2017-01-10T16:48:31Z</time>
      </trkpt>
      <trkpt lat="49.4088" lon="1.15245">
        <ele>154</ele>
        <time>2017-01-10T16:48:31Z</time>
      </trkpt>
      <trkpt lat="49.40878" lon="1.15249">
        <ele>154</ele>
        <time>2017-01-10T16:48:51Z</time>
      </trkpt>
      <trkpt lat="49.40876" lon="1.15251">
        <ele>154</ele>
        <time>2017-01-10T16:48:51Z</time>
      </trkpt>
      <trkpt lat="49.40878" lon="1.15255">
        <ele>154</ele>
        <time>2017-01-10T16:48:51Z</time>
      </trkpt>
      <trkpt lat="49.40879" lon="1.15261">
        <ele>154</ele>
        <time>2017-01-10T16:48:51Z</time>
      </trkpt>
      <trkpt lat="49.40882" lon="1.15266">
        <ele>154</ele>
        <time>2017-01-10T16:48:51Z</time>
      </trkpt>
      <trkpt lat="49.40885" lon="1.15269">
        <ele>154</ele>
        <time>2017-01-10T16:49:07Z</time>
      </trkpt>
      <trkpt lat="49.40888" lon="1.15267">
        <ele>154</ele>
        <time>2017-01-10T16:49:07Z</time>
      </trkpt>
      <trkpt lat="49.40885" lon="1.15279">
        <ele>154</ele>
        <time>2017-01-10T16:49:07Z</time>
      </trkpt>
      <trkpt lat="49.40883" lon="1.15286">
        <ele>154</ele>
        <time>2017-01-10T16:49:07Z</time>
      </trkpt>
      <trkpt lat="49.40877" lon="1.15288">
        <ele>154</ele>
        <time>2017-01-10T16:50:03Z</time>
      </trkpt>
      <trkpt lat="49.4088" lon="1.15283">
        <ele>154</ele>
        <time>2017-01-10T16:50:03Z</time>
      </trkpt>
      <trkpt lat="49.40883" lon="1.15283">
        <ele>154</ele>
        <time>2017-01-10T16:50:03Z</time>
      </trkpt>
      <trkpt lat="49.40887" lon="1.15282">
        <ele>154</ele>
        <time>2017-01-10T16:50:03Z</time>
      </trkpt>
      <trkpt lat="49.4089" lon="1.15277">
        <ele>154</ele>
        <time>2017-01-10T16:50:03Z</time>
      </trkpt>
    </trkseg>
  </trk>
</gpx>